SN217 / OO-SFD 7700 Squawk Report (25th of January, 2021)

Aircraft A333 Reg No. OO-SFD Age 12 years old
Model A330 Jet engines 2 First flight 03-10-08
Registered 26-04-19 Rollout 21-08-08 Delivered 27-10-08
Construction No. 959 Line No. N/A Series 343X
ADSHEX 44CCC4 Airline name Brussels Airlines Owner Aercap Holdings N.V.
Airfield based Brussels-Zaventem~Vlaams-Brabant~OO First tracked N/A

Flight history for OO-SFD

Route Flight No Date Playback
Ndjili Intl (FIH) - Brussels Airport (BRU) SN358 2021-03-01 12:28:00
Brussels Airport (BRU) - Ndjili Intl (FIH) SN357 2021-02-27 22:01:00
Heathrow (LHR) - Brussels Airport (BRU) SN2094 2021-02-27 14:19:00
Brussels Airport (BRU) - Heathrow (LHR) SN2093 2021-02-27 11:21:00
Yaounde Nsimalen (NSI) - Douala (DLA) - Brussels Airport (BRU) SN372 2021-02-27 05:48:00
Brussels Airport (BRU) - Douala (DLA) - Yaounde Nsimalen (NSI) SN371 2021-02-25 20:21:00
Yaounde Nsimalen (NSI) - Douala (DLA) - Brussels Airport (BRU) SN372 2021-02-25 14:06:00
Brussels Airport (BRU) - Douala (DLA) - Yaounde Nsimalen (NSI) SN371 2021-02-23 20:50:00
Brussels Airport (BRU) - Freetown Lungi (FNA) - Monrovia Roberts International (ROB) - Brussels Airport (BRU) SN245 2021-02-23 14:48:00
Brussels Airport (BRU) - Freetown Lungi (FNA) - Monrovia Roberts International (ROB) - Brussels Airport (BRU) SN245 2021-02-23 05:51:00
Brussels Airport (BRU) - Freetown Lungi (FNA) - Monrovia Roberts International (ROB) - Brussels Airport (BRU) SN243 2021-02-21 06:18:00
Yaounde Nsimalen (NSI) - Douala (DLA) - Brussels Airport (BRU) SN372 2021-02-20 06:07:00
Brussels Airport (BRU) - Douala (DLA) - Yaounde Nsimalen (NSI) SN371 2021-02-18 20:49:00
Yaounde Nsimalen (NSI) - Douala (DLA) - Brussels Airport (BRU) SN372 2021-02-18 05:58:00
Brussels Airport (BRU) - Douala (DLA) - Yaounde Nsimalen (NSI) SN371 2021-02-16 20:15:00
Kigali Intl (KGL) - Entebbe Intl (EBB) - Brussels Airport (BRU) SN474 2021-02-15 06:02:00
Brussels Airport (BRU) - Entebbe Intl (EBB) - Kigali Intl (KGL) SN473 2021-02-13 21:56:00
Brussels Airport (BRU) - Abidjan Felix Houphouet Boigny Intl (ABJ) - Cadjehoun (COO) - Brussels Airport (BRU) SN229 2021-02-13 14:18:00
Brussels Airport (BRU) - Monrovia Roberts International (ROB) - Abidjan Felix Houphouet Boigny Intl (ABJ) - Brussels Airport (BRU) SN305 2021-02-12 07:30:00
Kigali Intl (KGL) - Entebbe Intl (EBB) - Brussels Airport (BRU) SN474 2021-02-08 21:08:00
Time Lat Lon Altitude Heading Speed Vertical Rate
2021-01-26 05:44:10 GMT 50.901134 4.489346 0 154 0 0
2021-01-26 05:44:03 GMT 50.901134 4.489325 0 154 0 0
2021-01-26 05:43:54 GMT 50.901146 4.489325 0 154 0 0
2021-01-26 05:43:51 GMT 50.901157 4.489325 0 154 1 0
2021-01-26 05:43:42 GMT 50.901196 4.489288 0 154 0 0
2021-01-26 05:43:33 GMT 50.901287 4.489212 0 154 4 0
2021-01-26 05:43:20 GMT 50.901569 4.489010 0 154 9 0
2021-01-26 05:43:12 GMT 50.901882 4.488811 0 151 9 0
2021-01-26 05:43:01 GMT 50.902302 4.488525 0 115 12 0
2021-01-26 05:42:47 GMT 50.902382 4.487544 0 67 15 0
2021-01-26 05:42:41 GMT 50.902229 4.486961 0 64 13 0
2021-01-26 05:42:30 GMT 50.901981 4.486078 0 39 11 0
2021-01-26 05:42:20 GMT 50.901627 4.485607 0 348 9 0
2021-01-26 05:42:11 GMT 50.901344 4.485512 0 298 7 0
2021-01-26 05:42:00 GMT 50.901146 4.485725 0 247 4 0
2021-01-26 05:41:49 GMT 50.901169 4.485911 0 239 0 0
2021-01-26 05:41:40 GMT 50.901196 4.485950 0 239 2 0
2021-01-26 05:41:29 GMT 50.901310 4.486294 0 244 11 0
2021-01-26 05:41:19 GMT 50.901604 4.487210 0 244 17 0
2021-01-26 05:41:09 GMT 50.901917 4.488297 0 244 18 0
2021-01-26 05:41:00 GMT 50.902233 4.489400 0 247 16 0
2021-01-26 05:40:52 GMT 50.902451 4.490235 0 247 16 0
2021-01-26 05:40:49 GMT 50.902512 4.490471 0 247 15 0
2021-01-26 05:40:40 GMT 50.902760 4.491385 0 244 14 0
2021-01-26 05:40:37 GMT 50.902817 4.491608 0 244 13 0
2021-01-26 05:40:31 GMT 50.902977 4.492146 0 244 13 0
2021-01-26 05:40:28 GMT 50.903046 4.492397 0 244 13 0
2021-01-26 05:40:21 GMT 50.903206 4.492926 0 244 12 0
2021-01-26 05:40:17 GMT 50.903286 4.493241 0 244 12 0
2021-01-26 05:40:10 GMT 50.903427 4.493752 0 247 12 0
2021-01-26 05:40:07 GMT 50.903492 4.493965 0 247 12 0
2021-01-26 05:39:57 GMT 50.903721 4.494763 0 295 12 0
2021-01-26 05:39:54 GMT 50.903709 4.495041 0 323 12 0
2021-01-26 05:39:50 GMT 50.903637 4.495239 0 343 12 0
2021-01-26 05:39:46 GMT 50.903446 4.495412 0 5 12 0
2021-01-26 05:39:36 GMT 50.902657 4.495153 0 14 23 0
2021-01-26 05:39:28 GMT 50.901638 4.494743 0 14 20 0
2021-01-26 05:39:13 GMT 50.900665 4.494336 0 14 18 0
2021-01-26 05:39:08 GMT 50.900253 4.494152 0 14 16 0
2021-01-26 05:39:05 GMT 50.900089 4.494076 0 14 15 0
2021-01-26 05:38:58 GMT 50.899590 4.493885 0 14 13 0
2021-01-26 05:38:51 GMT 50.899239 4.493752 0 14 16 0
2021-01-26 05:38:47 GMT 50.898876 4.493618 0 14 15 0
2021-01-26 05:38:34 GMT 50.898022 4.493260 0 14 19 0
2021-01-26 05:38:29 GMT 50.897518 4.493046 0 14 17 0
2021-01-26 05:38:19 GMT 50.896912 4.492796 0 14 15 0
2021-01-26 05:38:13 GMT 50.896503 4.492626 0 11 13 0
2021-01-26 05:38:01 GMT 50.895679 4.492588 0 329 10 0
2021-01-26 05:37:56 GMT 50.895679 4.492588 0 309 13 0
2021-01-26 05:37:45 GMT 50.895203 4.493561 0 306 21 0
2021-01-26 05:37:36 GMT 50.894714 4.494577 0 306 17 0
2021-01-26 05:37:28 GMT 50.894352 4.495373 0 306 17 0
2021-01-26 05:37:25 GMT 50.894234 4.495617 0 303 16 0
2021-01-26 05:37:18 GMT 50.893890 4.496322 0 306 19 0
2021-01-26 05:37:06 GMT 50.893303 4.497795 0 272 18 0
2021-01-26 05:36:55 GMT 50.893375 4.499130 0 250 19 0
2021-01-26 05:36:48 GMT 50.893677 4.500427 0 250 44 0
2021-01-26 05:36:45 GMT 50.893902 4.501425 0 250 58 0
2021-01-26 05:36:38 GMT 50.894657 4.504673 0 250 80 0
2021-01-26 05:36:32 GMT 50.895351 4.507675 25 250 90 0
2021-01-26 05:36:24 GMT 50.896633 4.513321 25 250 116 -192
2021-01-26 05:36:20 GMT 50.897461 4.516865 50 250 122 -256
2021-01-26 05:36:14 GMT 50.898636 4.521866 75 250 125 -448
2021-01-26 05:36:08 GMT 50.899887 4.527258 150 250 125 -768
2021-01-26 05:36:05 GMT 50.900665 4.530598 200 251 127 -704
2021-01-26 05:36:02 GMT 50.901150 4.532852 250 251 127 -768
2021-01-26 05:35:58 GMT 50.901993 4.536537 300 251 128 -704
2021-01-26 05:35:53 GMT 50.903057 4.541092 350 250 129 -640
2021-01-26 05:35:50 GMT 50.903641 4.543589 375 250 129 -640
2021-01-26 05:35:47 GMT 50.904079 4.545593 400 250 129 -704
2021-01-26 05:35:42 GMT 50.905243 4.550629 475 251 126 -640
2021-01-26 05:35:39 GMT 50.905945 4.553680 525 251 126 -704
2021-01-26 05:35:36 GMT 50.906296 4.555095 525 251 127 -704
2021-01-26 05:35:33 GMT 50.907108 4.558716 600 250 126 -704
2021-01-26 05:35:30 GMT 50.907578 4.560662 600 250 126 -704
2021-01-26 05:35:27 GMT 50.908176 4.563217 650 250 126 -768
2021-01-26 05:35:23 GMT 50.909061 4.566956 875 250 127 -704
2021-01-26 05:35:20 GMT 50.909637 4.569570 725 251 126 -640
2021-01-26 05:35:14 GMT 50.911011 4.575509 800 251 126 -640
2021-01-26 05:35:10 GMT 50.911606 4.578181 850 250 127 -704
2021-01-26 05:35:07 GMT 50.912319 4.581223 875 251 127 -768
2021-01-26 05:35:03 GMT 50.912979 4.584120 950 250 127 -832
2021-01-26 05:35:00 GMT 50.913666 4.587237 975 251 128 -832
2021-01-26 05:34:56 GMT 50.914352 4.590355 1,025 251 128 -768
2021-01-26 05:34:53 GMT 50.915020 4.593124 1,075 250 129 -768
2021-01-26 05:34:50 GMT 50.915672 4.595947 1,100 250 129 -768
2021-01-26 05:34:47 GMT 50.916416 4.599152 1,150 250 130 -704
2021-01-26 05:34:42 GMT 50.917488 4.603806 1,200 250 129 -640
2021-01-26 05:34:39 GMT 50.917858 4.605255 1,225 250 129 -576
2021-01-26 05:34:36 GMT 50.918510 4.607925 1,250 250 128 -768
2021-01-26 05:34:32 GMT 50.919937 4.614035 1,350 250 127 -768
2021-01-26 05:34:29 GMT 50.919937 4.614035 1,350 250 127 -768
2021-01-26 05:34:25 GMT 50.920761 4.617524 1,400 251 127 -704
2021-01-26 05:34:22 GMT 50.921444 4.620514 1,450 251 126 -640
2021-01-26 05:34:19 GMT 50.921951 4.622794 1,450 251 126 -640
2021-01-26 05:34:11 GMT 50.923599 4.630143 1,550 251 126 -704
2021-01-26 05:34:08 GMT 50.924103 4.632296 1,575 251 126 -768
2021-01-26 05:34:05 GMT 50.924789 4.635191 1,625 251 126 -704
2021-01-26 05:34:01 GMT 50.925632 4.638901 1,700 250 130 -512
2021-01-26 05:33:58 GMT 50.926392 4.642392 1,700 251 132 -640
2021-01-26 05:33:54 GMT 50.927311 4.646149 1,750 251 135 -704
2021-01-26 05:33:51 GMT 50.927719 4.648108 1,800 250 137 -768
2021-01-26 05:33:48 GMT 50.928288 4.650574 1,825 251 138 -896
2021-01-26 05:33:41 GMT 50.930058 4.658127 1,975 251 143 -768
2021-01-26 05:33:38 GMT 50.930603 4.660579 1,975 251 144 -704
2021-01-26 05:33:35 GMT 50.931313 4.663696 2,000 251 148 -576
2021-01-26 05:33:31 GMT 50.932251 4.667853 2,125 250 157 -960
2021-01-26 05:33:28 GMT 50.932983 4.671119 2,100 251 152 -960
2021-01-26 05:33:23 GMT 50.934219 4.676390 2,150 251 156 -960
2021-01-26 05:33:20 GMT 50.934944 4.679565 2,225 251 158 -960
2021-01-26 05:33:17 GMT 50.935684 4.682774 2,250 250 160 -1024
2021-01-26 05:33:14 GMT 50.936234 4.685149 2,275 250 160 -1024
2021-01-26 05:33:11 GMT 50.937321 4.690018 2,400 250 168 -896
2021-01-26 05:33:08 GMT 50.937973 4.692721 2,425 251 162 -1088
2021-01-26 05:33:04 GMT 50.938854 4.696655 2,475 250 162 -1152
2021-01-26 05:33:00 GMT 50.939896 4.701258 2,550 250 162 -1216
2021-01-26 05:32:56 GMT 50.940998 4.705887 2,700 250 161 -1216
2021-01-26 05:32:53 GMT 50.941647 4.708710 2,750 250 162 -832
2021-01-26 05:32:50 GMT 50.942577 4.712524 2,750 250 162 -512
2021-01-26 05:32:47 GMT 50.943283 4.715510 2,750 250 165 -320
2021-01-26 05:32:43 GMT 50.944382 4.720187 2,800 250 167 -704
2021-01-26 05:32:40 GMT 50.945278 4.723969 2,850 250 167 -896
2021-01-26 05:32:37 GMT 50.945984 4.727016 2,875 251 167 -704
2021-01-26 05:32:34 GMT 50.946911 4.731064 2,925 251 166 -64
2021-01-26 05:32:30 GMT 50.947861 4.735404 2,925 251 166 64
2021-01-26 05:32:27 GMT 50.948490 4.738159 2,925 251 166 64
2021-01-26 05:32:24 GMT 50.949425 4.742203 2,925 251 166 64
2021-01-26 05:32:20 GMT 50.950447 4.746933 2,925 251 166 0
2021-01-26 05:32:17 GMT 50.951191 4.750214 2,925 251 165 -64
2021-01-26 05:32:14 GMT 50.952072 4.754185 2,925 251 165 0
2021-01-26 05:32:11 GMT 50.952942 4.758342 2,925 252 166 0
2021-01-26 05:32:08 GMT 50.953472 4.760666 2,925 251 166 0
2021-01-26 05:32:05 GMT 50.954361 4.764578 2,925 251 165 0
2021-01-26 05:32:00 GMT 50.955551 4.770071 2,925 251 170 0
2021-01-26 05:31:57 GMT 50.956192 4.772966 2,925 251 167 64
2021-01-26 05:31:53 GMT 50.957428 4.778459 2,925 251 173 0
2021-01-26 05:31:50 GMT 50.958069 4.781502 2,925 251 171 0
2021-01-26 05:31:47 GMT 50.958920 4.785080 2,925 251 175 0
2021-01-26 05:31:43 GMT 50.959991 4.789886 2,925 251 178 0
2021-01-26 05:31:40 GMT 50.960861 4.793751 2,925 251 182 64
2021-01-26 05:31:37 GMT 50.961666 4.797516 2,900 251 185 64
2021-01-26 05:31:33 GMT 50.962830 4.802584 2,900 250 190 64
2021-01-26 05:31:30 GMT 50.963856 4.806976 2,900 249 194 0
2021-01-26 05:31:26 GMT 50.964890 4.811121 2,900 249 196 -64
2021-01-26 05:31:23 GMT 50.966133 4.816055 2,925 247 201 -128
2021-01-26 05:31:20 GMT 50.968597 4.824928 2,925 245 203 0
2021-01-26 05:31:17 GMT 50.968597 4.824928 2,925 245 203 0
2021-01-26 05:31:12 GMT 50.970383 4.830792 2,925 244 203 -64
2021-01-26 05:31:09 GMT 50.972046 4.836121 2,925 243 203 -64
2021-01-26 05:31:06 GMT 50.972744 4.838333 2,925 243 203 0
2021-01-26 05:31:02 GMT 50.974731 4.844006 2,925 240 205 128
2021-01-26 05:30:59 GMT 50.976189 4.847641 2,925 235 207 0
2021-01-26 05:30:56 GMT 50.977936 4.851429 2,925 231 208 0
2021-01-26 05:30:52 GMT 50.980614 4.856110 2,925 225 212 0
2021-01-26 05:30:49 GMT 50.982559 4.859075 2,925 223 213 0
2021-01-26 05:30:46 GMT 50.985035 4.862595 2,925 222 213 -64
2021-01-26 05:30:42 GMT 50.987732 4.866424 2,925 222 213 64
2021-01-26 05:30:39 GMT 50.990017 4.869537 2,925 222 213 64
2021-01-26 05:30:36 GMT 50.992264 4.872733 2,925 222 213 0
2021-01-26 05:30:32 GMT 50.995422 4.877187 2,925 222 213 64
2021-01-26 05:30:28 GMT 50.998161 4.880981 2,925 222 213 64
2021-01-26 05:30:25 GMT 51.000046 4.883571 2,925 222 213 0
2021-01-26 05:30:22 GMT 51.002491 4.887085 2,925 222 213 0
2021-01-26 05:30:19 GMT 51.005005 4.890594 2,925 222 213 0
2021-01-26 05:30:16 GMT 51.007462 4.894038 2,925 222 214 64
2021-01-26 05:30:12 GMT 51.009800 4.897385 2,925 222 213 0
2021-01-26 05:30:09 GMT 51.012360 4.900942 2,925 222 213 0
2021-01-26 05:30:05 GMT 51.014874 4.904556 2,925 222 213 0
2021-01-26 05:30:02 GMT 51.017155 4.907837 2,925 222 213 0
2021-01-26 05:29:58 GMT 51.020416 4.912448 2,925 222 213 0
2021-01-26 05:29:55 GMT 51.022228 4.915009 2,925 222 211 0
2021-01-26 05:29:52 GMT 51.024418 4.918137 2,925 222 212 0
2021-01-26 05:29:48 GMT 51.027237 4.922098 2,925 222 213 0
2021-01-26 05:29:45 GMT 51.029572 4.925438 2,925 222 212 0
2021-01-26 05:29:42 GMT 51.031960 4.928818 2,925 223 213 -64
2021-01-26 05:29:38 GMT 51.035797 4.934346 2,925 223 214 64
2021-01-26 05:29:35 GMT 51.036659 4.935532 2,925 223 214 64
2021-01-26 05:29:32 GMT 51.039230 4.939320 2,925 223 214 0
2021-01-26 05:29:29 GMT 51.041428 4.942511 2,925 223 214 0
2021-01-26 05:29:26 GMT 51.043259 4.945184 2,925 223 214 64
2021-01-26 05:29:23 GMT 51.046017 4.949112 2,925 223 214 0
2021-01-26 05:29:20 GMT 51.048298 4.952469 2,925 223 213 0
2021-01-26 05:29:17 GMT 51.050491 4.955651 2,925 223 213 -64
2021-01-26 05:29:14 GMT 51.052139 4.958026 2,925 223 213 0
2021-01-26 05:29:11 GMT 51.054256 4.961090 2,925 223 213 64
2021-01-26 05:29:08 GMT 51.056538 4.964371 2,925 223 214 0
2021-01-26 05:29:05 GMT 51.059006 4.967880 2,925 222 213 -64
2021-01-26 05:29:02 GMT 51.061565 4.971542 2,925 223 213 0
2021-01-26 05:28:59 GMT 51.063431 4.974289 2,925 223 213 0
2021-01-26 05:28:56 GMT 51.066456 4.978638 2,925 223 213 64
2021-01-26 05:28:53 GMT 51.067795 4.980592 2,925 223 213 0
2021-01-26 05:28:50 GMT 51.069946 4.983673 2,925 223 213 -128
2021-01-26 05:28:47 GMT 51.072601 4.987570 2,925 223 214 -64
2021-01-26 05:28:44 GMT 51.074413 4.990158 2,925 222 215 0
2021-01-26 05:28:41 GMT 51.076492 4.993138 2,925 223 214 0
2021-01-26 05:28:38 GMT 51.078606 4.996185 2,925 222 215 0
2021-01-26 05:28:35 GMT 51.081257 5.000000 2,925 223 215 0
2021-01-26 05:28:31 GMT 51.084274 5.004272 2,925 223 215 0
2021-01-26 05:28:28 GMT 51.086563 5.007477 2,925 223 215 0
2021-01-26 05:28:25 GMT 51.088577 5.010434 2,925 222 216 0
2021-01-26 05:28:22 GMT 51.090199 5.012665 2,925 222 216 64
2021-01-26 05:28:19 GMT 51.093109 5.016892 2,925 222 216 64
2021-01-26 05:28:16 GMT 51.095123 5.019713 2,925 222 216 -64
2021-01-26 05:28:13 GMT 51.097504 5.023041 2,925 222 216 64
2021-01-26 05:28:10 GMT 51.099792 5.026245 2,925 222 216 -64
2021-01-26 05:28:07 GMT 51.101929 5.029297 2,925 222 216 -64
2021-01-26 05:28:04 GMT 51.105057 5.033668 2,925 223 217 64
2021-01-26 05:28:01 GMT 51.106522 5.035821 2,925 225 214 0
2021-01-26 05:27:58 GMT 51.108627 5.039013 2,925 225 214 64
2021-01-26 05:27:55 GMT 51.110771 5.042343 2,925 226 212 -128
2021-01-26 05:27:51 GMT 51.113846 5.047379 2,925 226 211 0
2021-01-26 05:27:47 GMT 51.116592 5.051651 2,925 223 213 64
2021-01-26 05:27:44 GMT 51.118057 5.053859 2,925 221 214 64
2021-01-26 05:27:41 GMT 51.120735 5.057068 2,925 218 216 128
2021-01-26 05:27:38 GMT 51.123413 5.059724 2,925 205 223 -64
2021-01-26 05:27:35 GMT 51.126320 5.062027 2,925 200 225 0
2021-01-26 05:27:32 GMT 51.128651 5.063400 2,925 196 228 0
2021-01-26 05:27:29 GMT 51.132793 5.064850 2,925 187 232 0
2021-01-26 05:27:26 GMT 51.135536 5.065308 2,925 181 236 0
2021-01-26 05:27:23 GMT 51.139355 5.065155 2,925 173 238 0
2021-01-26 05:27:20 GMT 51.142334 5.064545 2,925 169 241 0
2021-01-26 05:27:17 GMT 51.144802 5.063629 2,925 159 244 -64
2021-01-26 05:27:14 GMT 51.147858 5.062025 2,925 151 247 0
2021-01-26 05:27:11 GMT 51.151566 5.059278 2,925 145 249 0
2021-01-26 05:27:08 GMT 51.154533 5.056381 2,925 142 250 0
2021-01-26 05:27:05 GMT 51.157791 5.052375 2,925 136 251 0
2021-01-26 05:27:02 GMT 51.159557 5.049591 2,925 132 251 0
2021-01-26 05:26:59 GMT 51.161545 5.046065 2,925 126 253 0
2021-01-26 05:26:56 GMT 51.164703 5.038493 2,925 116 253 -64
2021-01-26 05:26:53 GMT 51.165436 5.036118 2,925 112 253 -64
2021-01-26 05:26:50 GMT 51.166626 5.031738 2,925 108 253 0
2021-01-26 05:26:47 GMT 51.167892 5.025253 2,925 102 252 64
2021-01-26 05:26:44 GMT 51.168503 5.020084 2,925 94 249 192
2021-01-26 05:26:40 GMT 51.168777 5.011063 2,900 83 246 128
2021-01-26 05:26:36 GMT 51.168495 5.006332 2,900 79 244 0
2021-01-26 05:26:33 GMT 51.167751 5.000381 2,900 75 243 -128
2021-01-26 05:26:30 GMT 51.166588 4.994888 2,925 66 237 -192
2021-01-26 05:26:27 GMT 51.165283 4.990005 2,925 64 236 -64
2021-01-26 05:26:24 GMT 51.163891 4.985275 2,925 63 234 64
2021-01-26 05:26:21 GMT 51.162415 4.980444 2,925 64 234 64
2021-01-26 05:26:17 GMT 51.160629 4.974594 2,925 64 233 0
2021-01-26 05:26:14 GMT 51.159142 4.969635 2,925 64 233 0
2021-01-26 05:26:11 GMT 51.157516 4.964336 2,925 64 234 64
2021-01-26 05:26:06 GMT 51.155685 4.958471 2,925 63 234 -64
2021-01-26 05:26:03 GMT 51.154205 4.953537 2,925 63 234 0
2021-01-26 05:25:59 GMT 51.151924 4.946136 2,925 63 236 64
2021-01-26 05:25:54 GMT 51.149223 4.937439 2,925 63 236 0
2021-01-26 05:25:50 GMT 51.147877 4.932861 2,925 64 235 0
2021-01-26 05:25:47 GMT 51.145874 4.926453 2,925 64 235 64
2021-01-26 05:25:44 GMT 51.144711 4.922562 2,925 64 235 0
2021-01-26 05:25:41 GMT 51.141678 4.912596 2,925 64 235 64
2021-01-26 05:25:38 GMT 51.141678 4.912596 2,925 64 234 -64
2021-01-26 05:25:34 GMT 51.140285 4.907990 2,925 64 235 -64
2021-01-26 05:25:31 GMT 51.138889 4.903336 2,925 64 235 0
2021-01-26 05:25:27 GMT 51.136963 4.897007 2,925 64 234 0
2021-01-26 05:25:24 GMT 51.135544 4.892405 2,925 64 233 0
2021-01-26 05:25:21 GMT 51.134094 4.887695 2,925 64 234 -64
2021-01-26 05:25:17 GMT 51.131699 4.879711 2,925 64 233 0
2021-01-26 05:25:14 GMT 51.130966 4.877410 2,925 64 233 -64
2021-01-26 05:25:11 GMT 51.129501 4.872585 2,925 64 233 -64
2021-01-26 05:25:08 GMT 51.127945 4.867315 2,925 64 235 -128
2021-01-26 05:25:04 GMT 51.126369 4.862137 2,950 64 235 -64
2021-01-26 05:25:01 GMT 51.124878 4.857219 2,950 64 234 -128
2021-01-26 05:24:58 GMT 51.123184 4.851652 2,950 64 233 -64
2021-01-26 05:24:54 GMT 51.121479 4.846191 2,975 64 233 -128
2021-01-26 05:24:51 GMT 51.119572 4.839859 3,100 64 233 -704
2021-01-26 05:24:47 GMT 51.117966 4.834652 3,025 64 233 -896
2021-01-26 05:24:44 GMT 51.116867 4.830941 3,050 64 233 -896
2021-01-26 05:24:41 GMT 51.115334 4.825974 3,200 63 233 -832
2021-01-26 05:24:38 GMT 51.113705 4.820709 3,125 64 233 -832
2021-01-26 05:24:35 GMT 51.112381 4.816317 3,175 63 233 -832
2021-01-26 05:24:31 GMT 51.110458 4.810156 3,250 63 234 -896
2021-01-26 05:24:28 GMT 51.109005 4.805450 3,300 63 234 -832
2021-01-26 05:24:25 GMT 51.107849 4.801619 3,300 63 234 -832
2021-01-26 05:24:22 GMT 51.106339 4.796646 3,350 64 235 -768
2021-01-26 05:24:19 GMT 51.104813 4.791794 3,525 63 236 -704
2021-01-26 05:24:16 GMT 51.103180 4.786402 3,425 63 238 -576
2021-01-26 05:24:13 GMT 51.100391 4.777374 3,500 63 238 -768
2021-01-26 05:24:10 GMT 51.100391 4.777374 3,500 63 238 -896
2021-01-26 05:24:07 GMT 51.098785 4.772223 3,550 63 238 -960
2021-01-26 05:24:04 GMT 51.097271 4.767303 3,650 63 238 -896
2021-01-26 05:24:01 GMT 51.096313 4.764206 3,800 63 239 -832
2021-01-26 05:23:58 GMT 51.094433 4.758148 3,700 63 239 -832
2021-01-26 05:23:55 GMT 51.093201 4.754111 3,700 63 239 -832
2021-01-26 05:23:52 GMT 51.091278 4.747950 3,775 63 240 -768
2021-01-26 05:23:48 GMT 51.089592 4.742508 3,800 63 241 -640
2021-01-26 05:23:45 GMT 51.088074 4.737631 3,850 63 242 -512
2021-01-26 05:23:41 GMT 51.086380 4.732132 3,875 63 245 -384
2021-01-26 05:23:38 GMT 51.084332 4.725494 3,900 64 246 -448
2021-01-26 05:23:34 GMT 51.082607 4.719925 3,925 63 248 -512
2021-01-26 05:23:31 GMT 51.080612 4.713432 3,975 63 257 -512
2021-01-26 05:23:28 GMT 51.079304 4.709244 3,975 63 250 -512
2021-01-26 05:23:25 GMT 51.077579 4.703598 4,025 64 255 -512
2021-01-26 05:23:22 GMT 51.076511 4.700165 4,025 64 253 -512
2021-01-26 05:23:18 GMT 51.074650 4.694138 4,100 63 257 -512
2021-01-26 05:23:15 GMT 51.072922 4.688490 4,100 63 257 -512
2021-01-26 05:23:12 GMT 51.071297 4.683304 4,100 63 258 -512
2021-01-26 05:23:07 GMT 51.068829 4.675293 4,175 63 261 -384
2021-01-26 05:23:04 GMT 51.067200 4.670080 4,175 63 262 -448
2021-01-26 05:23:01 GMT 51.065384 4.664307 4,200 63 263 -512
2021-01-26 05:22:58 GMT 51.063812 4.659391 4,225 63 265 -512
2021-01-26 05:22:55 GMT 51.062347 4.654640 4,250 63 267 -448
2021-01-26 05:22:52 GMT 51.060635 4.649277 4,275 63 268 -448
2021-01-26 05:22:49 GMT 51.059193 4.644699 4,275 63 269 -384
2021-01-26 05:22:46 GMT 51.056946 4.637567 4,300 63 272 -512
2021-01-26 05:22:43 GMT 51.055515 4.633026 4,375 63 272 -640
2021-01-26 05:22:39 GMT 51.053047 4.625092 4,375 63 274 -960
2021-01-26 05:22:36 GMT 51.051697 4.620743 4,425 63 274 -960
2021-01-26 05:22:33 GMT 51.049278 4.613190 4,475 63 274 -896
2021-01-26 05:22:30 GMT 51.048115 4.609604 4,500 63 276 -704
2021-01-26 05:22:26 GMT 51.045914 4.602603 4,550 63 277 -704
2021-01-26 05:22:23 GMT 51.044205 4.597244 4,625 63 278 -1152
2021-01-26 05:22:20 GMT 51.042435 4.591599 4,625 63 278 -1152
2021-01-26 05:22:16 GMT 51.040478 4.585342 4,700 63 278 -1152
2021-01-26 05:22:13 GMT 51.038570 4.579391 4,800 63 279 -1088
2021-01-26 05:22:10 GMT 51.036530 4.572836 4,825 63 279 -1088
2021-01-26 05:22:06 GMT 51.034241 4.565430 4,900 64 279 -1024
2021-01-26 05:22:03 GMT 51.032516 4.559631 4,975 64 280 -960
2021-01-26 05:22:00 GMT 51.030750 4.553680 5,000 64 280 -960
2021-01-26 05:21:56 GMT 51.028976 4.547820 5,125 64 281 -1088
2021-01-26 05:21:53 GMT 51.027260 4.542160 5,175 64 281 -1024
2021-01-26 05:21:50 GMT 51.025406 4.536166 5,225 64 282 -960
2021-01-26 05:21:47 GMT 51.023941 4.531341 5,225 63 282 -896
2021-01-26 05:21:44 GMT 51.021927 4.524808 5,275 64 283 -832
2021-01-26 05:21:41 GMT 51.020325 4.519538 5,300 64 283 -896
2021-01-26 05:21:38 GMT 51.018738 4.514389 5,375 64 285 -768
2021-01-26 05:21:35 GMT 51.016525 4.507141 5,400 64 285 -704
2021-01-26 05:21:32 GMT 51.013275 4.496600 5,450 64 288 -576
2021-01-26 05:21:29 GMT 51.013275 4.496600 5,475 64 288 -512
2021-01-26 05:21:26 GMT 51.011524 4.490967 5,500 64 290 -512
2021-01-26 05:21:23 GMT 51.010025 4.486059 5,575 64 292 -512
2021-01-26 05:21:20 GMT 51.007736 4.478562 5,550 63 295 -448
2021-01-26 05:21:17 GMT 51.006317 4.473959 5,575 63 296 -512
2021-01-26 05:21:14 GMT 51.004448 4.468002 5,600 63 297 -576
2021-01-26 05:21:11 GMT 51.002563 4.461860 5,625 63 298 -576
2021-01-26 05:21:08 GMT 51.000961 4.456738 5,650 63 300 -512
2021-01-26 05:21:05 GMT 50.999092 4.450684 5,675 63 301 -512
2021-01-26 05:21:02 GMT 50.996998 4.443893 5,700 64 303 -576
2021-01-26 05:20:59 GMT 50.995422 4.438773 5,725 64 305 -576
2021-01-26 05:20:56 GMT 50.993591 4.432761 5,775 64 308 -576
2021-01-26 05:20:53 GMT 50.989655 4.419993 5,800 63 309 -576
2021-01-26 05:20:50 GMT 50.989655 4.419993 5,825 64 310 -640
2021-01-26 05:20:46 GMT 50.987408 4.412689 5,850 64 312 -640
2021-01-26 05:20:43 GMT 50.985126 4.405289 5,900 64 314 -512
2021-01-26 05:20:39 GMT 50.982513 4.396832 5,925 64 317 -384
2021-01-26 05:20:35 GMT 50.980133 4.389112 5,950 64 321 -512
2021-01-26 05:20:32 GMT 50.976097 4.375839 6,000 64 323 -896
2021-01-26 05:20:29 GMT 50.976097 4.375839 6,025 64 325 -960
2021-01-26 05:20:25 GMT 50.973255 4.366531 6,100 64 329 -960
2021-01-26 05:20:21 GMT 50.971298 4.360162 6,125 64 331 -960
2021-01-26 05:20:18 GMT 50.968697 4.351730 6,225 64 338 -1088
2021-01-26 05:20:15 GMT 50.966675 4.345167 6,250 64 338 -1088
2021-01-26 05:20:12 GMT 50.964890 4.339377 6,350 63 341 -1088
2021-01-26 05:20:08 GMT 50.961594 4.328539 6,375 63 346 -1088
2021-01-26 05:20:05 GMT 50.959900 4.323120 6,425 63 348 -1088
2021-01-26 05:20:02 GMT 50.958080 4.317245 6,475 63 351 -1344
2021-01-26 05:19:59 GMT 50.955643 4.309313 6,550 63 354 -1856
2021-01-26 05:19:56 GMT 50.952942 4.300628 6,700 63 355 -2432
2021-01-26 05:19:52 GMT 50.950607 4.293205 6,900 63 356 -2944
2021-01-26 05:19:49 GMT 50.947605 4.283524 6,975 63 356 -2816
2021-01-26 05:19:46 GMT 50.946163 4.278793 7,150 63 357 -2624
2021-01-26 05:19:43 GMT 50.943836 4.271240 7,250 63 358 -2624
2021-01-26 05:19:40 GMT 50.941879 4.264908 7,350 63 359 -2624
2021-01-26 05:19:37 GMT 50.938980 4.255569 7,525 63 360 -2816
2021-01-26 05:19:34 GMT 50.937515 4.250818 7,775 63 361 -2944
2021-01-26 05:19:31 GMT 50.935318 4.243774 8,075 63 361 -3136
2021-01-26 05:19:28 GMT 50.933075 4.236566 7,975 63 362 -3136
2021-01-26 05:19:25 GMT 50.930969 4.229662 8,125 63 362 -3136
2021-01-26 05:19:22 GMT 50.928680 4.222313 8,600 63 363 -3008
2021-01-26 05:19:19 GMT 50.925682 4.212646 8,450 63 363 -3008
2021-01-26 05:19:16 GMT 50.923820 4.206696 8,600 63 364 -2944
2021-01-26 05:19:13 GMT 50.922089 4.201009 8,675 63 364 -2944
2021-01-26 05:19:10 GMT 50.919537 4.192810 8,875 63 366 -2752
2021-01-26 05:19:07 GMT 50.917625 4.186783 10,500 63 369 -3456
2021-01-26 05:19:04 GMT 50.915268 4.179184 9,225 63 368 -2816
2021-01-26 05:19:01 GMT 50.912926 4.171600 9,250 63 368 -2880
2021-01-26 05:18:58 GMT 50.910828 4.164932 9,450 63 369 -3072
2021-01-26 05:18:55 GMT 50.908550 4.157562 9,575 63 370 -3200
2021-01-26 05:18:52 GMT 50.906158 4.149937 9,775 63 370 -3456
2021-01-26 05:18:49 GMT 50.901443 4.134868 11,375 63 370 -3392
2021-01-26 05:18:46 GMT 50.901443 4.134868 10,150 63 369 -3584
2021-01-26 05:18:43 GMT 50.898586 4.125824 10,300 63 370 -3392
2021-01-26 05:18:40 GMT 50.897144 4.121170 10,500 63 370 -3200
2021-01-26 05:18:37 GMT 50.894760 4.113563 10,875 63 371 -3328
2021-01-26 05:18:34 GMT 50.892471 4.106289 10,800 63 370 -3392
2021-01-26 05:18:31 GMT 50.890228 4.099014 10,900 63 370 -3520
2021-01-26 05:18:28 GMT 50.888168 4.092407 11,150 63 370 -3456
2021-01-26 05:18:25 GMT 50.885788 4.084910 11,450 63 371 -3264
2021-01-26 05:18:22 GMT 50.883224 4.076767 11,400 63 371 -3136
2021-01-26 05:18:19 GMT 50.880993 4.069748 11,575 63 372 -2944
2021-01-26 05:18:16 GMT 50.876659 4.055862 11,825 63 372 -3008
2021-01-26 05:18:13 GMT 50.876659 4.055862 11,850 63 372 -3008
2021-01-26 05:18:10 GMT 50.873703 4.046458 12,075 63 374 -2944
2021-01-26 05:18:07 GMT 50.871403 4.039230 12,200 63 375 -2880
2021-01-26 05:18:04 GMT 50.867111 4.025598 12,650 63 378 -2176
2021-01-26 05:18:01 GMT 50.867111 4.025598 12,475 63 389 -2560
2021-01-26 05:17:58 GMT 50.864605 4.017487 12,575 63 381 -1856
2021-01-26 05:17:55 GMT 50.862602 4.011307 12,625 63 383 -1856
2021-01-26 05:17:52 GMT 50.859512 4.001399 12,750 63 385 -1984
2021-01-26 05:17:49 GMT 50.857807 3.995972 12,875 63 387 -2176
2021-01-26 05:17:46 GMT 50.854889 3.986701 13,000 63 389 -2560
2021-01-26 05:17:43 GMT 50.853104 3.981134 13,025 63 389 -2560
2021-01-26 05:17:40 GMT 50.850594 3.973083 13,250 63 390 -3072
2021-01-26 05:17:37 GMT 50.848251 3.965545 13,450 63 390 -3136
2021-01-26 05:17:34 GMT 50.845230 3.955895 13,575 63 389 -3520
2021-01-26 05:17:31 GMT 50.843609 3.950653 13,650 63 389 -3520
2021-01-26 05:17:28 GMT 50.841202 3.942830 13,825 64 389 -3392
2021-01-26 05:17:25 GMT 50.838226 3.933105 14,100 64 389 -3200
2021-01-26 05:17:22 GMT 50.836990 3.929023 14,125 64 389 -3072
2021-01-26 05:17:19 GMT 50.833881 3.918610 14,325 64 390 -2880
2021-01-26 05:17:16 GMT 50.831646 3.911133 14,425 64 390 -2816
2021-01-26 05:17:13 GMT 50.829643 3.904419 14,600 64 391 -2816
2021-01-26 05:17:10 GMT 50.827362 3.896637 14,800 64 391 -2816
2021-01-26 05:17:07 GMT 50.824631 3.887379 14,875 64 393 -2624
2021-01-26 05:17:04 GMT 50.822067 3.878842 15,025 64 394 -2560
2021-01-26 05:17:01 GMT 50.820099 3.872087 15,125 64 394 -2688
2021-01-26 05:16:58 GMT 50.817818 3.864365 15,325 65 393 -2944
2021-01-26 05:16:55 GMT 50.816189 3.858871 15,325 65 393 -2944
2021-01-26 05:16:52 GMT 50.812729 3.847071 15,600 65 393 -2624
2021-01-26 05:16:49 GMT 50.811035 3.841355 15,675 65 393 -2432
2021-01-26 05:16:46 GMT 50.808472 3.832447 15,800 65 395 -1920
2021-01-26 05:16:43 GMT 50.806599 3.826065 16,175 62 379 -3904
2021-01-26 05:16:40 GMT 50.804260 3.818046 15,975 65 396 -1728
2021-01-26 05:16:37 GMT 50.801193 3.807579 16,075 65 398 -2304
2021-01-26 05:16:34 GMT 50.799042 3.800156 16,225 65 397 -3008
2021-01-26 05:16:31 GMT 50.797012 3.793182 16,350 65 395 -3648
2021-01-26 05:16:28 GMT 50.795059 3.786572 16,675 64 391 -4544
2021-01-26 05:16:25 GMT 50.792728 3.778687 16,825 64 385 -4736
2021-01-26 05:16:22 GMT 50.790436 3.771131 17,125 64 384 -4544
2021-01-26 05:16:19 GMT 50.787552 3.761778 17,275 62 379 -3904
2021-01-26 05:16:16 GMT 50.784943 3.753613 17,500 61 377 -3712
2021-01-26 05:16:13 GMT 50.783157 3.748565 17,650 59 374 -3264
2021-01-26 05:16:10 GMT 50.777573 3.734535 17,850 55 370 -2496
2021-01-26 05:16:07 GMT 50.777573 3.734535 18,075 54 368 -2112
2021-01-26 05:16:04 GMT 50.774620 3.728180 18,050 50 367 -1472
2021-01-26 05:16:01 GMT 50.771545 3.722153 18,125 47 365 -1408
2021-01-26 05:15:58 GMT 50.768234 3.716274 18,200 44 364 -1344
2021-01-26 05:15:55 GMT 50.764053 3.709564 18,225 43 363 -1344
2021-01-26 05:15:52 GMT 50.761047 3.705139 18,300 41 363 -1216
2021-01-26 05:15:49 GMT 50.756241 3.698458 18,350 40 364 -1280
2021-01-26 05:15:46 GMT 50.753677 3.694969 18,400 40 365 -1344
2021-01-26 05:15:43 GMT 50.749294 3.688965 18,500 40 366 -1728
2021-01-26 05:15:40 GMT 50.745758 3.684206 18,600 40 367 -1984
2021-01-26 05:15:37 GMT 50.741844 3.678894 18,700 40 367 -2048
2021-01-26 05:15:34 GMT 50.737656 3.673219 18,875 40 368 -2176
2021-01-26 05:15:31 GMT 50.732956 3.666840 18,925 40 368 -2112
2021-01-26 05:15:28 GMT 50.730469 3.663421 19,050 40 368 -2112
2021-01-26 05:15:25 GMT 50.725506 3.656693 19,125 40 368 -2048
2021-01-26 05:15:22 GMT 50.721596 3.651428 19,275 40 368 -2048
2021-01-26 05:15:19 GMT 50.718384 3.647079 19,325 40 368 -2112
2021-01-26 05:15:16 GMT 50.714752 3.642197 19,525 40 368 -2176
2021-01-26 05:15:13 GMT 50.710007 3.635807 19,550 40 369 -2240
2021-01-26 05:15:10 GMT 50.706188 3.630600 19,675 40 369 -2240
2021-01-26 05:15:07 GMT 50.702271 3.625266 19,775 40 369 -2240
2021-01-26 05:15:04 GMT 50.698318 3.619919 20,100 40 369 -2176
2021-01-26 05:15:01 GMT 50.694550 3.614883 20,025 40 369 -2112
2021-01-26 05:14:58 GMT 50.690033 3.608704 20,125 40 370 -1984
2021-01-26 05:14:55 GMT 50.687565 3.605423 20,225 40 370 -1856
2021-01-26 05:14:52 GMT 50.683002 3.599243 20,325 40 372 -1664
2021-01-26 05:14:49 GMT 50.679703 3.594756 20,375 40 373 -1536
2021-01-26 05:14:46 GMT 50.675556 3.589172 20,525 40 374 -1472
2021-01-26 05:14:43 GMT 50.672157 3.584518 20,525 40 375 -1408
2021-01-26 05:14:40 GMT 50.667114 3.577712 20,625 40 377 -1344
2021-01-26 05:14:37 GMT 50.663681 3.573014 20,650 40 378 -1280
2021-01-26 05:14:34 GMT 50.660286 3.568478 20,700 40 380 -1472
2021-01-26 05:14:31 GMT 50.656284 3.563059 20,850 40 380 -1664
2021-01-26 05:14:28 GMT 50.652237 3.557547 20,925 40 381 -1856
2021-01-26 05:14:25 GMT 50.647903 3.551702 21,250 41 388 -1024
2021-01-26 05:14:22 GMT 50.643677 3.545982 21,175 40 382 -1856
2021-01-26 05:14:19 GMT 50.640270 3.541383 21,175 40 383 -1856
2021-01-26 05:14:16 GMT 50.636127 3.535742 21,275 40 383 -1664
2021-01-26 05:14:13 GMT 50.632122 3.530249 21,425 41 409 -1152
2021-01-26 05:14:10 GMT 50.627934 3.524533 21,475 40 387 -1088
2021-01-26 05:14:07 GMT 50.623463 3.518446 21,475 40 389 -960
2021-01-26 05:14:04 GMT 50.615971 3.508276 21,525 40 392 -832
2021-01-26 05:14:01 GMT 50.615971 3.508276 21,550 40 392 -832
2021-01-26 05:13:58 GMT 50.611542 3.502181 21,600 41 396 -896
2021-01-26 05:13:55 GMT 50.607033 3.496028 21,650 40 398 -896
2021-01-26 05:13:52 GMT 50.599350 3.485561 21,700 41 401 -960
2021-01-26 05:13:49 GMT 50.595108 3.479703 21,750 41 403 -896
2021-01-26 05:13:46 GMT 50.595108 3.479703 21,775 41 406 -960
2021-01-26 05:13:43 GMT 50.590302 3.473125 21,800 41 409 -1344
2021-01-26 05:13:40 GMT 50.585587 3.466692 21,875 41 409 -1344
2021-01-26 05:13:37 GMT 50.580544 3.459803 21,950 41 411 -1792
2021-01-26 05:13:34 GMT 50.572350 3.448594 22,050 40 413 -2112
2021-01-26 05:13:31 GMT 50.572350 3.448594 22,125 41 413 -2112
2021-01-26 05:13:28 GMT 50.569382 3.444503 22,175 40 414 -1920
2021-01-26 05:13:25 GMT 50.564667 3.438127 22,800 40 417 -1984
2021-01-26 05:13:22 GMT 50.560852 3.432931 22,700 40 417 -3712
2021-01-26 05:13:19 GMT 50.555637 3.425804 22,550 40 417 -3264
2021-01-26 05:13:16 GMT 50.551575 3.420434 22,725 40 417 -3456
2021-01-26 05:13:13 GMT 50.546631 3.413712 23,975 40 401 -4864
2021-01-26 05:13:10 GMT 50.542183 3.407766 23,075 40 413 -4608
2021-01-26 05:13:07 GMT 50.538620 3.402943 23,400 40 410 -4864
2021-01-26 05:13:04 GMT 50.534222 3.397077 23,525 40 407 -4992
2021-01-26 05:13:01 GMT 50.528591 3.389653 23,975 40 404 -4928
2021-01-26 05:12:58 GMT 50.520676 3.379112 24,100 40 401 -4864
2021-01-26 05:12:55 GMT 50.520676 3.379112 24,325 40 399 -4992
2021-01-26 05:12:52 GMT 50.517197 3.374537 24,575 40 397 -4992
2021-01-26 05:12:49 GMT 50.512344 3.368105 24,825 40 393 -4928
2021-01-26 05:12:46 GMT 50.508865 3.363479 24,975 40 391 -4736
2021-01-26 05:12:43 GMT 50.504883 3.358202 25,250 40 386 -4288
2021-01-26 05:12:41 GMT 50.502056 3.354467 25,450 40 387 -4352
2021-01-26 05:12:38 GMT 50.496468 3.346970 25,775 40 384 -4096
2021-01-26 05:12:34 GMT 50.492420 3.341551 25,875 40 383 -3840
2021-01-26 05:12:31 GMT 50.484329 3.330592 26,100 40 383 -3264
2021-01-26 05:12:28 GMT 50.484329 3.330592 26,225 40 382 -2816
2021-01-26 05:12:25 GMT 50.480026 3.324810 26,450 40 383 -2048
2021-01-26 05:12:22 GMT 50.476032 3.319504 26,450 40 383 -1856
2021-01-26 05:12:19 GMT 50.471470 3.313343 26,550 40 385 -1536
2021-01-26 05:12:16 GMT 50.468353 3.309112 27,725 40 399 -2112
2021-01-26 05:12:13 GMT 50.464161 3.303470 26,975 40 389 -1792
2021-01-26 05:12:10 GMT 50.459972 3.297828 26,825 40 389 -1792
2021-01-26 05:12:07 GMT 50.455734 3.292113 26,875 40 389 -1856
2021-01-26 05:12:04 GMT 50.448029 3.281660 27,000 40 390 -1792
2021-01-26 05:12:01 GMT 50.448029 3.281660 27,075 40 392 -1664
2021-01-26 05:11:58 GMT 50.442795 3.274520 27,150 40 393 -1600
2021-01-26 05:11:55 GMT 50.439423 3.270023 27,325 40 394 -1536
2021-01-26 05:11:52 GMT 50.435852 3.265108 27,400 40 395 -1600
2021-01-26 05:11:49 GMT 50.431595 3.259326 27,375 40 395 -1536
2021-01-26 05:11:46 GMT 50.426968 3.253067 27,450 40 396 -1728
2021-01-26 05:11:43 GMT 50.423584 3.248484 27,525 40 395 -1920
2021-01-26 05:11:41 GMT 50.419281 3.242701 27,650 40 396 -2048
2021-01-26 05:11:38 GMT 50.415886 3.238146 28,000 40 397 -2048
2021-01-26 05:11:35 GMT 50.411774 3.232655 27,825 40 397 -2048
2021-01-26 05:11:32 GMT 50.407974 3.227595 27,900 40 397 -2048
2021-01-26 05:11:30 GMT 50.405830 3.224710 27,975 40 397 -2112
2021-01-26 05:11:28 GMT 50.401566 3.218994 28,100 40 399 -2112
2021-01-26 05:11:25 GMT 50.397263 3.213140 28,175 41 400 -2112
2021-01-26 05:11:22 GMT 50.394379 3.209196 28,725 45 409 -2304
2021-01-26 05:11:19 GMT 50.390076 3.203021 28,375 43 406 -2176
2021-01-26 05:11:16 GMT 50.385635 3.196299 28,550 45 410 -2304
2021-01-26 05:11:13 GMT 50.377529 3.183140 28,675 47 413 -2432
2021-01-26 05:11:10 GMT 50.374008 3.176928 28,775 48 414 -2496
2021-01-26 05:11:07 GMT 50.374008 3.176928 28,900 49 417 -2496
2021-01-26 05:11:04 GMT 50.369709 3.169110 29,000 49 417 -2560
2021-01-26 05:11:02 GMT 50.367332 3.164731 29,400 49 416 -2816
2021-01-26 05:10:59 GMT 50.363564 3.157827 29,300 49 416 -2816
2021-01-26 05:10:56 GMT 50.360413 3.151992 30,550 49 416 -2816
2021-01-26 05:10:53 GMT 50.356113 3.144020 29,500 49 416 -2688
2021-01-26 05:10:51 GMT 50.353088 3.138404 29,600 49 415 -2624
2021-01-26 05:10:48 GMT 50.349884 3.132405 29,775 49 416 -2496
2021-01-26 05:10:45 GMT 50.347412 3.127851 29,850 49 416 -2496
2021-01-26 05:10:42 GMT 50.342987 3.119672 29,950 49 416 -2432
2021-01-26 05:10:39 GMT 50.338284 3.110912 30,100 49 416 -2304
2021-01-26 05:10:36 GMT 50.335072 3.104900 30,150 49 416 -2240
2021-01-26 05:10:33 GMT 50.331436 3.098145 30,300 49 418 -2048
2021-01-26 05:10:30 GMT 50.328827 3.093302 30,375 49 418 -1984
2021-01-26 05:10:28 GMT 50.325623 3.087381 30,425 49 418 -1984
2021-01-26 05:10:25 GMT 50.321457 3.079714 30,550 49 419 -2112
2021-01-26 05:10:22 GMT 50.318207 3.073642 30,625 49 420 -2176
2021-01-26 05:10:20 GMT 50.315598 3.068799 30,725 49 420 -2240
2021-01-26 05:10:18 GMT 50.313080 3.064174 30,850 49 421 -2432
2021-01-26 05:10:15 GMT 50.309235 3.057168 31,000 49 421 -2688
2021-01-26 05:10:12 GMT 50.305389 3.050079 31,125 49 422 -2752
2021-01-26 05:10:09 GMT 50.301727 3.043357 31,200 49 422 -2880
2021-01-26 05:10:06 GMT 50.296646 3.034106 33,725 49 411 -4032
2021-01-26 05:10:03 GMT 50.293453 3.028218 33,025 49 419 -3904
2021-01-26 05:10:00 GMT 50.289497 3.021092 31,725 49 420 -3584
2021-01-26 05:09:57 GMT 50.285728 3.014188 31,825 49 419 -3776
2021-01-26 05:09:54 GMT 50.282421 3.008250 32,050 49 419 -3968
2021-01-26 05:09:51 GMT 50.278137 3.000455 32,200 49 417 -4096
2021-01-26 05:09:48 GMT 50.273941 2.992835 32,500 49 414 -4288
2021-01-26 05:09:45 GMT 50.271332 2.988064 32,600 49 414 -4288
2021-01-26 05:09:42 GMT 50.268585 2.983077 32,750 49 414 -4224
2021-01-26 05:09:40 GMT 50.264374 2.975343 33,075 49 411 -3968
2021-01-26 05:09:37 GMT 50.256584 2.961038 33,225 49 410 -3648
2021-01-26 05:09:34 GMT 50.256584 2.961038 33,375 49 410 -2560
2021-01-26 05:09:31 GMT 50.253937 2.956262 33,475 49 410 -2560
2021-01-26 05:09:28 GMT 50.249771 2.948600 33,650 49 411 -1920
2021-01-26 05:09:25 GMT 50.246796 2.943179 33,725 49 412 -1664
2021-01-26 05:09:23 GMT 50.244530 2.938991 33,775 49 413 -1600
2021-01-26 05:09:20 GMT 50.240803 2.932162 33,800 49 413 -1472
2021-01-26 05:09:17 GMT 50.236404 2.924098 33,900 49 414 -1152
2021-01-26 05:09:14 GMT 50.233154 2.918243 33,975 49 415 -1024
2021-01-26 05:09:11 GMT 50.229259 2.911080 34,025 49 417 -1024
2021-01-26 05:09:08 GMT 50.225861 2.904919 34,350 49 417 -1024
2021-01-26 05:09:05 GMT 50.221298 2.896560 34,125 49 417 -1024
2021-01-26 05:09:02 GMT 50.218781 2.892006 34,175 49 417 -1024
2021-01-26 05:09:00 GMT 50.215393 2.885863 34,200 49 418 -1024
2021-01-26 05:08:57 GMT 50.211475 2.878641 34,275 49 418 -960
2021-01-26 05:08:54 GMT 50.204224 2.865480 34,325 49 418 -960
2021-01-26 05:08:51 GMT 50.204224 2.865480 34,375 49 418 -960
2021-01-26 05:08:49 GMT 50.200256 2.858301 34,425 49 419 -960
2021-01-26 05:08:46 GMT 50.197140 2.852585 34,475 49 420 -960
2021-01-26 05:08:43 GMT 50.194717 2.848206 34,500 49 420 -960
2021-01-26 05:08:41 GMT 50.190807 2.841079 34,525 49 421 -960
2021-01-26 05:08:38 GMT 50.188248 2.836352 34,575 49 422 -1024
2021-01-26 05:08:35 GMT 50.183266 2.827124 34,625 49 424 -960
2021-01-26 05:08:32 GMT 50.180706 2.822521 34,650 49 424 -1024
2021-01-26 05:08:30 GMT 50.176941 2.815608 34,750 49 427 -1216
2021-01-26 05:08:27 GMT 50.171951 2.806501 34,800 49 427 -1216
2021-01-26 05:08:24 GMT 50.170650 2.804038 34,825 49 427 -1088
2021-01-26 05:08:22 GMT 50.167904 2.799138 34,875 49 429 -1024
2021-01-26 05:08:20 GMT 50.165955 2.795515 34,900 49 429 -1024
2021-01-26 05:08:18 GMT 50.162567 2.789443 34,950 49 430 -960
2021-01-26 05:08:15 GMT 50.157616 2.780358 35,000 49 431 -960
2021-01-26 05:08:12 GMT 50.154217 2.774196 35,050 49 433 -1024
2021-01-26 05:08:09 GMT 50.151611 2.769445 35,075 49 434 -1024
2021-01-26 05:08:06 GMT 50.145603 2.758533 35,150 49 437 -960
2021-01-26 05:08:02 GMT 50.141182 2.750368 35,225 49 439 -1024
2021-01-26 05:07:59 GMT 50.134060 2.737377 35,300 49 441 -1088
2021-01-26 05:07:56 GMT 50.134060 2.737377 35,350 49 442 -1152
2021-01-26 05:07:53 GMT 50.129265 2.728692 35,425 49 444 -1280
2021-01-26 05:07:50 GMT 50.125309 2.721343 35,500 49 446 -1536
2021-01-26 05:07:47 GMT 50.121025 2.713549 35,550 49 446 -1600
2021-01-26 05:07:44 GMT 50.118301 2.708564 35,600 49 447 -1600
2021-01-26 05:07:42 GMT 50.115673 2.703824 35,675 49 449 -1408
2021-01-26 05:07:40 GMT 50.111710 2.696565 35,750 49 449 -1152
2021-01-26 05:07:37 GMT 50.107758 2.689275 35,775 49 451 -896
2021-01-26 05:07:34 GMT 50.104778 2.683856 35,800 49 452 -768
2021-01-26 05:07:32 GMT 50.102142 2.679002 35,850 49 455 -768
2021-01-26 05:07:30 GMT 50.099518 2.674206 35,850 49 456 -832
2021-01-26 05:07:28 GMT 50.097050 2.669678 35,875 49 459 -896
2021-01-26 05:07:25 GMT 50.092300 2.661077 35,900 49 459 -960
2021-01-26 05:07:22 GMT 50.088531 2.654089 35,950 49 462 -1152
2021-01-26 05:07:20 GMT 50.085114 2.647994 36,000 49 463 -1408
2021-01-26 05:07:17 GMT 50.080479 2.639465 36,075 49 465 -1856
2021-01-26 05:07:14 GMT 50.077881 2.634767 36,150 49 467 -2240
2021-01-26 05:07:12 GMT 50.073669 2.627106 36,225 49 467 -2944
2021-01-26 05:07:09 GMT 50.070236 2.620907 36,425 49 467 -3456
2021-01-26 05:07:06 GMT 50.065071 2.611480 36,950 49 464 -3904
2021-01-26 05:07:02 GMT 50.060623 2.603471 36,800 49 464 -3968
2021-01-26 05:07:00 GMT 50.056870 2.596676 37,075 49 463 -3840
2021-01-26 05:06:57 GMT 50.051758 2.587429 37,150 49 463 -3712
2021-01-26 05:06:54 GMT 50.049728 2.583811 37,200 49 463 -3584
2021-01-26 05:06:52 GMT 50.045975 2.577017 37,450 49 460 -3200
2021-01-26 05:06:50 GMT 50.043003 2.571617 37,500 49 460 -3008
2021-01-26 05:06:47 GMT 50.038860 2.564046 37,700 49 460 -2112
2021-01-26 05:06:44 GMT 50.034760 2.556706 37,750 49 460 -2048
2021-01-26 05:06:42 GMT 50.031281 2.550418 37,975 49 462 0
2021-01-26 05:06:39 GMT 50.027847 2.544130 37,900 49 461 -832
2021-01-26 05:06:36 GMT 50.023731 2.536728 37,950 49 462 -512
2021-01-26 05:06:33 GMT 50.018784 2.527867 37,950 49 462 -448
2021-01-26 05:06:30 GMT 50.015213 2.521437 38,000 49 462 -192
2021-01-26 05:06:27 GMT 50.011208 2.514162 38,000 49 462 -64
2021-01-26 05:06:24 GMT 50.006927 2.506545 38,000 49 462 0
2021-01-26 05:06:22 GMT 50.004227 2.501617 38,000 49 462 0
2021-01-26 05:06:20 GMT 50.002132 2.497905 38,000 49 462 0
2021-01-26 05:06:18 GMT 49.998779 2.491892 38,000 49 462 0
2021-01-26 05:06:15 GMT 49.994495 2.484098 38,000 49 462 0
2021-01-26 05:06:12 GMT 49.990219 2.476477 38,000 49 462 64
2021-01-26 05:06:09 GMT 49.985504 2.467949 38,000 49 461 0
2021-01-26 05:06:06 GMT 49.981888 2.461443 38,000 49 462 -64
2021-01-26 05:06:03 GMT 49.974014 2.447279 38,000 49 462 -64
2021-01-26 05:06:00 GMT 49.974014 2.447279 38,000 49 461 0
2021-01-26 05:05:57 GMT 49.968288 2.437035 38,000 49 461 0
2021-01-26 05:05:54 GMT 49.965633 2.432284 38,000 49 461 0
2021-01-26 05:05:52 GMT 49.962280 2.426271 38,000 49 461 64
2021-01-26 05:05:49 GMT 49.958038 2.418655 38,000 49 461 0
2021-01-26 05:05:46 GMT 49.953064 2.409792 38,000 49 461 0
2021-01-26 05:05:43 GMT 49.948875 2.402368 38,000 49 461 -64
2021-01-26 05:05:40 GMT 49.946083 2.397321 38,000 49 461 0
2021-01-26 05:05:37 GMT 49.941612 2.389378 38,000 49 461 0
2021-01-26 05:05:34 GMT 49.934875 2.377239 38,000 49 462 -64
2021-01-26 05:05:32 GMT 49.934875 2.377239 38,000 49 462 -64
2021-01-26 05:05:30 GMT 49.932220 2.372469 38,000 49 462 -64
2021-01-26 05:05:28 GMT 49.929291 2.367192 38,000 49 462 64
2021-01-26 05:05:25 GMT 49.924900 2.359388 38,000 49 462 64
2021-01-26 05:05:22 GMT 49.920776 2.351942 38,000 49 462 64
2021-01-26 05:05:20 GMT 49.918259 2.347460 38,000 49 462 0
2021-01-26 05:05:18 GMT 49.915405 2.342315 38,000 49 462 64
2021-01-26 05:05:15 GMT 49.911076 2.334595 38,000 49 462 0
2021-01-26 05:05:12 GMT 49.905491 2.324573 38,000 49 463 0
2021-01-26 05:05:09 GMT 49.897568 2.310381 38,000 49 463 0
2021-01-26 05:05:06 GMT 49.897568 2.310381 38,000 49 463 0
2021-01-26 05:05:03 GMT 49.893337 2.302749 38,000 49 464 64
2021-01-26 05:05:00 GMT 49.888264 2.293693 38,000 49 464 64
2021-01-26 05:04:57 GMT 49.881653 2.281890 38,000 49 465 0
2021-01-26 05:04:54 GMT 49.878582 2.276323 38,000 49 465 -64
2021-01-26 05:04:52 GMT 49.875648 2.271052 38,000 49 465 -64
2021-01-26 05:04:50 GMT 49.875648 2.271052 38,000 49 465 -64
2021-01-26 05:04:47 GMT 49.869919 2.260871 38,000 49 466 0
2021-01-26 05:04:44 GMT 49.866898 2.255463 38,000 49 466 64
2021-01-26 05:04:42 GMT 49.865295 2.252559 38,000 49 466 64
2021-01-26 05:04:40 GMT 49.861683 2.246110 38,000 49 466 0
2021-01-26 05:04:37 GMT 49.857559 2.238681 38,000 49 466 -64
2021-01-26 05:04:34 GMT 49.849720 2.224657 38,000 49 466 -64
2021-01-26 05:04:31 GMT 49.849720 2.224657 38,000 49 466 -64
2021-01-26 05:04:29 GMT 49.846252 2.218515 38,000 49 467 64
2021-01-26 05:04:26 GMT 49.840828 2.208846 38,000 49 467 0
2021-01-26 05:04:23 GMT 49.837151 2.202239 38,000 49 467 0
2021-01-26 05:04:20 GMT 49.833660 2.196004 38,000 49 467 0
2021-01-26 05:04:18 GMT 49.830872 2.191050 38,000 49 467 0
2021-01-26 05:04:15 GMT 49.826023 2.182345 38,000 49 467 0
2021-01-26 05:04:12 GMT 49.822449 2.175943 38,000 49 467 64
2021-01-26 05:04:10 GMT 49.816154 2.164678 38,000 48 467 0
2021-01-26 05:04:08 GMT 49.816154 2.164678 38,000 49 467 0
2021-01-26 05:04:05 GMT 49.811733 2.156883 38,000 48 467 0
2021-01-26 05:04:02 GMT 49.807846 2.149996 38,000 48 467 0
2021-01-26 05:04:00 GMT 49.805542 2.145823 38,000 48 467 0
2021-01-26 05:03:58 GMT 49.802422 2.140255 38,000 48 467 0
2021-01-26 05:03:55 GMT 49.798138 2.132684 38,000 49 468 0
2021-01-26 05:03:52 GMT 49.793839 2.124987 38,000 49 468 0
2021-01-26 05:03:50 GMT 49.791000 2.120000 38,000 48 467 0
2021-01-26 05:03:48 GMT 49.788025 2.114724 38,000 48 467 0
2021-01-26 05:03:45 GMT 49.782593 2.104995 38,000 48 467 0
2021-01-26 05:03:42 GMT 49.779236 2.099111 38,000 48 467 0
2021-01-26 05:03:40 GMT 49.776913 2.094900 38,000 48 467 0
2021-01-26 05:03:38 GMT 49.774017 2.089788 38,000 48 467 0
2021-01-26 05:03:35 GMT 49.769695 2.082132 38,000 48 467 0
2021-01-26 05:03:32 GMT 49.765503 2.074681 38,000 48 467 0
2021-01-26 05:03:29 GMT 49.760284 2.065357 38,000 48 467 0
2021-01-26 05:03:26 GMT 49.756802 2.059194 38,000 48 467 0
2021-01-26 05:03:24 GMT 49.754101 2.054443 38,000 48 467 0
2021-01-26 05:03:21 GMT 49.749939 2.047071 38,000 48 467 -64
2021-01-26 05:03:18 GMT 49.745350 2.038855 38,000 48 467 0
2021-01-26 05:03:15 GMT 49.741150 2.031531 38,000 48 467 0
2021-01-26 05:03:12 GMT 49.737247 2.024602 38,000 48 466 64
2021-01-26 05:03:10 GMT 49.734375 2.019461 38,000 48 466 0
2021-01-26 05:03:08 GMT 49.725723 2.004138 38,000 48 466 0
2021-01-26 05:03:04 GMT 49.725723 2.004138 38,000 48 466 0
2021-01-26 05:03:02 GMT 49.720303 1.994538 38,000 48 466 0
2021-01-26 05:03:00 GMT 49.720303 1.994538 38,000 48 466 0
2021-01-26 05:02:57 GMT 49.716347 1.987560 38,000 48 466 64
2021-01-26 05:02:54 GMT 49.710617 1.977395 38,000 48 466 0
2021-01-26 05:02:50 GMT 49.705406 1.968260 38,000 48 466 0
2021-01-26 05:02:47 GMT 49.701775 1.961802 38,000 48 465 0
2021-01-26 05:02:44 GMT 49.697159 1.953615 38,000 48 465 0
2021-01-26 05:02:42 GMT 49.694183 1.948411 38,000 48 465 0
2021-01-26 05:02:39 GMT 49.690044 1.941017 38,000 48 465 0
2021-01-26 05:02:37 GMT 49.687683 1.936919 38,000 48 465 0
2021-01-26 05:02:34 GMT 49.683014 1.928679 38,000 48 464 0
2021-01-26 05:02:31 GMT 49.679569 1.922607 38,000 48 464 0
2021-01-26 05:02:28 GMT 49.673996 1.912778 38,000 48 464 0
2021-01-26 05:02:25 GMT 49.671192 1.907909 38,000 48 464 64
2021-01-26 05:02:23 GMT 49.668182 1.902586 38,000 48 464 0
2021-01-26 05:02:20 GMT 49.663513 1.894419 38,000 48 464 0
2021-01-26 05:02:17 GMT 49.659988 1.888203 38,000 48 462 0
2021-01-26 05:02:14 GMT 49.654106 1.877846 38,000 48 462 -64
2021-01-26 05:02:11 GMT 49.651314 1.872946 38,000 48 464 0
2021-01-26 05:02:08 GMT 49.645752 1.863122 38,000 48 462 0
2021-01-26 05:02:05 GMT 49.642982 1.858323 38,000 48 462 -64
2021-01-26 05:02:02 GMT 49.633110 1.840952 38,000 48 462 0
2021-01-26 05:01:59 GMT 49.633110 1.840952 38,000 48 462 0
2021-01-26 05:01:56 GMT 49.630234 1.835873 38,000 48 462 -64
2021-01-26 05:01:54 GMT 49.626362 1.829075 38,000 48 462 -64
2021-01-26 05:01:51 GMT 49.622173 1.821652 38,000 48 462 0
2021-01-26 05:01:48 GMT 49.618214 1.814748 38,000 48 463 0
2021-01-26 05:01:45 GMT 49.614624 1.808407 38,000 48 463 0
2021-01-26 05:01:42 GMT 49.609604 1.799679 38,000 48 462 0
2021-01-26 05:01:39 GMT 49.606625 1.794483 38,000 48 462 0
2021-01-26 05:01:37 GMT 49.602631 1.787374 38,000 48 462 0
2021-01-26 05:01:34 GMT 49.598694 1.780508 38,000 48 462 0
2021-01-26 05:01:31 GMT 49.595032 1.774075 38,000 48 462 0
2021-01-26 05:01:29 GMT 49.592705 1.769987 38,000 48 463 0
2021-01-26 05:01:27 GMT 49.589218 1.763956 38,000 48 462 0
2021-01-26 05:01:24 GMT 49.584232 1.755140 38,000 48 462 0
2021-01-26 05:01:21 GMT 49.581207 1.749862 38,000 48 461 0
2021-01-26 05:01:19 GMT 49.574921 1.738883 38,000 48 461 0
2021-01-26 05:01:17 GMT 49.574921 1.738883 38,000 48 461 0
2021-01-26 05:01:14 GMT 49.570770 1.731648 38,000 48 461 0
2021-01-26 05:01:11 GMT 49.565750 1.722849 38,000 48 461 0
2021-01-26 05:01:08 GMT 49.562027 1.716325 38,000 48 461 0
2021-01-26 05:01:05 GMT 49.558640 1.710470 38,000 48 461 0
2021-01-26 05:01:03 GMT 49.555325 1.704662 38,000 48 461 0
2021-01-26 05:01:01 GMT 49.551273 1.697536 38,000 48 461 0
2021-01-26 05:00:58 GMT 49.544662 1.685956 38,000 48 461 0
2021-01-26 05:00:55 GMT 49.544662 1.685956 38,000 48 461 64
2021-01-26 05:00:53 GMT 49.538052 1.674450 38,000 48 461 0
2021-01-26 05:00:51 GMT 49.538052 1.674450 38,000 48 461 0
2021-01-26 05:00:48 GMT 49.533817 1.667027 38,000 48 460 -64
2021-01-26 05:00:45 GMT 49.525948 1.653294 38,000 48 461 0
2021-01-26 05:00:42 GMT 49.525948 1.653294 38,000 48 461 0
2021-01-26 05:00:39 GMT 49.522316 1.646910 38,000 48 461 0
2021-01-26 05:00:37 GMT 49.517715 1.638987 38,000 48 461 0
2021-01-26 05:00:34 GMT 49.509155 1.624025 38,000 48 461 0
2021-01-26 05:00:31 GMT 49.509155 1.624025 38,000 48 460 -64
2021-01-26 05:00:28 GMT 49.504581 1.616104 38,000 48 460 -64
2021-01-26 05:00:25 GMT 49.501556 1.610798 38,000 48 460 -64
2021-01-26 05:00:22 GMT 49.496014 1.601109 38,000 48 460 0
2021-01-26 05:00:19 GMT 49.493176 1.596210 38,000 48 460 0
2021-01-26 05:00:16 GMT 49.489014 1.589042 38,000 48 460 0
2021-01-26 05:00:14 GMT 49.484749 1.581586 38,000 48 460 0
2021-01-26 05:00:11 GMT 49.481415 1.575815 38,000 48 460 0
2021-01-26 05:00:08 GMT 49.477020 1.568150 38,000 48 459 -64
2021-01-26 05:00:05 GMT 49.473450 1.561938 38,000 48 460 -64
2021-01-26 05:00:02 GMT 49.469330 1.554782 38,000 48 460 0
2021-01-26 04:59:59 GMT 49.465714 1.548422 38,000 48 460 0
2021-01-26 04:59:57 GMT 49.462326 1.542567 38,000 48 460 64
2021-01-26 04:59:54 GMT 49.458115 1.535267 38,000 48 461 0
2021-01-26 04:59:51 GMT 49.453236 1.526803 38,000 48 461 0
2021-01-26 04:59:48 GMT 49.449604 1.520419 38,000 48 461 0
2021-01-26 04:59:45 GMT 49.445160 1.512716 38,000 48 461 64
2021-01-26 04:59:42 GMT 49.440899 1.505201 38,000 48 461 64
2021-01-26 04:59:39 GMT 49.437561 1.499489 38,000 48 461 0
2021-01-26 04:59:37 GMT 49.433960 1.493176 38,000 48 461 0
2021-01-26 04:59:34 GMT 49.429726 1.485827 38,000 48 461 -64
2021-01-26 04:59:31 GMT 49.426025 1.479351 38,025 48 461 -64
2021-01-26 04:59:29 GMT 49.422775 1.473717 38,000 48 461 -64
2021-01-26 04:59:26 GMT 49.414967 1.460170 38,000 48 461 -64
2021-01-26 04:59:23 GMT 49.412064 1.455125 38,000 48 461 -64
2021-01-26 04:59:21 GMT 49.412064 1.455125 38,000 48 461 0
2021-01-26 04:59:18 GMT 49.407753 1.447666 38,000 48 461 0
2021-01-26 04:59:15 GMT 49.403595 1.440406 38,000 48 461 0
2021-01-26 04:59:12 GMT 49.398422 1.431392 38,000 48 461 0
2021-01-26 04:59:09 GMT 49.394951 1.425404 38,000 48 461 0
2021-01-26 04:59:07 GMT 49.392250 1.420778 38,000 48 461 0
2021-01-26 04:59:05 GMT 49.389599 1.416080 38,000 48 461 0
2021-01-26 04:59:03 GMT 49.386616 1.410948 38,000 48 461 0
2021-01-26 04:59:01 GMT 49.383545 1.405599 38,000 48 461 0
2021-01-26 04:58:58 GMT 49.378750 1.397287 38,000 48 461 0
2021-01-26 04:58:55 GMT 49.372604 1.386672 38,000 48 461 0
2021-01-26 04:58:53 GMT 49.372604 1.386672 38,000 48 461 0
2021-01-26 04:58:51 GMT 49.369766 1.381742 38,000 48 461 0
2021-01-26 04:58:49 GMT 49.365417 1.374207 38,000 48 461 0
2021-01-26 04:58:46 GMT 49.361946 1.368232 38,000 48 461 0
2021-01-26 04:58:44 GMT 49.359329 1.363713 38,000 48 461 0
2021-01-26 04:58:41 GMT 49.355942 1.357868 38,000 48 461 64
2021-01-26 04:58:39 GMT 49.352356 1.351607 38,000 48 461 64
2021-01-26 04:58:36 GMT 49.348259 1.344524 38,000 48 461 0
2021-01-26 04:58:33 GMT 49.341522 1.332937 38,000 48 461 -64
2021-01-26 04:58:31 GMT 49.341522 1.332937 38,000 48 461 -64
2021-01-26 04:58:28 GMT 49.336945 1.325009 38,000 48 461 0
2021-01-26 04:58:26 GMT 49.333878 1.319768 38,000 48 461 0
2021-01-26 04:58:24 GMT 49.331825 1.316191 38,000 48 461 0
2021-01-26 04:58:21 GMT 49.322048 1.299350 38,000 48 461 0
2021-01-26 04:58:18 GMT 49.322048 1.299350 38,000 48 461 0
2021-01-26 04:58:16 GMT 49.320007 1.295823 38,000 48 461 0
2021-01-26 04:58:13 GMT 49.315674 1.288436 38,000 48 461 0
2021-01-26 04:58:11 GMT 49.312912 1.283640 38,000 48 461 0
2021-01-26 04:58:09 GMT 49.305817 1.271456 38,000 48 461 0
2021-01-26 04:58:06 GMT 49.305817 1.271456 38,000 48 461 0
2021-01-26 04:58:03 GMT 49.301743 1.264414 38,000 48 461 0
2021-01-26 04:58:00 GMT 49.296616 1.255611 38,000 48 461 0
2021-01-26 04:57:57 GMT 49.293777 1.250751 38,000 48 461 0
2021-01-26 04:57:54 GMT 49.288204 1.241094 38,000 48 461 0
2021-01-26 04:57:51 GMT 49.284527 1.234805 38,000 48 461 64
2021-01-26 04:57:48 GMT 49.279686 1.226493 38,000 48 461 0
2021-01-26 04:57:46 GMT 49.278351 1.224201 38,000 48 461 0
2021-01-26 04:57:44 GMT 49.275032 1.218471 38,000 48 461 64
2021-01-26 04:57:41 GMT 49.270470 1.210664 38,000 48 461 0
2021-01-26 04:57:38 GMT 49.262604 1.197158 38,000 48 461 0
2021-01-26 04:57:35 GMT 49.262604 1.197158 38,000 48 461 0
2021-01-26 04:57:33 GMT 49.258896 1.190890 38,000 48 461 -64
2021-01-26 04:57:31 GMT 49.256130 1.186162 38,000 48 461 -64
2021-01-26 04:57:28 GMT 49.251057 1.177416 38,000 48 461 0
2021-01-26 04:57:25 GMT 49.247520 1.171345 38,000 48 460 0
2021-01-26 04:57:23 GMT 49.245300 1.167579 38,000 48 459 0
2021-01-26 04:57:21 GMT 49.241840 1.161660 38,000 48 459 0
2021-01-26 04:57:19 GMT 49.239075 1.156945 38,000 48 458 0
2021-01-26 04:57:16 GMT 49.233444 1.147297 38,000 48 459 0
2021-01-26 04:57:13 GMT 49.230530 1.142361 38,000 48 458 0
2021-01-26 04:57:11 GMT 49.226212 1.134972 38,000 48 458 0
2021-01-26 04:57:08 GMT 49.223557 1.130395 38,000 48 458 0
2021-01-26 04:57:05 GMT 49.219025 1.122718 38,000 48 458 0
2021-01-26 04:57:03 GMT 49.216843 1.118943 38,000 48 458 0
2021-01-26 04:57:01 GMT 49.210693 1.108492 38,000 48 458 0
2021-01-26 04:56:59 GMT 49.210693 1.108492 38,000 48 458 0
2021-01-26 04:56:56 GMT 49.206554 1.101379 38,000 48 458 0
2021-01-26 04:56:53 GMT 49.201401 1.092576 38,000 48 458 0
2021-01-26 04:56:50 GMT 49.198502 1.087646 38,000 48 458 0
2021-01-26 04:56:47 GMT 49.194489 1.080745 38,000 48 458 0
2021-01-26 04:56:45 GMT 49.191051 1.074853 38,000 48 458 0
2021-01-26 04:56:43 GMT 49.188213 1.070011 38,000 48 458 0
2021-01-26 04:56:40 GMT 49.183838 1.062566 38,000 48 458 0
2021-01-26 04:56:37 GMT 49.180389 1.056659 38,000 48 458 0
2021-01-26 04:56:35 GMT 49.177002 1.050885 38,000 48 458 0
2021-01-26 04:56:33 GMT 49.173752 1.045391 38,000 48 458 64
2021-01-26 04:56:30 GMT 49.170151 1.039292 38,000 48 458 0
2021-01-26 04:56:27 GMT 49.166702 1.033349 38,000 48 458 0
2021-01-26 04:56:25 GMT 49.162792 1.026788 38,000 48 458 0
2021-01-26 04:56:23 GMT 49.159256 1.020789 38,000 48 458 0
2021-01-26 04:56:20 GMT 49.156185 1.015513 38,000 48 458 0
2021-01-26 04:56:17 GMT 49.152367 1.009008 38,000 48 458 64
2021-01-26 04:56:15 GMT 49.149529 1.004237 38,000 48 458 -64
2021-01-26 04:56:13 GMT 49.145988 0.998238 38,000 48 458 -64
2021-01-26 04:56:10 GMT 49.142174 0.991733 38,000 48 458 -64
2021-01-26 04:56:08 GMT 49.139145 0.986586 38,000 48 458 -64
2021-01-26 04:56:05 GMT 49.134888 0.979403 38,000 48 458 0
2021-01-26 04:56:03 GMT 49.130718 0.972290 38,000 48 458 64
2021-01-26 04:56:00 GMT 49.127975 0.967642 38,000 48 458 64
2021-01-26 04:55:57 GMT 49.123692 0.960364 38,000 48 458 0
2021-01-26 04:55:55 GMT 49.120850 0.955521 38,000 48 458 0
2021-01-26 04:55:53 GMT 49.117401 0.949684 38,000 48 458 0
2021-01-26 04:55:50 GMT 49.113075 0.942294 38,000 48 459 0
2021-01-26 04:55:47 GMT 49.109539 0.936295 38,000 48 458 -64
2021-01-26 04:55:45 GMT 49.106781 0.931584 38,000 48 458 -64
2021-01-26 04:55:43 GMT 49.103806 0.926584 38,000 48 459 64
2021-01-26 04:55:40 GMT 49.099136 0.918626 38,000 48 459 64
2021-01-26 04:55:37 GMT 49.095428 0.912358 38,000 48 459 0
2021-01-26 04:55:35 GMT 49.092728 0.907781 38,000 48 459 0
2021-01-26 04:55:33 GMT 49.088264 0.900228 38,000 48 459 0
2021-01-26 04:55:30 GMT 49.084671 0.894118 38,000 48 459 0
2021-01-26 04:55:27 GMT 49.081188 0.888230 38,000 48 460 0
2021-01-26 04:55:25 GMT 49.078674 0.883977 38,000 48 460 0
2021-01-26 04:55:23 GMT 49.074738 0.877216 38,000 48 460 0
2021-01-26 04:55:20 GMT 49.071087 0.871100 38,000 48 460 0
2021-01-26 04:55:18 GMT 49.068878 0.867357 38,000 48 460 0
2021-01-26 04:55:16 GMT 49.064568 0.860042 38,000 48 460 0
2021-01-26 04:55:13 GMT 49.060364 0.852919 38,000 48 460 0
2021-01-26 04:55:10 GMT 49.055725 0.845080 38,000 47 461 0
2021-01-26 04:55:07 GMT 49.052605 0.839804 38,000 47 461 0
2021-01-26 04:55:05 GMT 49.046181 0.828962 38,000 47 461 0
2021-01-26 04:55:03 GMT 49.046181 0.828962 38,000 47 461 0
2021-01-26 04:55:00 GMT 49.041897 0.821734 38,000 47 461 0
2021-01-26 04:54:57 GMT 49.038033 0.815229 38,000 47 461 0
2021-01-26 04:54:55 GMT 49.035828 0.811509 38,000 47 461 0
2021-01-26 04:54:53 GMT 49.032257 0.805523 38,000 47 461 0
2021-01-26 04:54:51 GMT 49.029655 0.801062 38,000 47 461 0
2021-01-26 04:54:48 GMT 49.025436 0.793903 38,000 47 461 0
2021-01-26 04:54:45 GMT 49.020065 0.784872 38,000 47 462 0
2021-01-26 04:54:42 GMT 49.015869 0.777776 38,000 47 463 0
2021-01-26 04:54:39 GMT 49.012478 0.772079 38,000 47 463 64
2021-01-26 04:54:36 GMT 49.007721 0.763972 38,000 47 463 64
2021-01-26 04:54:33 GMT 49.003773 0.757406 38,000 47 463 0
2021-01-26 04:54:30 GMT 48.999527 0.750239 38,000 47 463 0
2021-01-26 04:54:27 GMT 48.996185 0.744613 38,000 47 463 0
2021-01-26 04:54:25 GMT 48.992935 0.739183 38,000 47 463 0
2021-01-26 04:54:23 GMT 48.989227 0.732915 38,000 47 463 0
2021-01-26 04:54:21 GMT 48.986343 0.728056 38,000 47 463 0
2021-01-26 04:54:17 GMT 48.980347 0.717914 38,000 47 463 0
2021-01-26 04:54:14 GMT 48.977463 0.713125 38,000 47 463 0
2021-01-26 04:54:12 GMT 48.974487 0.708055 38,000 47 463 0
2021-01-26 04:54:10 GMT 48.971283 0.702702 38,000 47 463 0
2021-01-26 04:54:07 GMT 48.962479 0.687874 38,000 47 464 0
2021-01-26 04:54:05 GMT 48.962479 0.687874 38,000 47 464 0
2021-01-26 04:54:02 GMT 48.958569 0.681297 38,000 47 467 0
2021-01-26 04:53:59 GMT 48.954845 0.675081 38,000 47 464 0
2021-01-26 04:53:56 GMT 48.947754 0.663053 38,000 47 465 0
2021-01-26 04:53:54 GMT 48.947754 0.663053 38,000 47 465 0
2021-01-26 04:53:51 GMT 48.943485 0.655927 38,000 47 465 0
2021-01-26 04:53:47 GMT 48.937637 0.646151 38,000 47 465 0
2021-01-26 04:53:45 GMT 48.934937 0.641503 38,000 47 465 0
2021-01-26 04:53:43 GMT 48.931870 0.636432 38,000 47 466 0
2021-01-26 04:53:41 GMT 48.928986 0.631573 38,000 47 466 0
2021-01-26 04:53:39 GMT 48.921799 0.619460 38,000 47 466 0
2021-01-26 04:53:36 GMT 48.921799 0.619460 38,000 47 466 0
2021-01-26 04:53:33 GMT 48.913925 0.606200 38,000 47 467 0
2021-01-26 04:53:30 GMT 48.913925 0.606200 38,000 47 467 0
2021-01-26 04:53:28 GMT 48.910435 0.600417 38,000 47 467 0
2021-01-26 04:53:26 GMT 48.907471 0.595445 38,000 47 467 -64
2021-01-26 04:53:23 GMT 48.902939 0.587909 38,000 47 467 -64
2021-01-26 04:53:20 GMT 48.898983 0.581263 38,000 47 467 0
2021-01-26 04:53:17 GMT 48.894608 0.573963 38,000 47 468 0
2021-01-26 04:53:14 GMT 48.890556 0.567169 38,000 47 468 0
2021-01-26 04:53:11 GMT 48.885296 0.558423 38,000 47 468 0
2021-01-26 04:53:09 GMT 48.881664 0.552352 38,000 47 469 0
2021-01-26 04:53:05 GMT 48.877213 0.544880 38,000 47 469 0
2021-01-26 04:53:03 GMT 48.873001 0.537837 38,000 47 468 -64
2021-01-26 04:53:00 GMT 48.869560 0.532114 38,000 47 469 0
2021-01-26 04:52:57 GMT 48.865791 0.525826 38,000 47 470 0
2021-01-26 04:52:55 GMT 48.862717 0.520694 38,000 47 470 0
2021-01-26 04:52:53 GMT 48.859772 0.515724 38,000 47 470 0
2021-01-26 04:52:50 GMT 48.856247 0.509878 38,000 47 470 -64
2021-01-26 04:52:47 GMT 48.850800 0.500673 38,000 47 470 -64
2021-01-26 04:52:44 GMT 48.846497 0.493469 38,000 47 470 64
2021-01-26 04:52:41 GMT 48.842190 0.486290 38,025 47 470 0
2021-01-26 04:52:38 GMT 48.837891 0.479103 38,000 47 470 0
2021-01-26 04:52:35 GMT 48.833298 0.471400 38,000 47 470 0
2021-01-26 04:52:33 GMT 48.830364 0.466558 38,000 47 470 0
2021-01-26 04:52:30 GMT 48.826950 0.460792 38,000 47 470 0
2021-01-26 04:52:28 GMT 48.823334 0.454848 38,000 47 470 0
2021-01-26 04:52:26 GMT 48.820450 0.449934 38,000 47 470 -64
2021-01-26 04:52:24 GMT 48.817291 0.444735 38,000 47 470 -64
2021-01-26 04:52:22 GMT 48.814445 0.439959 38,000 47 470 64
2021-01-26 04:52:20 GMT 48.806995 0.427599 38,000 47 470 64
2021-01-26 04:52:17 GMT 48.806995 0.427599 38,000 47 470 64
2021-01-26 04:52:15 GMT 48.803925 0.422468 38,000 47 470 64
2021-01-26 04:52:12 GMT 48.799408 0.414951 38,000 47 470 0
2021-01-26 04:52:09 GMT 48.794987 0.407651 38,000 47 470 0
2021-01-26 04:52:06 GMT 48.791958 0.402519 38,000 47 470 0
2021-01-26 04:52:03 GMT 48.786438 0.393395 38,000 47 470 0
2021-01-26 04:52:00 GMT 48.776737 0.377221 38,000 47 470 0
2021-01-26 04:51:57 GMT 48.776737 0.377221 38,000 47 470 64
2021-01-26 04:51:54 GMT 48.774353 0.373253 38,000 47 470 0
2021-01-26 04:51:52 GMT 48.771103 0.367901 38,000 47 467 0
2021-01-26 04:51:50 GMT 48.767380 0.361681 38,000 47 469 0
2021-01-26 04:51:47 GMT 48.763092 0.354520 38,000 47 469 0
2021-01-26 04:51:45 GMT 48.759651 0.348816 38,000 47 469 0
2021-01-26 04:51:42 GMT 48.756638 0.343886 38,000 47 469 0
2021-01-26 04:51:40 GMT 48.752975 0.337830 38,000 47 469 0
2021-01-26 04:51:37 GMT 48.747967 0.329445 38,000 47 469 0
2021-01-26 04:51:34 GMT 48.744896 0.324314 38,000 47 468 64
2021-01-26 04:51:32 GMT 48.742008 0.319543 38,000 47 468 64
2021-01-26 04:51:30 GMT 48.739075 0.314700 38,000 47 468 0
2021-01-26 04:51:28 GMT 48.734699 0.307400 38,000 47 467 0
2021-01-26 04:51:25 GMT 48.731140 0.301490 38,000 47 467 0
2021-01-26 04:51:22 GMT 48.727478 0.295434 38,000 47 466 0
2021-01-26 04:51:20 GMT 48.723267 0.288462 38,000 47 467 0
2021-01-26 04:51:17 GMT 48.719570 0.282320 38,000 47 467 -64
2021-01-26 04:51:14 GMT 48.714981 0.274729 38,000 47 466 -64
2021-01-26 04:51:11 GMT 48.711227 0.268461 38,000 47 466 0
2021-01-26 04:51:08 GMT 48.704906 0.257962 38,000 47 465 0
2021-01-26 04:51:05 GMT 48.701202 0.251840 38,000 47 466 0
2021-01-26 04:51:02 GMT 48.698181 0.246770 38,000 47 465 0
2021-01-26 04:51:00 GMT 48.695362 0.242133 38,000 47 465 0
2021-01-26 04:50:58 GMT 48.690708 0.234399 38,000 47 465 0
2021-01-26 04:50:55 GMT 48.687355 0.228906 38,000 47 465 0
2021-01-26 04:50:53 GMT 48.684677 0.224515 38,000 47 465 0
2021-01-26 04:50:50 GMT 48.680096 0.216980 38,000 47 465 0
2021-01-26 04:50:47 GMT 48.675705 0.209656 38,000 47 465 0
2021-01-26 04:50:45 GMT 48.672691 0.204765 38,000 47 465 0
2021-01-26 04:50:43 GMT 48.669945 0.200211 38,000 47 465 0
2021-01-26 04:50:41 GMT 48.666035 0.193779 38,000 47 465 64
2021-01-26 04:50:38 GMT 48.662338 0.187683 38,000 47 464 0
2021-01-26 04:50:35 GMT 48.658310 0.180993 38,000 47 465 0
2021-01-26 04:50:33 GMT 48.656773 0.178456 38,000 47 464 0
2021-01-26 04:50:30 GMT 48.651764 0.170288 38,000 47 464 0
2021-01-26 04:50:28 GMT 48.648605 0.165006 38,000 47 464 0
2021-01-26 04:50:25 GMT 48.643524 0.156696 38,000 47 464 0
2021-01-26 04:50:22 GMT 48.637962 0.147520 38,000 47 463 0
2021-01-26 04:50:19 GMT 48.635284 0.143104 38,000 47 463 0
2021-01-26 04:50:16 GMT 48.632080 0.137893 38,000 47 463 0
2021-01-26 04:50:14 GMT 48.627731 0.130780 38,000 47 462 -64
2021-01-26 04:50:10 GMT 48.622185 0.121645 38,000 47 462 -64
2021-01-26 04:50:07 GMT 48.617340 0.113737 38,000 47 462 0
2021-01-26 04:50:04 GMT 48.613724 0.107821 38,000 47 462 0
2021-01-26 04:50:02 GMT 48.610840 0.103032 38,000 47 462 0
2021-01-26 04:50:00 GMT 48.602539 0.089408 38,000 47 462 0
2021-01-26 04:49:57 GMT 48.602539 0.089408 38,000 47 462 0
2021-01-26 04:49:54 GMT 48.595551 0.077961 38,000 47 462 0
2021-01-26 04:49:51 GMT 48.595551 0.077961 38,000 47 462 0
2021-01-26 04:49:49 GMT 48.591270 0.070977 38,000 47 462 0
2021-01-26 04:49:46 GMT 48.587360 0.064545 38,000 47 462 0
2021-01-26 04:49:43 GMT 48.583450 0.058184 38,000 47 462 0
2021-01-26 04:49:39 GMT 48.576981 0.047487 38,000 47 462 0
2021-01-26 04:49:36 GMT 48.574265 0.043171 38,000 47 462 0
2021-01-26 04:49:34 GMT 48.570602 0.037079 38,000 47 462 -64
2021-01-26 04:49:32 GMT 48.567627 0.032255 38,000 47 462 0
2021-01-26 04:49:29 GMT 48.563339 0.025225 38,000 47 463 0
2021-01-26 04:49:26 GMT 48.558929 0.018029 38,000 47 463 0
2021-01-26 04:49:23 GMT 48.553848 0.009719 38,000 47 463 0
2021-01-26 04:49:19 GMT 48.548813 0.001409 38,000 47 463 0
2021-01-26 04:49:16 GMT 48.545231 -0.004409 38,000 47 463 0
2021-01-26 04:49:14 GMT 48.541649 -0.010264 38,000 47 463 0
2021-01-26 04:49:12 GMT 48.538155 -0.015974 38,000 47 463 0
2021-01-26 04:49:08 GMT 48.532944 -0.024502 38,000 47 463 0
2021-01-26 04:49:04 GMT 48.526844 -0.034477 38,000 47 463 0
2021-01-26 04:49:02 GMT 48.523590 -0.039790 38,000 47 463 0
2021-01-26 04:48:59 GMT 48.516037 -0.052115 38,000 47 463 0
2021-01-26 04:48:56 GMT 48.516037 -0.052115 38,000 47 463 0
2021-01-26 04:48:54 GMT 48.511623 -0.059341 38,000 47 463 0
2021-01-26 04:48:51 GMT 48.508736 -0.064111 38,000 47 463 0
2021-01-26 04:48:49 GMT 48.504868 -0.070355 38,000 47 463 -64
2021-01-26 04:48:46 GMT 48.501526 -0.075848 38,000 47 463 -64
2021-01-26 04:48:44 GMT 48.498867 -0.080229 38,000 47 463 0
2021-01-26 04:48:42 GMT 48.495895 -0.085074 38,000 47 464 64
2021-01-26 04:48:39 GMT 48.490582 -0.093745 38,000 47 464 0
2021-01-26 04:48:36 GMT 48.486877 -0.099792 38,000 47 464 -64
2021-01-26 04:48:34 GMT 48.484131 -0.104300 38,000 47 463 -64
2021-01-26 04:48:32 GMT 48.479462 -0.111835 38,000 47 463 0
2021-01-26 04:48:29 GMT 48.474976 -0.119230 38,000 47 463 64
2021-01-26 04:48:26 GMT 48.472424 -0.123307 38,000 47 463 64
2021-01-26 04:48:24 GMT 48.464462 -0.136317 38,000 47 462 64
2021-01-26 04:48:21 GMT 48.464462 -0.136317 38,000 47 463 -64
2021-01-26 04:48:18 GMT 48.459064 -0.145135 38,000 47 463 0
2021-01-26 04:48:14 GMT 48.454239 -0.153034 38,000 47 463 64
2021-01-26 04:48:11 GMT 48.449940 -0.160025 38,000 47 462 64
2021-01-26 04:48:08 GMT 48.445358 -0.167401 38,000 47 462 64
2021-01-26 04:48:05 GMT 48.441792 -0.173252 38,000 47 462 -64
2021-01-26 04:48:02 GMT 48.436203 -0.182331 38,000 47 462 -64
2021-01-26 04:47:59 GMT 48.432175 -0.188951 38,000 47 462 0
2021-01-26 04:47:56 GMT 48.428375 -0.195078 38,000 47 462 0
2021-01-26 04:47:53 GMT 48.424026 -0.202120 38,000 47 462 64
2021-01-26 04:47:50 GMT 48.414047 -0.218388 38,000 47 462 0
2021-01-26 04:47:46 GMT 48.414047 -0.218388 38,000 47 462 -64
2021-01-26 04:47:44 GMT 48.410931 -0.223485 38,000 47 462 -64
2021-01-26 04:47:41 GMT 48.406494 -0.230642 38,000 47 462 0
2021-01-26 04:47:38 GMT 48.402008 -0.237896 38,000 47 462 0
2021-01-26 04:47:35 GMT 48.397339 -0.245432 38,000 47 462 0
2021-01-26 04:47:32 GMT 48.392990 -0.252474 38,000 47 462 0
2021-01-26 04:47:30 GMT 48.390244 -0.256981 38,000 47 462 0
2021-01-26 04:47:28 GMT 48.388165 -0.260347 38,000 47 462 0
2021-01-26 04:47:25 GMT 48.383606 -0.267757 38,000 47 462 0
2021-01-26 04:47:22 GMT 48.378574 -0.275887 38,000 47 462 64
2021-01-26 04:47:20 GMT 48.375828 -0.280296 38,000 47 462 0
2021-01-26 04:47:18 GMT 48.372803 -0.285283 38,000 47 462 -64
2021-01-26 04:47:15 GMT 48.369095 -0.291279 38,000 47 462 -64
2021-01-26 04:47:12 GMT 48.364151 -0.299237 38,000 47 462 0
2021-01-26 04:47:08 GMT 48.357578 -0.309930 38,000 47 462 -64
2021-01-26 04:47:05 GMT 48.349823 -0.322477 38,000 47 461 64
2021-01-26 04:47:02 GMT 48.349823 -0.322477 38,000 47 461 128
2021-01-26 04:47:00 GMT 48.346802 -0.327407 38,000 47 461 192
2021-01-26 04:46:57 GMT 48.343048 -0.333463 38,000 47 461 64
2021-01-26 04:46:54 GMT 48.339249 -0.339590 38,000 47 461 -64
2021-01-26 04:46:51 GMT 48.334255 -0.347659 38,000 47 462 0
2021-01-26 04:46:48 GMT 48.329224 -0.355718 38,000 47 462 0
2021-01-26 04:46:45 GMT 48.325470 -0.361845 38,000 47 461 0
2021-01-26 04:46:42 GMT 48.320339 -0.370138 38,000 47 461 64
2021-01-26 04:46:39 GMT 48.316772 -0.375930 38,000 47 461 64
2021-01-26 04:46:37 GMT 48.313915 -0.380474 38,000 47 461 64
2021-01-26 04:46:35 GMT 48.309723 -0.387268 38,000 47 461 0
2021-01-26 04:46:32 GMT 48.305954 -0.393339 38,000 47 461 -64
2021-01-26 04:46:30 GMT 48.303066 -0.398038 38,000 47 461 -64
2021-01-26 04:46:28 GMT 48.300739 -0.401796 38,000 47 461 0
2021-01-26 04:46:25 GMT 48.296448 -0.408677 38,000 47 461 0
2021-01-26 04:46:22 GMT 48.291824 -0.416142 38,000 47 461 64
2021-01-26 04:46:19 GMT 48.287518 -0.423046 38,000 47 461 64
2021-01-26 04:46:16 GMT 48.283264 -0.429946 38,000 47 461 -64
2021-01-26 04:46:13 GMT 48.278999 -0.436851 38,000 47 460 -64
2021-01-26 04:46:10 GMT 48.274429 -0.444172 38,000 47 460 0
2021-01-26 04:46:08 GMT 48.271500 -0.448820 38,000 47 460 64
2021-01-26 04:46:05 GMT 48.266739 -0.456566 38,000 47 460 64
2021-01-26 04:46:02 GMT 48.262527 -0.463257 38,000 47 460 0
2021-01-26 04:45:59 GMT 48.259262 -0.468509 38,000 47 460 0
2021-01-26 04:45:57 GMT 48.255707 -0.474243 38,000 47 461 0
2021-01-26 04:45:55 GMT 48.253628 -0.477616 38,000 47 461 0
2021-01-26 04:45:52 GMT 48.247467 -0.487554 38,000 47 461 0
2021-01-26 04:45:49 GMT 48.244537 -0.492272 38,000 46 461 0
2021-01-26 04:45:46 GMT 48.239571 -0.500312 38,000 46 461 0
2021-01-26 04:45:44 GMT 48.237167 -0.504103 38,000 46 461 0
2021-01-26 04:45:41 GMT 48.233368 -0.510230 38,000 46 461 0
2021-01-26 04:45:38 GMT 48.227280 -0.520020 38,000 46 461 64
2021-01-26 04:45:35 GMT 48.222717 -0.527344 38,000 47 460 0
2021-01-26 04:45:32 GMT 48.219086 -0.533126 38,000 46 461 0
2021-01-26 04:45:29 GMT 48.215874 -0.538258 38,000 47 460 0
2021-01-26 04:45:26 GMT 48.210571 -0.546781 38,000 47 460 0
2021-01-26 04:45:22 GMT 48.204144 -0.557195 38,000 47 460 -64
2021-01-26 04:45:19 GMT 48.200653 -0.562760 38,000 47 460 0
2021-01-26 04:45:16 GMT 48.196060 -0.570092 38,000 47 460 0
2021-01-26 04:45:12 GMT 48.189697 -0.580303 38,000 47 460 64
2021-01-26 04:45:09 GMT 48.185944 -0.586360 38,000 46 459 0
2021-01-26 04:45:06 GMT 48.181549 -0.593332 38,000 46 459 -64
2021-01-26 04:45:04 GMT 48.178028 -0.598972 38,000 46 459 -64
2021-01-26 04:45:01 GMT 48.174957 -0.603887 38,000 46 459 0
2021-01-26 04:44:59 GMT 48.171432 -0.609530 38,000 46 459 0
2021-01-26 04:44:56 GMT 48.167908 -0.615164 38,000 46 459 0
2021-01-26 04:44:54 GMT 48.164528 -0.620583 38,000 46 459 0
2021-01-26 04:44:51 GMT 48.159073 -0.629311 38,000 46 460 0
2021-01-26 04:44:48 GMT 48.156189 -0.633911 38,000 46 460 -64
2021-01-26 04:44:45 GMT 48.151794 -0.640915 38,000 46 460 -64
2021-01-26 04:44:42 GMT 48.146713 -0.649017 38,000 46 459 0
2021-01-26 04:44:39 GMT 48.142227 -0.656158 38,000 46 459 0
2021-01-26 04:44:36 GMT 48.137806 -0.663264 38,000 46 459 0
2021-01-26 04:44:34 GMT 48.134811 -0.667969 38,000 46 459 0
2021-01-26 04:44:31 GMT 48.131195 -0.673805 38,000 46 459 0
2021-01-26 04:44:29 GMT 48.127052 -0.680378 38,000 46 459 0
2021-01-26 04:44:26 GMT 48.123505 -0.686028 38,000 46 459 0
2021-01-26 04:44:24 GMT 48.120537 -0.690801 38,000 46 459 -64
2021-01-26 04:44:21 GMT 48.116089 -0.697838 38,000 46 459 -64
2021-01-26 04:44:18 GMT 48.111740 -0.704773 38,000 46 459 64
2021-01-26 04:44:15 GMT 48.107117 -0.712189 38,000 46 459 64
2021-01-26 04:44:12 GMT 48.102631 -0.719398 38,000 46 459 0
2021-01-26 04:44:09 GMT 48.099289 -0.724686 38,000 46 459 0
2021-01-26 04:44:05 GMT 48.092743 -0.735054 38,000 46 459 64
2021-01-26 04:44:02 GMT 48.088181 -0.742352 38,000 46 459 64
2021-01-26 04:43:58 GMT 48.081299 -0.753250 38,000 46 458 -64
2021-01-26 04:43:55 GMT 48.077614 -0.759183 38,000 46 458 -64
2021-01-26 04:43:52 GMT 48.073845 -0.765170 38,000 46 458 -64
2021-01-26 04:43:49 GMT 48.070957 -0.769747 38,000 46 458 0
2021-01-26 04:43:47 GMT 48.066769 -0.776438 38,000 46 457 64
2021-01-26 04:43:44 GMT 48.061275 -0.785170 38,000 46 457 0
2021-01-26 04:43:41 GMT 48.058342 -0.789748 38,000 46 457 0
2021-01-26 04:43:39 GMT 48.055454 -0.794326 38,000 46 457 0
2021-01-26 04:43:36 GMT 48.050987 -0.801509 38,000 46 457 0
2021-01-26 04:43:33 GMT 48.045773 -0.809749 38,000 46 457 0
2021-01-26 04:43:30 GMT 48.042606 -0.814819 38,000 46 457 0
2021-01-26 04:43:27 GMT 48.035812 -0.825594 38,000 46 457 0
2021-01-26 04:43:24 GMT 48.029800 -0.835098 38,000 46 457 0
2021-01-26 04:43:21 GMT 48.029800 -0.835098 38,000 46 457 0
2021-01-26 04:43:19 GMT 48.027466 -0.838806 38,000 46 457 0
2021-01-26 04:43:17 GMT 48.024498 -0.843482 38,000 46 457 0
2021-01-26 04:43:14 GMT 48.019470 -0.851511 38,000 46 457 0
2021-01-26 04:43:11 GMT 48.015282 -0.858131 38,000 46 457 0
2021-01-26 04:43:08 GMT 48.011444 -0.864212 38,000 46 456 0
2021-01-26 04:43:05 GMT 48.006435 -0.872075 38,000 46 457 0
2021-01-26 04:43:02 GMT 48.000664 -0.881230 38,000 46 456 0
2021-01-26 04:42:59 GMT 47.997780 -0.885808 38,000 46 456 0
2021-01-26 04:42:56 GMT 47.994148 -0.891512 38,000 46 456 0
2021-01-26 04:42:53 GMT 47.989014 -0.899643 38,000 46 457 0
2021-01-26 04:42:50 GMT 47.984848 -0.906303 38,000 46 457 0
2021-01-26 04:42:47 GMT 47.980499 -0.913170 38,000 46 457 0
2021-01-26 04:42:44 GMT 47.976273 -0.919894 38,000 46 457 0
2021-01-26 04:42:41 GMT 47.971756 -0.927007 38,000 46 456 0
2021-01-26 04:42:37 GMT 47.965984 -0.936162 38,025 46 457 0
2021-01-26 04:42:34 GMT 47.957882 -0.948909 38,000 46 456 0
2021-01-26 04:42:31 GMT 47.957882 -0.948909 38,000 46 456 0
2021-01-26 04:42:29 GMT 47.954994 -0.953487 38,000 46 456 0
2021-01-26 04:42:27 GMT 47.952026 -0.958214 38,000 46 456 0
2021-01-26 04:42:24 GMT 47.946758 -0.966515 38,000 46 456 0
2021-01-26 04:42:21 GMT 47.943405 -0.971797 38,000 46 456 0
2021-01-26 04:42:19 GMT 47.940720 -0.975998 38,000 46 456 0
2021-01-26 04:42:17 GMT 47.936890 -0.982009 38,000 46 456 0
2021-01-26 04:42:14 GMT 47.931747 -0.990143 38,000 46 456 0
2021-01-26 04:42:11 GMT 47.927994 -0.996117 38,000 46 456 0
2021-01-26 04:42:08 GMT 47.923645 -1.002914 38,000 46 456 0
2021-01-26 04:42:05 GMT 47.919891 -1.008888 38,000 46 456 0
2021-01-26 04:42:03 GMT 47.916916 -1.013559 38,000 46 456 0
2021-01-26 04:42:00 GMT 47.911331 -1.022346 38,000 46 456 0
2021-01-26 04:41:57 GMT 47.907093 -1.029053 38,000 46 456 0
2021-01-26 04:41:54 GMT 47.903881 -1.034053 38,000 46 456 0
2021-01-26 04:41:51 GMT 47.898251 -1.042997 38,000 46 456 0
2021-01-26 04:41:47 GMT 47.893456 -1.050532 38,000 46 456 0
2021-01-26 04:41:44 GMT 47.888168 -1.058807 38,000 46 456 -64
2021-01-26 04:41:41 GMT 47.884609 -1.064406 38,000 46 456 64
2021-01-26 04:41:38 GMT 47.880341 -1.071098 38,000 46 456 0
2021-01-26 04:41:35 GMT 47.877045 -1.076385 38,000 46 456 0
2021-01-26 04:41:32 GMT 47.872696 -1.083183 38,000 46 456 64
2021-01-26 04:41:29 GMT 47.867664 -1.091027 38,000 46 456 0
2021-01-26 04:41:26 GMT 47.863724 -1.097260 38,000 46 456 -64
2021-01-26 04:41:23 GMT 47.857773 -1.106598 38,000 46 456 -64
2021-01-26 04:41:19 GMT 47.852966 -1.114082 38,000 46 456 0
2021-01-26 04:41:16 GMT 47.848579 -1.121028 38,000 46 456 0
2021-01-26 04:41:13 GMT 47.844063 -1.128071 38,000 46 455 -64
2021-01-26 04:41:10 GMT 47.840103 -1.134338 38,000 46 455 -64
2021-01-26 04:41:07 GMT 47.835125 -1.142156 38,000 46 455 0
2021-01-26 04:41:04 GMT 47.830811 -1.148827 38,000 46 456 64
2021-01-26 04:41:01 GMT 47.825672 -1.156874 38,000 46 456 0
2021-01-26 04:40:58 GMT 47.822159 -1.162422 38,000 46 456 0
2021-01-26 04:40:54 GMT 47.817947 -1.169014 38,000 46 456 0
2021-01-26 04:40:52 GMT 47.814194 -1.174919 38,000 46 456 0
2021-01-26 04:40:49 GMT 47.809113 -1.182884 38,000 46 456 0
2021-01-26 04:40:45 GMT 47.803982 -1.190890 38,000 46 456 0
2021-01-26 04:40:42 GMT 47.799046 -1.198637 38,000 46 456 0
2021-01-26 04:40:39 GMT 47.794670 -1.205397 38,000 46 456 0
2021-01-26 04:40:36 GMT 47.791260 -1.210762 38,000 46 456 0
2021-01-26 04:40:33 GMT 47.785904 -1.219139 38,000 46 456 -64
2021-01-26 04:40:30 GMT 47.781357 -1.226243 38,000 46 456 0
2021-01-26 04:40:27 GMT 47.776932 -1.233215 38,000 46 456 0
2021-01-26 04:40:24 GMT 47.773537 -1.238497 38,000 46 456 0
2021-01-26 04:40:21 GMT 47.769104 -1.245438 38,000 46 456 0
2021-01-26 04:40:19 GMT 47.765488 -1.251068 38,000 46 456 0
2021-01-26 04:40:16 GMT 47.761620 -1.257089 38,000 46 456 0
2021-01-26 04:40:13 GMT 47.757477 -1.263565 38,000 46 456 0
2021-01-26 04:40:10 GMT 47.753403 -1.269882 38,000 46 456 0
2021-01-26 04:40:07 GMT 47.748817 -1.277020 38,000 46 456 0
2021-01-26 04:40:04 GMT 47.744385 -1.283958 38,000 46 456 0
2021-01-26 04:40:01 GMT 47.740036 -1.290756 38,000 46 456 0
2021-01-26 04:39:59 GMT 47.736099 -1.296867 38,000 46 456 0
2021-01-26 04:39:56 GMT 47.732384 -1.302584 38,000 46 456 0
2021-01-26 04:39:53 GMT 47.728333 -1.308922 38,000 46 456 0
2021-01-26 04:39:51 GMT 47.725262 -1.313711 38,000 46 456 0
2021-01-26 04:39:48 GMT 47.720993 -1.320351 38,000 46 456 0
2021-01-26 04:39:45 GMT 47.716415 -1.327515 38,000 46 456 0
2021-01-26 04:39:41 GMT 47.710876 -1.336107 38,000 46 456 0
2021-01-26 04:39:39 GMT 47.707901 -1.340744 38,000 46 456 0
2021-01-26 04:39:37 GMT 47.705196 -1.344910 38,000 46 456 0
2021-01-26 04:39:34 GMT 47.701218 -1.351112 38,000 46 456 0
2021-01-26 04:39:31 GMT 47.696167 -1.358924 38,000 46 456 0
2021-01-26 04:39:29 GMT 47.693527 -1.363060 38,000 46 456 0
2021-01-26 04:39:27 GMT 47.690254 -1.368150 38,000 46 456 0
2021-01-26 04:39:24 GMT 47.686436 -1.373995 38,000 46 456 0
2021-01-26 04:39:21 GMT 47.682106 -1.380756 38,000 46 455 0
2021-01-26 04:39:19 GMT 47.679035 -1.385475 38,000 46 455 0
2021-01-26 04:39:16 GMT 47.675262 -1.391390 38,000 46 455 0
2021-01-26 04:39:13 GMT 47.668282 -1.402165 38,000 46 455 0
2021-01-26 04:39:10 GMT 47.665257 -1.406884 38,000 46 455 0
2021-01-26 04:39:07 GMT 47.662262 -1.411537 38,000 46 455 0
2021-01-26 04:39:04 GMT 47.656998 -1.419571 38,000 46 454 0
2021-01-26 04:39:01 GMT 47.652454 -1.426673 38,000 46 455 0
2021-01-26 04:38:58 GMT 47.647381 -1.434561 38,000 46 454 0
2021-01-26 04:38:54 GMT 47.643143 -1.441040 38,000 46 454 0
2021-01-26 04:38:51 GMT 47.637928 -1.449139 38,000 46 454 0
2021-01-26 04:38:48 GMT 47.634296 -1.454773 38,000 46 454 0
2021-01-26 04:38:46 GMT 47.626289 -1.467097 38,000 46 454 0
2021-01-26 04:38:43 GMT 47.626289 -1.467097 38,000 46 454 0
2021-01-26 04:38:40 GMT 47.622662 -1.472731 38,000 46 454 0
2021-01-26 04:38:38 GMT 47.619827 -1.477043 38,000 46 454 0
2021-01-26 04:38:35 GMT 47.614746 -1.484940 38,000 46 454 0
2021-01-26 04:38:32 GMT 47.609764 -1.492732 38,000 46 454 0
2021-01-26 04:38:29 GMT 47.606369 -1.497986 38,000 46 454 0
2021-01-26 04:38:26 GMT 47.602432 -1.504028 38,000 46 454 0
2021-01-26 04:38:23 GMT 47.598679 -1.509865 38,000 46 454 0
2021-01-26 04:38:20 GMT 47.593658 -1.517592 38,000 46 454 64
2021-01-26 04:38:17 GMT 47.588585 -1.525480 38,000 46 455 64
2021-01-26 04:38:14 GMT 47.579636 -1.539253 38,000 46 454 0
2021-01-26 04:38:11 GMT 47.579636 -1.539253 38,000 46 454 0
2021-01-26 04:38:09 GMT 47.576668 -1.543931 38,000 46 454 0
2021-01-26 04:38:07 GMT 47.575150 -1.546257 38,000 46 455 0
2021-01-26 04:38:04 GMT 47.570206 -1.553947 38,000 46 454 0
2021-01-26 04:38:01 GMT 47.565353 -1.561467 38,000 46 455 0
2021-01-26 04:37:59 GMT 47.559311 -1.570770 38,000 46 455 0
2021-01-26 04:37:57 GMT 47.559311 -1.570770 38,000 46 455 0
2021-01-26 04:37:54 GMT 47.556370 -1.575341 38,000 46 455 -64
2021-01-26 04:37:51 GMT 47.551208 -1.583336 38,000 46 454 0
2021-01-26 04:37:48 GMT 47.547409 -1.589172 38,000 46 454 0
2021-01-26 04:37:46 GMT 47.543793 -1.594803 38,000 46 454 0
2021-01-26 04:37:42 GMT 47.538216 -1.603441 38,000 46 455 0
2021-01-26 04:37:39 GMT 47.534584 -1.609075 38,000 46 455 0
2021-01-26 04:37:36 GMT 47.529968 -1.616089 38,000 46 454 0
2021-01-26 04:37:33 GMT 47.525692 -1.622737 38,000 46 455 0
2021-01-26 04:37:30 GMT 47.521454 -1.629216 38,000 46 455 0
2021-01-26 04:37:27 GMT 47.516464 -1.636894 38,000 46 455 64
2021-01-26 04:37:24 GMT 47.512665 -1.642731 38,000 46 455 64
2021-01-26 04:37:21 GMT 47.507023 -1.651400 38,000 46 456 0
2021-01-26 04:37:17 GMT 47.501530 -1.659921 38,000 46 456 0
2021-01-26 04:37:14 GMT 47.497715 -1.665767 38,000 46 456 64
2021-01-26 04:37:11 GMT 47.492523 -1.673698 38,000 46 456 64
2021-01-26 04:37:09 GMT 47.489567 -1.678302 38,000 46 456 0
2021-01-26 04:37:06 GMT 47.481033 -1.691414 38,000 46 456 -64
2021-01-26 04:37:03 GMT 47.481033 -1.691414 38,000 46 456 -64
2021-01-26 04:37:00 GMT 47.477234 -1.697250 38,000 46 456 0
2021-01-26 04:36:56 GMT 47.470432 -1.707740 38,000 46 456 64
2021-01-26 04:36:53 GMT 47.467163 -1.712769 38,000 46 456 0
2021-01-26 04:36:50 GMT 47.462101 -1.720487 38,000 46 456 -64
2021-01-26 04:36:47 GMT 47.457779 -1.727119 38,000 46 456 0
2021-01-26 04:36:44 GMT 47.453487 -1.733727 38,000 46 456 0
2021-01-26 04:36:41 GMT 47.449036 -1.740578 38,000 46 456 0
2021-01-26 04:36:39 GMT 47.444778 -1.747101 38,000 46 456 0
2021-01-26 04:36:36 GMT 47.441711 -1.751770 38,000 46 456 0
2021-01-26 04:36:33 GMT 47.437988 -1.757531 38,000 46 456 0
2021-01-26 04:36:30 GMT 47.433006 -1.765137 38,000 46 456 0
2021-01-26 04:36:27 GMT 47.428574 -1.771957 38,000 46 456 0
2021-01-26 04:36:24 GMT 47.424255 -1.778518 38,000 45 456 0
2021-01-26 04:36:20 GMT 47.414711 -1.793096 38,000 45 456 0
2021-01-26 04:36:17 GMT 47.414711 -1.793096 38,000 45 456 0
2021-01-26 04:36:14 GMT 47.405273 -1.807457 38,000 45 456 0
2021-01-26 04:36:11 GMT 47.405273 -1.807457 38,000 45 456 0
2021-01-26 04:36:08 GMT 47.400841 -1.814293 38,000 45 456 0
2021-01-26 04:36:05 GMT 47.396942 -1.820229 38,000 45 456 64
2021-01-26 04:36:02 GMT 47.391815 -1.827988 38,000 45 456 0
2021-01-26 04:35:59 GMT 47.388748 -1.832657 38,000 45 456 0
2021-01-26 04:35:56 GMT 47.383759 -1.840279 38,000 46 456 0
2021-01-26 04:35:53 GMT 47.378864 -1.847745 38,000 46 456 0
2021-01-26 04:35:50 GMT 47.374237 -1.854767 38,000 45 456 0
2021-01-26 04:35:46 GMT 47.368973 -1.862869 38,000 46 456 0
2021-01-26 04:35:43 GMT 47.364666 -1.869436 38,000 46 456 0
2021-01-26 04:35:39 GMT 47.359268 -1.877676 38,000 46 456 0
2021-01-26 04:35:36 GMT 47.352905 -1.887383 38,000 46 456 0
2021-01-26 04:35:33 GMT 47.350113 -1.891640 38,000 46 456 0
2021-01-26 04:35:29 GMT 47.344650 -1.900001 38,000 45 456 0
2021-01-26 04:35:26 GMT 47.339527 -1.907818 38,000 45 456 0
2021-01-26 04:35:23 GMT 47.335510 -1.913956 38,000 45 456 0
2021-01-26 04:35:20 GMT 47.330452 -1.921621 38,000 45 456 64
2021-01-26 04:35:16 GMT 47.322121 -1.934298 38,000 45 455 0
2021-01-26 04:35:12 GMT 47.319397 -1.938400 38,000 45 455 0
2021-01-26 04:35:09 GMT 47.310013 -1.952614 38,000 45 455 -64
2021-01-26 04:35:06 GMT 47.310013 -1.952614 38,000 45 455 0
2021-01-26 04:35:03 GMT 47.305618 -1.959274 38,000 45 455 0
2021-01-26 04:34:58 GMT 47.297215 -1.972046 38,000 45 455 0
2021-01-26 04:34:55 GMT 47.294003 -1.976976 38,000 45 455 0
2021-01-26 04:34:52 GMT 47.289486 -1.983807 38,000 45 455 0
2021-01-26 04:34:49 GMT 47.285019 -1.990585 38,000 45 455 0
2021-01-26 04:34:46 GMT 47.281036 -1.996628 38,000 45 455 0
2021-01-26 04:34:42 GMT 47.275772 -2.004593 38,000 45 455 0
2021-01-26 04:34:39 GMT 47.270725 -2.012259 38,000 45 455 0
2021-01-26 04:34:36 GMT 47.266350 -2.018879 38,000 45 455 0
2021-01-26 04:34:32 GMT 47.261227 -2.026696 38,000 45 455 0
2021-01-26 04:34:29 GMT 47.256180 -2.034325 38,000 45 455 0
2021-01-26 04:34:26 GMT 47.251686 -2.041063 38,000 45 455 0
2021-01-26 04:34:23 GMT 47.246475 -2.048950 38,000 45 456 0
2021-01-26 04:34:18 GMT 47.240021 -2.058701 38,000 45 456 0
2021-01-26 04:34:15 GMT 47.236359 -2.064262 38,000 45 456 0
2021-01-26 04:34:12 GMT 47.230637 -2.072914 38,000 45 456 0
2021-01-26 04:34:09 GMT 47.226036 -2.079937 38,000 45 456 0
2021-01-26 04:34:05 GMT 47.221390 -2.086922 38,000 45 456 0
2021-01-26 04:34:02 GMT 47.216125 -2.094887 38,000 45 456 0
2021-01-26 04:33:58 GMT 47.211136 -2.102440 38,000 45 456 0
2021-01-26 04:33:55 GMT 47.206696 -2.109100 38,000 45 456 0
2021-01-26 04:33:52 GMT 47.201504 -2.116981 38,000 45 456 0
2021-01-26 04:33:49 GMT 47.196579 -2.124413 38,000 45 456 0
2021-01-26 04:33:45 GMT 47.191677 -2.131841 38,000 45 456 0
2021-01-26 04:33:42 GMT 47.187057 -2.138832 38,000 45 456 0
2021-01-26 04:33:38 GMT 47.181858 -2.146700 38,000 45 456 0
2021-01-26 04:33:35 GMT 47.176620 -2.154556 38,000 45 456 0
2021-01-26 04:33:32 GMT 47.171906 -2.161629 38,000 45 456 0
2021-01-26 04:33:29 GMT 47.166321 -2.170074 38,000 45 456 0
2021-01-26 04:33:25 GMT 47.162537 -2.175716 38,000 45 458 0
2021-01-26 04:33:22 GMT 47.157303 -2.183601 38,000 45 456 -64
2021-01-26 04:33:18 GMT 47.151993 -2.191566 38,000 45 456 -64
2021-01-26 04:33:15 GMT 47.147221 -2.198745 38,000 45 456 -64
2021-01-26 04:33:11 GMT 47.141235 -2.207703 38,000 45 456 0
2021-01-26 04:33:08 GMT 47.136703 -2.214569 38,000 45 456 0
2021-01-26 04:33:05 GMT 47.126816 -2.229469 38,000 45 457 64
2021-01-26 04:33:02 GMT 47.126816 -2.229469 38,000 45 456 0
2021-01-26 04:32:58 GMT 47.122421 -2.236130 38,000 45 457 0
2021-01-26 04:32:55 GMT 47.117981 -2.242722 38,000 45 457 0
2021-01-26 04:32:51 GMT 47.112579 -2.250961 38,000 45 457 0
2021-01-26 04:32:48 GMT 47.107048 -2.259240 38,000 45 457 0
2021-01-26 04:32:45 GMT 47.103149 -2.265106 38,000 45 457 0
2021-01-26 04:32:42 GMT 47.092430 -2.281212 38,000 45 457 0
2021-01-26 04:32:39 GMT 47.092430 -2.281212 38,000 45 458 0
2021-01-26 04:32:36 GMT 47.090057 -2.284734 38,000 45 458 0
2021-01-26 04:32:33 GMT 47.085632 -2.291354 38,000 45 458 0
2021-01-26 04:32:30 GMT 47.081268 -2.297928 38,000 45 458 0
2021-01-26 04:32:27 GMT 47.076927 -2.304453 38,000 45 458 0
2021-01-26 04:32:24 GMT 47.072433 -2.311249 38,000 45 458 64
2021-01-26 04:32:21 GMT 47.067337 -2.318890 38,000 45 458 0
2021-01-26 04:32:17 GMT 47.062042 -2.326698 38,000 45 458 0
2021-01-26 04:32:14 GMT 47.057564 -2.333468 38,000 45 458 0
2021-01-26 04:32:11 GMT 47.052349 -2.341215 38,000 45 458 0
2021-01-26 04:32:07 GMT 47.047321 -2.348821 38,000 45 459 0
2021-01-26 04:32:04 GMT 47.036865 -2.364464 38,000 45 459 0
2021-01-26 04:32:01 GMT 47.036865 -2.364464 38,000 45 459 0
2021-01-26 04:31:57 GMT 47.032192 -2.371498 38,000 45 459 0
2021-01-26 04:31:54 GMT 47.027443 -2.378610 38,000 45 460 0
2021-01-26 04:31:51 GMT 47.024231 -2.383347 38,000 45 460 0
2021-01-26 04:31:48 GMT 47.017342 -2.393681 38,000 45 460 0
2021-01-26 04:31:44 GMT 47.012871 -2.400372 38,000 45 460 0
2021-01-26 04:31:40 GMT 47.007053 -2.409034 38,000 45 461 0
2021-01-26 04:31:37 GMT 47.002808 -2.415344 38,000 45 461 0
2021-01-26 04:31:34 GMT 46.997372 -2.423471 38,000 45 461 0
2021-01-26 04:31:30 GMT 46.992050 -2.431343 38,000 45 461 0
2021-01-26 04:31:27 GMT 46.987564 -2.438004 38,000 45 462 0
2021-01-26 04:31:24 GMT 46.982704 -2.445233 38,000 45 462 0
2021-01-26 04:31:20 GMT 46.977585 -2.452972 38,000 45 462 0
2021-01-26 04:31:17 GMT 46.972458 -2.460526 38,000 45 463 0
2021-01-26 04:31:13 GMT 46.967159 -2.468473 38,000 45 463 0
2021-01-26 04:31:10 GMT 46.961060 -2.477558 38,000 45 463 0
2021-01-26 04:31:07 GMT 46.957535 -2.482841 38,000 45 462 0
2021-01-26 04:31:03 GMT 46.951748 -2.491432 38,000 45 463 0
2021-01-26 04:31:00 GMT 46.947647 -2.497536 38,000 45 463 0
2021-01-26 04:30:57 GMT 46.941879 -2.506150 38,000 45 463 0
2021-01-26 04:30:54 GMT 46.937645 -2.512348 38,000 45 463 0
2021-01-26 04:30:51 GMT 46.933174 -2.519038 38,000 45 463 0
2021-01-26 04:30:47 GMT 46.927170 -2.527982 38,000 45 463 0
2021-01-26 04:30:44 GMT 46.921581 -2.536292 38,000 45 464 0
2021-01-26 04:30:40 GMT 46.917671 -2.542067 38,000 45 464 0
2021-01-26 04:30:36 GMT 46.911201 -2.551645 38,000 45 465 0
2021-01-26 04:30:33 GMT 46.906769 -2.558304 38,000 45 465 0
2021-01-26 04:30:29 GMT 46.899330 -2.569392 38,000 45 466 0
2021-01-26 04:30:26 GMT 46.891296 -2.581375 38,000 45 465 0
2021-01-26 04:30:23 GMT 46.891296 -2.581375 38,000 45 466 0
2021-01-26 04:30:19 GMT 46.880665 -2.597210 38,000 45 466 0
2021-01-26 04:30:16 GMT 46.880665 -2.597210 38,000 45 466 0
2021-01-26 04:30:13 GMT 46.876289 -2.603689 38,000 45 466 0
2021-01-26 04:30:09 GMT 46.868546 -2.615227 38,000 45 467 0
2021-01-26 04:30:06 GMT 46.865524 -2.619770 38,000 45 467 0
2021-01-26 04:30:01 GMT 46.858177 -2.630676 38,000 45 466 0
2021-01-26 04:29:58 GMT 46.854355 -2.636384 38,000 45 466 0
2021-01-26 04:29:55 GMT 46.850098 -2.642614 38,000 45 466 0
2021-01-26 04:29:52 GMT 46.845291 -2.649849 38,000 45 466 64
2021-01-26 04:29:48 GMT 46.838196 -2.660366 38,000 45 465 64
2021-01-26 04:29:45 GMT 46.834854 -2.665256 38,000 45 465 0
2021-01-26 04:29:42 GMT 46.830002 -2.672424 38,000 45 466 0
2021-01-26 04:29:39 GMT 46.825405 -2.679222 38,000 45 466 -64
2021-01-26 04:29:36 GMT 46.819214 -2.688423 38,000 45 465 0
2021-01-26 04:29:32 GMT 46.814758 -2.695000 38,000 45 465 0
2021-01-26 04:29:29 GMT 46.810501 -2.701230 38,000 45 465 0
2021-01-26 04:29:25 GMT 46.804321 -2.710408 38,000 45 465 0
2021-01-26 04:29:22 GMT 46.798965 -2.718292 38,000 45 465 64
2021-01-26 04:29:18 GMT 46.791889 -2.728729 38,000 45 464 -64
2021-01-26 04:29:15 GMT 46.788803 -2.733318 38,000 45 464 -64
2021-01-26 04:29:11 GMT 46.783676 -2.740821 38,000 45 463 -64
2021-01-26 04:29:07 GMT 46.777039 -2.750601 38,000 45 463 0
2021-01-26 04:29:04 GMT 46.772964 -2.756631 38,000 45 463 0
2021-01-26 04:29:01 GMT 46.768433 -2.763262 38,000 45 463 0
2021-01-26 04:28:58 GMT 46.764145 -2.769585 38,000 45 463 0
2021-01-26 04:28:55 GMT 46.758362 -2.778134 38,000 45 463 0
2021-01-26 04:28:51 GMT 46.752823 -2.786307 38,000 45 463 0
2021-01-26 04:28:47 GMT 46.746323 -2.795820 38,000 45 462 0
2021-01-26 04:28:44 GMT 46.742752 -2.801179 38,000 45 462 0
2021-01-26 04:28:41 GMT 46.737377 -2.808998 38,000 45 462 0
2021-01-26 04:28:38 GMT 46.733734 -2.814376 38,000 45 461 0
2021-01-26 04:28:35 GMT 46.727417 -2.823687 38,000 45 461 0
2021-01-26 04:28:31 GMT 46.722527 -2.830833 38,000 45 461 0
2021-01-26 04:28:27 GMT 46.714706 -2.842232 38,000 45 461 0
2021-01-26 04:28:24 GMT 46.712540 -2.845459 38,000 45 461 0
2021-01-26 04:28:20 GMT 46.706791 -2.853905 38,000 45 461 0
2021-01-26 04:28:17 GMT 46.700787 -2.862694 38,000 45 460 0
2021-01-26 04:28:14 GMT 46.697113 -2.868035 38,000 45 460 0
2021-01-26 04:28:09 GMT 46.690247 -2.878150 38,000 45 460 0
2021-01-26 04:28:06 GMT 46.685303 -2.885385 38,000 45 460 0
2021-01-26 04:28:03 GMT 46.681549 -2.890878 38,000 45 460 0
2021-01-26 04:27:59 GMT 46.675323 -2.899979 38,000 45 460 0
2021-01-26 04:27:56 GMT 46.670994 -2.906364 38,000 45 460 0
2021-01-26 04:27:53 GMT 46.666443 -2.913052 38,000 45 460 0
2021-01-26 04:27:49 GMT 46.659912 -2.922569 38,000 45 459 0
2021-01-26 04:27:46 GMT 46.654633 -2.930335 38,000 45 459 -64
2021-01-26 04:27:43 GMT 46.651474 -2.934957 38,000 45 459 -64
2021-01-26 04:27:40 GMT 46.645855 -2.943100 38,000 45 459 64
2021-01-26 04:27:37 GMT 46.642685 -2.947819 38,000 45 459 64
2021-01-26 04:27:34 GMT 46.636311 -2.957108 38,000 45 459 0
2021-01-26 04:27:29 GMT 46.629562 -2.966927 38,000 45 459 0
2021-01-26 04:27:25 GMT 46.623505 -2.975821 38,000 45 459 0
2021-01-26 04:27:21 GMT 46.617874 -2.983955 38,000 45 459 0
2021-01-26 04:27:17 GMT 46.611732 -2.992950 38,000 45 459 0
2021-01-26 04:27:13 GMT 46.605515 -3.002014 38,000 45 459 0
2021-01-26 04:27:09 GMT 46.600231 -3.009773 38,000 45 459 0
2021-01-26 04:27:06 GMT 46.596321 -3.015472 38,000 45 460 0
2021-01-26 04:27:03 GMT 46.590645 -3.023781 38,000 45 460 0
2021-01-26 04:26:59 GMT 46.584637 -3.032501 38,000 45 460 0
2021-01-26 04:26:53 GMT 46.575329 -3.046028 38,000 45 460 0
2021-01-26 04:26:49 GMT 46.569534 -3.054467 38,000 45 460 0
2021-01-26 04:26:46 GMT 46.565132 -3.060928 38,000 45 461 0
2021-01-26 04:26:43 GMT 46.560478 -3.067657 38,000 45 461 0
2021-01-26 04:26:38 GMT 46.553192 -3.078249 38,000 45 461 0
2021-01-26 04:26:34 GMT 46.547443 -3.086746 38,000 45 461 0
2021-01-26 04:26:31 GMT 46.541439 -3.095467 38,000 45 461 0
2021-01-26 04:26:28 GMT 46.539017 -3.098969 38,000 45 461 64
2021-01-26 04:26:24 GMT 46.532776 -3.107992 38,000 45 461 0
2021-01-26 04:26:21 GMT 46.528637 -3.114006 38,000 45 461 0
2021-01-26 04:26:17 GMT 46.522385 -3.123065 38,000 45 461 0
2021-01-26 04:26:13 GMT 46.516159 -3.132133 38,000 45 461 0
2021-01-26 04:26:10 GMT 46.511398 -3.139008 38,000 45 461 0
2021-01-26 04:26:07 GMT 46.507645 -3.144434 38,000 45 461 0
2021-01-26 04:26:04 GMT 46.497772 -3.158775 38,000 45 461 0
2021-01-26 04:26:01 GMT 46.497772 -3.158775 38,000 45 461 0
2021-01-26 04:25:58 GMT 46.492790 -3.165985 38,000 45 461 0
2021-01-26 04:25:54 GMT 46.486645 -3.174911 38,000 45 461 0
2021-01-26 04:25:51 GMT 46.482788 -3.180475 38,000 45 462 0
2021-01-26 04:25:47 GMT 46.476822 -3.189125 38,000 45 462 0
2021-01-26 04:25:42 GMT 46.468597 -3.201041 38,000 45 461 0
2021-01-26 04:25:37 GMT 46.461880 -3.210754 38,000 45 461 0
2021-01-26 04:25:32 GMT 46.453079 -3.223549 38,000 45 461 0
2021-01-26 04:25:29 GMT 46.449821 -3.228264 38,000 45 461 0
2021-01-26 04:25:26 GMT 46.445911 -3.233894 38,000 45 461 0
2021-01-26 04:25:21 GMT 46.438156 -3.245187 38,000 45 462 0
2021-01-26 04:25:17 GMT 46.431156 -3.255318 38,000 45 462 0
2021-01-26 04:25:12 GMT 46.422592 -3.267696 38,000 45 463 0
2021-01-26 04:25:09 GMT 46.418701 -3.273390 38,000 45 463 0
2021-01-26 04:25:06 GMT 46.415497 -3.278012 38,000 45 463 0
2021-01-26 04:25:03 GMT 46.410965 -3.284577 38,000 45 463 0
2021-01-26 04:24:59 GMT 46.404713 -3.293633 38,000 45 463 0
2021-01-26 04:24:56 GMT 46.400013 -3.300430 38,000 45 463 0
2021-01-26 04:24:51 GMT 46.392937 -3.310730 38,000 45 463 0
2021-01-26 04:24:48 GMT 46.387253 -3.318943 38,000 45 463 0
2021-01-26 04:24:45 GMT 46.382721 -3.325441 38,000 45 463 0
2021-01-26 04:24:39 GMT 46.373337 -3.339040 38,000 44 463 0
2021-01-26 04:24:36 GMT 46.369148 -3.344994 38,000 44 463 0
2021-01-26 04:24:31 GMT 46.360474 -3.357529 38,000 44 463 0
2021-01-26 04:24:28 GMT 46.356812 -3.362754 38,000 44 462 0
2021-01-26 04:24:25 GMT 46.353790 -3.367109 38,000 44 461 0
2021-01-26 04:24:22 GMT 46.347748 -3.375817 38,000 44 461 0
2021-01-26 04:24:18 GMT 46.342987 -3.382690 38,000 44 461 0
2021-01-26 04:24:15 GMT 46.338226 -3.389550 38,000 44 461 0
2021-01-26 04:24:12 GMT 46.331726 -3.398862 38,000 44 461 0
2021-01-26 04:24:08 GMT 46.327251 -3.405281 38,000 44 461 0
2021-01-26 04:24:05 GMT 46.322342 -3.412327 38,000 44 461 0
2021-01-26 04:24:01 GMT 46.316078 -3.421349 38,000 44 461 0
2021-01-26 04:23:55 GMT 46.307186 -3.434120 38,000 44 461 0
2021-01-26 04:23:50 GMT 46.300251 -3.444077 38,000 44 461 0
2021-01-26 04:23:45 GMT 46.291992 -3.455870 38,000 44 461 0
2021-01-26 04:23:40 GMT 46.282974 -3.468933 38,000 44 460 0
2021-01-26 04:23:37 GMT 46.280605 -3.472298 38,000 44 461 0
2021-01-26 04:23:34 GMT 46.276367 -3.478340 38,000 44 461 0
2021-01-26 04:23:30 GMT 46.269619 -3.488091 38,000 44 461 0
2021-01-26 04:23:27 GMT 46.264847 -3.494858 38,000 44 461 0
2021-01-26 04:23:24 GMT 46.261005 -3.500381 38,000 44 461 0
2021-01-26 04:23:21 GMT 46.254677 -3.509514 38,000 44 460 0
2021-01-26 04:23:17 GMT 46.250439 -3.515556 38,000 44 460 0
2021-01-26 04:23:14 GMT 46.245850 -3.522123 38,000 44 460 0
2021-01-26 04:23:10 GMT 46.239670 -3.531033 38,000 44 460 0
2021-01-26 04:23:07 GMT 46.235218 -3.537392 38,000 44 460 0
2021-01-26 04:23:04 GMT 46.230331 -3.544431 38,000 44 460 0
2021-01-26 04:23:00 GMT 46.224834 -3.552292 38,000 44 459 0
2021-01-26 04:22:56 GMT 46.219482 -3.559972 38,000 44 459 0
2021-01-26 04:22:53 GMT 46.214951 -3.566403 38,000 44 459 0
2021-01-26 04:22:49 GMT 46.208588 -3.575569 38,000 44 458 0
2021-01-26 04:22:46 GMT 46.204212 -3.581818 38,000 44 459 0
2021-01-26 04:22:43 GMT 46.199753 -3.588175 38,000 44 458 0
2021-01-26 04:22:40 GMT 46.194435 -3.595825 38,000 44 458 0
2021-01-26 04:22:36 GMT 46.188248 -3.604614 38,000 44 458 0
2021-01-26 04:22:33 GMT 46.184143 -3.610550 38,000 44 458 0
2021-01-26 04:22:30 GMT 46.179680 -3.616837 38,000 44 458 0
2021-01-26 04:22:26 GMT 46.173347 -3.625832 38,000 44 457 0
2021-01-26 04:22:23 GMT 46.169022 -3.632080 38,000 44 456 0
2021-01-26 04:22:19 GMT 46.163296 -3.640182 38,000 44 457 0
2021-01-26 04:22:16 GMT 46.158779 -3.646637 38,000 44 457 0
2021-01-26 04:22:13 GMT 46.153427 -3.654227 38,000 44 457 0
2021-01-26 04:22:10 GMT 46.149536 -3.659787 38,000 44 457 0
2021-01-26 04:22:06 GMT 46.143082 -3.668965 38,000 44 457 0
2021-01-26 04:22:02 GMT 46.137680 -3.676668 38,000 44 456 0
2021-01-26 04:21:59 GMT 46.132278 -3.684305 38,000 44 456 0
2021-01-26 04:21:56 GMT 46.129078 -3.688934 38,000 44 456 0
2021-01-26 04:21:52 GMT 46.122849 -3.697770 38,000 44 456 0
2021-01-26 04:21:49 GMT 46.116928 -3.706169 38,000 44 456 0
2021-01-26 04:21:46 GMT 46.113155 -3.711525 38,000 44 456 0
2021-01-26 04:21:42 GMT 46.107101 -3.720145 38,000 44 455 0
2021-01-26 04:21:39 GMT 46.102077 -3.727249 38,000 44 455 0
2021-01-26 04:21:35 GMT 46.097469 -3.733841 38,000 44 455 0
2021-01-26 04:21:32 GMT 46.092209 -3.741257 38,000 44 455 0
2021-01-26 04:21:27 GMT 46.085598 -3.750664 38,000 44 454 0
2021-01-26 04:21:24 GMT 46.081127 -3.756981 38,000 44 454 0
2021-01-26 04:21:21 GMT 46.076706 -3.763219 38,000 44 454 0
2021-01-26 04:21:16 GMT 46.068977 -3.774147 38,000 44 454 0
2021-01-26 04:21:11 GMT 46.060646 -3.786026 38,000 44 454 0
2021-01-26 04:21:04 GMT 46.050064 -3.800935 38,000 44 454 0
2021-01-26 04:21:00 GMT 46.045441 -3.807500 38,000 44 453 0
2021-01-26 04:20:56 GMT 46.038437 -3.817414 38,000 44 453 0
2021-01-26 04:20:53 GMT 46.033737 -3.824066 38,000 44 453 0
2021-01-26 04:20:50 GMT 46.029922 -3.829405 38,000 44 453 0
2021-01-26 04:20:46 GMT 46.021729 -3.840994 38,000 44 453 0
2021-01-26 04:20:40 GMT 46.014652 -3.851051 38,000 44 453 0
2021-01-26 04:20:37 GMT 46.009720 -3.857986 38,000 44 452 0
2021-01-26 04:20:34 GMT 46.003807 -3.866432 38,000 44 453 0
2021-01-26 04:20:29 GMT 45.996872 -3.876231 38,000 44 452 0
2021-01-26 04:20:26 GMT 45.994122 -3.880096 38,000 44 451 0
2021-01-26 04:20:20 GMT 45.985245 -3.892577 38,000 44 451 0
2021-01-26 04:20:10 GMT 45.969963 -3.914154 38,000 44 452 0
2021-01-26 04:20:03 GMT 45.958511 -3.930359 38,000 44 451 0
2021-01-26 04:19:59 GMT 45.953903 -3.936813 38,000 44 451 0
2021-01-26 04:19:55 GMT 45.948166 -3.944963 38,000 44 451 0
2021-01-26 04:19:50 GMT 45.939835 -3.956686 38,000 44 451 0
2021-01-26 04:19:46 GMT 45.932720 -3.966614 38,000 44 452 0
2021-01-26 04:19:42 GMT 45.928345 -3.972830 38,000 44 451 0
2021-01-26 04:19:37 GMT 45.920990 -3.983231 38,000 44 451 64
2021-01-26 04:19:32 GMT 45.913540 -3.993668 38,000 44 451 0
2021-01-26 04:19:29 GMT 45.908981 -4.000028 38,000 44 451 0
2021-01-26 04:19:26 GMT 45.904415 -4.006439 38,000 44 451 -64
2021-01-26 04:19:22 GMT 45.898544 -4.014699 38,000 44 451 0
2021-01-26 04:19:19 GMT 45.894241 -4.020795 38,000 44 451 64
2021-01-26 04:19:12 GMT 45.883804 -4.035399 38,000 44 451 -64
2021-01-26 04:19:08 GMT 45.878395 -4.043037 38,000 44 451 0
2021-01-26 04:19:05 GMT 45.871902 -4.052079 38,000 44 450 0
2021-01-26 04:19:02 GMT 45.868790 -4.056501 38,000 44 451 0
2021-01-26 04:18:58 GMT 45.863434 -4.064004 38,000 44 450 0
2021-01-26 04:18:52 GMT 45.853455 -4.077937 38,000 44 450 0
2021-01-26 04:18:48 GMT 45.848557 -4.084837 38,000 44 450 0
2021-01-26 04:18:42 GMT 45.838825 -4.098450 38,000 44 450 0
2021-01-26 04:18:38 GMT 45.833611 -4.105728 38,000 44 450 64
2021-01-26 04:18:32 GMT 45.823563 -4.119806 38,000 44 450 -64
2021-01-26 04:18:28 GMT 45.817829 -4.127838 38,000 44 450 0
2021-01-26 04:18:21 GMT 45.808056 -4.141571 38,000 44 450 0
2021-01-26 04:18:18 GMT 45.803055 -4.148478 38,000 44 450 -64
2021-01-26 04:18:12 GMT 45.793297 -4.162102 38,000 44 450 0
2021-01-26 04:18:08 GMT 45.788082 -4.169380 38,000 44 450 64
2021-01-26 04:18:01 GMT 45.778122 -4.183319 38,000 44 450 -64
2021-01-26 04:17:57 GMT 45.772247 -4.191552 38,000 44 450 -64
2021-01-26 04:17:51 GMT 45.763641 -4.203543 38,000 44 449 128
2021-01-26 04:17:47 GMT 45.757126 -4.212570 38,000 44 449 0
2021-01-26 04:17:40 GMT 45.747253 -4.226387 38,000 44 449 -64
2021-01-26 04:17:36 GMT 45.741760 -4.234024 38,000 44 449 0
2021-01-26 04:17:30 GMT 45.732422 -4.247087 38,000 44 449 64
2021-01-26 04:17:26 GMT 45.726959 -4.254662 38,000 44 449 0
2021-01-26 04:17:20 GMT 45.717323 -4.268120 38,000 44 449 0
2021-01-26 04:17:16 GMT 45.712109 -4.275330 38,000 44 449 0
2021-01-26 04:17:11 GMT 45.703358 -4.287552 38,000 44 448 64
2021-01-26 04:17:06 GMT 45.696762 -4.296726 38,000 44 449 64
2021-01-26 04:16:56 GMT 45.681061 -4.318520 38,000 44 449 0
2021-01-26 04:16:46 GMT 45.666595 -4.338595 38,000 44 448 0
2021-01-26 04:16:35 GMT 45.651218 -4.359924 38,000 44 449 0
2021-01-26 04:16:25 GMT 45.635101 -4.382272 38,000 44 448 0
2021-01-26 04:16:14 GMT 45.618679 -4.405037 38,000 44 449 0
2021-01-26 04:16:05 GMT 45.605804 -4.422868 38,000 44 449 0
2021-01-26 04:15:59 GMT 45.597336 -4.434591 38,000 44 449 0
2021-01-26 04:15:55 GMT 45.590469 -4.444104 38,000 44 449 0
2021-01-26 04:15:44 GMT 45.575134 -4.465272 38,000 44 449 0
2021-01-26 04:15:34 GMT 45.559616 -4.486709 38,000 44 449 0
2021-01-26 04:15:23 GMT 45.543549 -4.508907 38,000 44 449 0
2021-01-26 04:15:13 GMT 45.528763 -4.529310 38,000 44 449 0
2021-01-26 04:15:10 GMT 45.524139 -4.535653 38,000 44 449 0
2021-01-26 04:15:04 GMT 45.514355 -4.549144 38,000 44 449 0
2021-01-26 04:14:53 GMT 45.498825 -4.570574 38,000 44 449 0
2021-01-26 04:14:43 GMT 45.483677 -4.591414 38,000 44 449 0
2021-01-26 04:14:33 GMT 45.468109 -4.612754 38,000 44 448 0
2021-01-26 04:14:22 GMT 45.452255 -4.634556 38,000 44 448 0
2021-01-26 04:14:13 GMT 45.438244 -4.653782 38,000 43 448 64
2021-01-26 04:14:02 GMT 45.423019 -4.674616 38,000 43 448 0
2021-01-26 04:13:52 GMT 45.407593 -4.695740 38,000 43 448 0
2021-01-26 04:13:42 GMT 45.392342 -4.716618 38,000 44 447 0
2021-01-26 04:13:32 GMT 45.377586 -4.736782 38,000 44 447 0
2021-01-26 04:13:21 GMT 45.361130 -4.759238 38,000 43 448 0
2021-01-26 04:13:11 GMT 45.346985 -4.778595 38,000 43 447 0
2021-01-26 04:13:00 GMT 45.329914 -4.801829 38,000 43 447 0
2021-01-26 04:12:51 GMT 45.316647 -4.819917 38,000 43 447 0
2021-01-26 04:12:41 GMT 45.301346 -4.840720 38,000 43 447 0
2021-01-26 04:12:30 GMT 45.285736 -4.861973 38,000 43 447 0
2021-01-26 04:12:20 GMT 45.271027 -4.882016 38,000 43 447 -64
2021-01-26 04:12:10 GMT 45.255619 -4.902917 38,000 43 448 0
2021-01-26 04:12:00 GMT 45.240189 -4.923902 38,000 43 449 0
2021-01-26 04:11:50 GMT 45.225266 -4.944183 38,000 43 449 0
2021-01-26 04:11:39 GMT 45.209534 -4.965485 38,000 43 449 64
2021-01-26 04:11:29 GMT 45.194458 -4.985962 38,000 43 450 0
2021-01-26 04:11:18 GMT 45.178108 -5.008091 38,000 43 451 0
2021-01-26 04:11:06 GMT 45.160263 -5.032196 38,000 43 451 0
2021-01-26 04:10:59 GMT 45.148315 -5.048419 38,000 43 451 0
2021-01-26 04:10:41 GMT 45.121269 -5.084861 38,000 43 451 0
2021-01-26 04:10:34 GMT 45.112015 -5.097395 38,000 43 451 0
2021-01-26 04:10:28 GMT 45.102173 -5.110670 38,000 43 451 0
2021-01-26 04:10:13 GMT 45.079697 -5.140948 38,000 43 451 0
2021-01-26 04:10:07 GMT 45.070358 -5.153569 38,000 43 451 0
2021-01-26 04:09:56 GMT 45.053677 -5.175967 38,000 43 451 0
2021-01-26 04:09:45 GMT 45.036850 -5.198626 38,000 43 451 0
2021-01-26 04:09:28 GMT 45.011810 -5.232304 38,000 43 449 0
2021-01-26 04:09:26 GMT 45.009384 -5.235509 38,000 43 450 0
2021-01-26 04:09:16 GMT 44.993763 -5.256422 38,000 43 449 0
2021-01-26 04:08:49 GMT 44.947071 -5.318924 38,000 43 449 0
2021-01-26 04:08:38 GMT 44.929962 -5.341775 38,000 43 449 0
2021-01-26 04:08:25 GMT 44.909454 -5.369166 38,000 43 447 0
2021-01-26 04:08:10 GMT 44.888351 -5.397295 38,000 43 447 0
2021-01-26 04:07:56 GMT 44.866837 -5.425938 38,000 43 447 0
2021-01-26 04:07:42 GMT 44.845779 -5.453927 38,000 43 447 0
2021-01-26 04:07:24 GMT 44.824360 -5.482379 38,000 43 447 0
2021-01-26 04:07:14 GMT 44.809433 -5.502254 38,000 43 447 0
2021-01-26 04:07:04 GMT 44.794472 -5.522171 38,000 43 447 0
2021-01-26 04:06:49 GMT 44.764572 -5.561763 38,000 43 448 0
2021-01-26 04:06:45 GMT 44.760223 -5.567518 38,000 43 448 0
2021-01-26 04:06:30 GMT 44.737656 -5.597403 38,000 43 448 0
2021-01-26 04:06:13 GMT 44.717606 -5.623888 38,000 43 447 0
2021-01-26 04:06:03 GMT 44.702545 -5.643768 38,000 43 447 0
2021-01-26 04:05:48 GMT 44.674530 -5.680782 38,000 43 447 0
2021-01-26 04:05:42 GMT 44.671432 -5.684822 38,000 43 447 0
2021-01-26 04:05:30 GMT 44.653374 -5.708670 38,000 43 447 0
2021-01-26 04:05:19 GMT 44.629623 -5.739964 38,000 43 447 0
2021-01-26 04:05:11 GMT 44.625412 -5.745523 38,000 43 447 0
2021-01-26 04:04:41 GMT 44.573441 -5.813911 38,000 43 448 0
2021-01-26 04:04:38 GMT 44.568237 -5.820727 38,000 43 448 0
2021-01-26 04:03:37 GMT 44.476845 -5.940455 38,000 43 448 0
2021-01-26 04:03:26 GMT 44.460178 -5.962294 38,000 43 449 0
2021-01-26 04:03:12 GMT 44.439278 -5.989559 38,000 43 449 0
2021-01-26 04:01:06 GMT 44.249763 -6.235746 36,700 43 455 1664
2021-01-26 04:00:57 GMT 44.235672 -6.254163 36,400 43 455 1664
2021-01-26 04:00:52 GMT 44.227001 -6.265490 36,250 43 457 1408
2021-01-26 04:00:36 GMT 44.203674 -6.296082 36,025 43 459 192
2021-01-26 04:00:23 GMT 44.182869 -6.323744 36,000 43 458 64
2021-01-26 04:00:08 GMT 44.159775 -6.350992 36,000 37 448 0
2021-01-26 03:59:55 GMT 44.136978 -6.374306 36,000 36 447 0
2021-01-26 03:59:40 GMT 44.113365 -6.398359 36,000 36 447 0
2021-01-26 03:59:26 GMT 44.088741 -6.423471 36,000 36 446 0
2021-01-26 03:59:13 GMT 44.066025 -6.446547 36,000 36 446 0
2021-01-26 03:58:58 GMT 44.042000 -6.470947 36,000 36 445 0
2021-01-26 03:58:44 GMT 44.018913 -6.494424 36,000 36 445 0
2021-01-26 03:58:30 GMT 43.995541 -6.518097 36,000 36 444 0
2021-01-26 03:58:13 GMT 43.967194 -6.546805 36,000 36 444 0
2021-01-26 03:57:03 GMT 43.858521 -6.656501 36,000 36 441 0
2021-01-26 03:56:38 GMT 43.816689 -6.698587 36,000 36 441 0
2021-01-26 03:56:28 GMT 43.800568 -6.714818 36,000 36 441 0
2021-01-26 03:56:19 GMT 43.784195 -6.731284 36,000 36 441 0
2021-01-26 03:56:02 GMT 43.758266 -6.757311 36,000 36 441 64
2021-01-26 03:55:53 GMT 43.743301 -6.772305 36,000 36 441 0
2021-01-26 03:55:48 GMT 43.734375 -6.781247 36,000 35 441 0
2021-01-26 03:55:38 GMT 43.717812 -6.797856 36,000 35 441 0
2021-01-26 03:55:27 GMT 43.700310 -6.815382 36,000 36 441 0
2021-01-26 03:55:16 GMT 43.681499 -6.834215 36,000 35 441 0
2021-01-26 03:55:07 GMT 43.666325 -6.849387 36,000 35 441 0
2021-01-26 03:54:56 GMT 43.649799 -6.865867 36,000 35 441 0
2021-01-26 03:54:47 GMT 43.633850 -6.881785 36,000 35 441 0
2021-01-26 03:54:36 GMT 43.615082 -6.900564 36,000 35 441 0
2021-01-26 03:54:27 GMT 43.599060 -6.916468 36,000 35 441 0
2021-01-26 03:54:16 GMT 43.583359 -6.932118 36,000 35 441 0
2021-01-26 03:54:06 GMT 43.566055 -6.949364 36,000 35 440 0
2021-01-26 03:53:56 GMT 43.549576 -6.965779 36,000 35 440 0
2021-01-26 03:53:52 GMT 43.544033 -6.971283 36,000 35 440 0
2021-01-26 03:53:45 GMT 43.532349 -6.982923 36,000 35 440 0
2021-01-26 03:53:41 GMT 43.525635 -6.989540 36,000 35 440 0
2021-01-26 03:53:32 GMT 43.511211 -7.003915 36,000 35 440 0
2021-01-26 03:53:26 GMT 43.498627 -7.016431 36,000 35 440 0
2021-01-26 03:53:22 GMT 43.494267 -7.020787 36,000 35 440 0
2021-01-26 03:53:15 GMT 43.482651 -7.032272 36,000 35 440 0
2021-01-26 03:53:12 GMT 43.477524 -7.037382 36,000 35 440 0
2021-01-26 03:53:05 GMT 43.465485 -7.049262 36,000 35 439 0
2021-01-26 03:53:00 GMT 43.458069 -7.056608 36,000 35 439 0
2021-01-26 03:52:54 GMT 43.448685 -7.065934 36,000 35 439 0
2021-01-26 03:52:51 GMT 43.442688 -7.071860 36,000 35 439 0
2021-01-26 03:52:45 GMT 43.432388 -7.082030 36,000 35 439 0
2021-01-26 03:52:41 GMT 43.427185 -7.087163 36,000 35 439 0
2021-01-26 03:52:32 GMT 43.409958 -7.104194 36,000 35 439 0
2021-01-26 03:52:29 GMT 43.406708 -7.107452 36,000 35 439 0
2021-01-26 03:52:25 GMT 43.398788 -7.115244 36,000 35 439 0
2021-01-26 03:52:19 GMT 43.390686 -7.123229 36,000 35 439 0
2021-01-26 03:52:14 GMT 43.382217 -7.131631 36,000 35 439 64
2021-01-26 03:52:09 GMT 43.374390 -7.139325 36,000 35 442 0
2021-01-26 03:52:04 GMT 43.364960 -7.148650 36,000 35 439 0
2021-01-26 03:52:00 GMT 43.357124 -7.156350 36,000 35 440 64
2021-01-26 03:51:53 GMT 43.348045 -7.165309 36,000 35 440 0
2021-01-26 03:51:48 GMT 43.339760 -7.173418 36,000 35 440 0
2021-01-26 03:51:44 GMT 43.331474 -7.181593 36,000 35 441 0
2021-01-26 03:51:39 GMT 43.324024 -7.188917 36,000 35 442 -64
2021-01-26 03:51:33 GMT 43.314835 -7.197961 36,000 35 442 0
2021-01-26 03:51:29 GMT 43.306618 -7.206050 36,000 35 442 0
2021-01-26 03:51:23 GMT 43.297577 -7.214952 36,000 35 442 64
2021-01-26 03:51:18 GMT 43.289719 -7.222726 36,000 35 442 0
2021-01-26 03:51:13 GMT 43.280777 -7.231495 36,000 35 443 0
2021-01-26 03:51:08 GMT 43.273052 -7.239140 36,000 35 443 0
2021-01-26 03:51:02 GMT 43.262253 -7.249799 36,000 35 444 -64
2021-01-26 03:50:58 GMT 43.255966 -7.255895 36,000 35 444 0
2021-01-26 03:50:52 GMT 43.246490 -7.265284 36,000 35 444 0
2021-01-26 03:50:48 GMT 43.238880 -7.272688 36,000 35 444 0
2021-01-26 03:50:43 GMT 43.230148 -7.281317 36,000 35 444 0
2021-01-26 03:50:38 GMT 43.222275 -7.288982 36,000 35 444 0
2021-01-26 03:50:30 GMT 43.208588 -7.302395 36,000 35 444 0
2021-01-26 03:50:27 GMT 43.204666 -7.306235 36,000 35 444 0
2021-01-26 03:50:20 GMT 43.191120 -7.319510 36,000 35 444 -64
2021-01-26 03:50:17 GMT 43.188000 -7.322649 36,000 35 444 -64
2021-01-26 03:50:12 GMT 43.179199 -7.331202 36,000 35 443 0
2021-01-26 03:50:08 GMT 43.170685 -7.339506 36,000 35 443 0
2021-01-26 03:50:01 GMT 43.160019 -7.349981 36,000 35 444 -64
2021-01-26 03:49:57 GMT 43.154022 -7.355858 36,000 35 444 0
2021-01-26 03:49:52 GMT 43.145325 -7.364353 36,000 35 444 64
2021-01-26 03:49:47 GMT 43.137497 -7.372018 36,000 35 444 0
2021-01-26 03:49:42 GMT 43.128616 -7.380705 36,000 35 445 0
2021-01-26 03:49:36 GMT 43.119965 -7.389200 36,000 35 444 0
2021-01-26 03:49:32 GMT 43.110863 -7.398049 36,000 35 444 0
2021-01-26 03:49:27 GMT 43.103321 -7.405374 36,025 35 443 0
2021-01-26 03:49:19 GMT 43.089310 -7.419107 36,000 35 444 64
2021-01-26 03:49:16 GMT 43.086044 -7.422287 36,000 35 443 64
2021-01-26 03:49:11 GMT 43.077530 -7.430590 36,000 35 444 -64
2021-01-26 03:49:07 GMT 43.069519 -7.438383 36,000 35 443 64
2021-01-26 03:49:01 GMT 43.059814 -7.447836 36,000 35 443 0
2021-01-26 03:48:56 GMT 43.052067 -7.455401 36,000 35 443 0
2021-01-26 03:48:50 GMT 43.042572 -7.464687 36,000 35 443 0
2021-01-26 03:48:46 GMT 43.035542 -7.471488 36,000 35 443 0
2021-01-26 03:48:41 GMT 43.026443 -7.480284 36,000 35 443 0
2021-01-26 03:48:36 GMT 43.018433 -7.488077 36,000 35 443 0
2021-01-26 03:48:30 GMT 43.008682 -7.497515 36,000 35 442 0
2021-01-26 03:48:26 GMT 43.001839 -7.504185 36,000 35 442 0
2021-01-26 03:48:20 GMT 42.991364 -7.514387 36,000 35 442 0
2021-01-26 03:48:17 GMT 42.987946 -7.517714 36,000 35 442 0
2021-01-26 03:48:13 GMT 42.980301 -7.525124 36,000 35 442 0
2021-01-26 03:48:08 GMT 42.970642 -7.534513 36,000 35 442 0
2021-01-26 03:48:05 GMT 42.967529 -7.537471 36,000 35 442 0
2021-01-26 03:48:00 GMT 42.958328 -7.546458 36,000 35 442 0
2021-01-26 03:47:55 GMT 42.950500 -7.554059 36,000 35 441 0
2021-01-26 03:47:49 GMT 42.940659 -7.563576 36,000 35 441 0
2021-01-26 03:47:45 GMT 42.933918 -7.570103 36,000 35 441 0
2021-01-26 03:47:39 GMT 42.924225 -7.579481 36,000 35 441 0
2021-01-26 03:47:35 GMT 42.917725 -7.585740 36,000 35 441 0
2021-01-26 03:47:32 GMT 42.910969 -7.592272 36,000 35 441 0
2021-01-26 03:47:27 GMT 42.903008 -7.599989 36,000 35 441 64
2021-01-26 03:47:24 GMT 42.899597 -7.603306 36,000 35 441 0
2021-01-26 03:47:19 GMT 42.890205 -7.612414 36,000 35 441 0
2021-01-26 03:47:15 GMT 42.882896 -7.619476 36,000 35 441 0
2021-01-26 03:47:09 GMT 42.873215 -7.628828 36,000 35 442 -64
2021-01-26 03:47:04 GMT 42.866135 -7.635690 36,000 35 442 0
2021-01-26 03:46:58 GMT 42.856361 -7.645111 36,000 35 442 0
2021-01-26 03:46:54 GMT 42.848541 -7.652697 36,000 35 442 0
2021-01-26 03:46:51 GMT 42.843189 -7.657798 36,000 35 443 -64
2021-01-26 03:46:48 GMT 42.839081 -7.661750 36,000 35 443 0
2021-01-26 03:46:45 GMT 42.834915 -7.665838 36,000 35 443 0
2021-01-26 03:46:41 GMT 42.826988 -7.673492 36,000 35 443 -64
2021-01-26 03:46:38 GMT 42.822659 -7.677678 36,000 35 443 0
2021-01-26 03:46:35 GMT 42.817566 -7.682637 36,000 35 443 0
2021-01-26 03:46:31 GMT 42.808868 -7.691054 36,000 35 443 0
2021-01-26 03:46:26 GMT 42.801178 -7.698482 36,000 35 443 0
2021-01-26 03:46:23 GMT 42.798126 -7.701480 36,000 35 443 0
2021-01-26 03:46:18 GMT 42.788906 -7.710358 36,000 35 443 0
2021-01-26 03:46:14 GMT 42.781181 -7.717768 36,000 35 443 0
2021-01-26 03:46:10 GMT 42.774849 -7.723900 36,000 35 443 64
2021-01-26 03:46:05 GMT 42.766983 -7.731501 36,000 35 443 0
2021-01-26 03:46:01 GMT 42.759659 -7.738495 36,000 35 443 0
2021-01-26 03:45:57 GMT 42.754227 -7.743764 36,000 35 443 0
2021-01-26 03:45:53 GMT 42.746548 -7.751174 36,000 35 444 0
2021-01-26 03:45:47 GMT 42.735397 -7.761903 36,000 35 443 0
2021-01-26 03:45:43 GMT 42.729927 -7.767078 36,000 35 443 0
2021-01-26 03:45:37 GMT 42.720570 -7.776149 36,000 35 443 0
2021-01-26 03:45:33 GMT 42.713104 -7.783252 36,000 35 443 0
2021-01-26 03:45:25 GMT 42.699234 -7.796610 36,000 35 443 0
2021-01-26 03:45:22 GMT 42.695618 -7.800101 36,000 35 443 0
2021-01-26 03:45:17 GMT 42.686588 -7.808724 36,000 35 443 0
2021-01-26 03:45:13 GMT 42.678905 -7.816134 36,000 35 443 0
2021-01-26 03:45:08 GMT 42.669800 -7.824825 36,000 35 443 0
2021-01-26 03:45:04 GMT 42.665031 -7.829420 36,000 35 443 0
2021-01-26 03:45:01 GMT 42.660736 -7.833502 36,000 35 443 0
2021-01-26 03:44:56 GMT 42.652325 -7.841619 36,000 35 443 0
2021-01-26 03:44:52 GMT 42.644596 -7.848965 36,000 35 443 0
2021-01-26 03:44:48 GMT 42.637241 -7.855991 36,000 35 443 0
2021-01-26 03:44:45 GMT 42.631989 -7.861092 36,000 35 443 0
2021-01-26 03:44:42 GMT 42.627823 -7.865087 36,000 35 443 0
2021-01-26 03:44:36 GMT 42.617828 -7.874578 36,000 35 443 0
2021-01-26 03:44:31 GMT 42.610332 -7.881796 36,000 35 443 0
2021-01-26 03:44:26 GMT 42.600979 -7.890739 36,000 35 443 0
2021-01-26 03:44:22 GMT 42.594086 -7.897318 36,000 35 442 0
2021-01-26 03:44:15 GMT 42.583328 -7.907597 36,000 35 442 0
2021-01-26 03:44:11 GMT 42.576782 -7.913839 36,000 35 442 64
2021-01-26 03:44:05 GMT 42.567261 -7.922953 36,000 35 441 0
2021-01-26 03:44:01 GMT 42.559250 -7.930631 36,000 35 441 0
2021-01-26 03:43:55 GMT 42.549866 -7.939557 36,000 35 441 0
2021-01-26 03:43:51 GMT 42.542648 -7.946501 36,000 35 441 -64
2021-01-26 03:43:45 GMT 42.532780 -7.955890 36,000 35 441 0
2021-01-26 03:43:41 GMT 42.525833 -7.962466 36,000 35 441 0
2021-01-26 03:43:33 GMT 42.512650 -7.975013 36,000 35 441 0
2021-01-26 03:43:30 GMT 42.508385 -7.979076 36,000 35 441 0
2021-01-26 03:43:26 GMT 42.500565 -7.986550 36,000 35 441 0
2021-01-26 03:43:22 GMT 42.494560 -7.992298 36,000 35 441 0
2021-01-26 03:43:19 GMT 42.487976 -7.998546 36,000 35 441 -64
2021-01-26 03:43:13 GMT 42.478870 -8.007245 36,000 35 441 0
2021-01-26 03:43:10 GMT 42.474682 -8.011205 36,000 35 441 0
2021-01-26 03:43:05 GMT 42.465324 -8.020083 36,000 35 441 0
2021-01-26 03:43:00 GMT 42.457901 -8.027136 36,000 35 441 0
2021-01-26 03:42:55 GMT 42.448799 -8.035796 36,000 35 441 0
2021-01-26 03:42:52 GMT 42.444794 -8.039565 36,000 35 441 0
2021-01-26 03:42:49 GMT 42.440464 -8.043717 36,000 35 441 0
2021-01-26 03:42:42 GMT 42.428055 -8.055475 36,000 35 441 0
2021-01-26 03:42:39 GMT 42.423706 -8.059595 36,000 35 441 0
2021-01-26 03:42:34 GMT 42.414116 -8.068692 36,000 35 440 0
2021-01-26 03:42:30 GMT 42.406620 -8.075845 36,000 35 440 0
2021-01-26 03:42:26 GMT 42.401871 -8.080319 36,000 35 440 0
2021-01-26 03:42:23 GMT 42.397064 -8.084939 36,000 35 441 0
2021-01-26 03:42:19 GMT 42.389374 -8.092180 36,000 35 440 0
2021-01-26 03:42:13 GMT 42.379852 -8.101231 36,000 35 440 0
2021-01-26 03:42:09 GMT 42.373032 -8.107660 36,000 35 441 64
2021-01-26 03:42:02 GMT 42.359928 -8.120110 36,000 35 441 0
2021-01-26 03:41:59 GMT 42.355415 -8.124326 36,000 35 440 0
2021-01-26 03:41:56 GMT 42.350758 -8.128797 36,000 35 441 0
2021-01-26 03:41:53 GMT 42.346664 -8.132692 36,000 35 441 0
2021-01-26 03:41:49 GMT 42.338886 -8.140039 36,000 35 440 0
2021-01-26 03:41:46 GMT 42.333984 -8.144677 36,000 35 440 0
2021-01-26 03:41:41 GMT 42.326294 -8.151918 36,000 35 440 0
2021-01-26 03:41:38 GMT 42.322037 -8.155943 36,000 35 441 0
2021-01-26 03:41:33 GMT 42.312607 -8.164902 36,000 35 440 0
2021-01-26 03:41:29 GMT 42.304733 -8.172268 36,000 35 440 0
2021-01-26 03:41:23 GMT 42.295074 -8.181444 36,000 35 440 0
2021-01-26 03:41:18 GMT 42.287247 -8.188809 36,000 35 440 0
2021-01-26 03:41:12 GMT 42.277908 -8.197673 36,000 35 440 0
2021-01-26 03:41:08 GMT 42.270584 -8.204602 36,000 35 440 0
2021-01-26 03:41:04 GMT 42.264725 -8.210095 36,000 35 440 0
2021-01-26 03:41:01 GMT 42.257980 -8.216496 36,000 35 440 0
2021-01-26 03:40:58 GMT 42.253738 -8.220520 36,000 35 440 0
2021-01-26 03:40:54 GMT 42.247925 -8.226013 36,000 35 440 0
2021-01-26 03:40:51 GMT 42.241966 -8.231570 36,000 35 440 0
2021-01-26 03:40:48 GMT 42.237213 -8.236063 36,000 35 440 0
2021-01-26 03:40:41 GMT 42.225540 -8.247112 36,000 35 440 0
2021-01-26 03:40:38 GMT 42.220459 -8.251882 36,000 35 440 0
2021-01-26 03:40:32 GMT 42.210388 -8.261407 36,000 35 440 0
2021-01-26 03:40:28 GMT 42.202816 -8.268553 36,000 35 440 0
2021-01-26 03:40:25 GMT 42.196812 -8.274174 36,000 35 440 0
2021-01-26 03:40:21 GMT 42.193317 -8.277496 36,000 34 440 0
2021-01-26 03:40:17 GMT 42.185532 -8.284753 36,000 34 440 0
2021-01-26 03:40:14 GMT 42.181046 -8.288997 36,000 34 440 0
2021-01-26 03:40:10 GMT 42.173626 -8.295955 36,000 34 440 0
2021-01-26 03:40:07 GMT 42.169437 -8.299915 36,000 34 440 0
2021-01-26 03:40:02 GMT 42.158962 -8.309752 36,000 34 439 0
2021-01-26 03:39:58 GMT 42.154308 -8.314159 36,000 34 439 0
2021-01-26 03:39:54 GMT 42.147583 -8.320458 36,000 34 439 0
2021-01-26 03:39:50 GMT 42.139069 -8.328448 36,000 34 439 0
2021-01-26 03:39:47 GMT 42.136734 -8.330633 36,000 34 439 0
2021-01-26 03:39:44 GMT 42.128658 -8.338240 36,000 34 439 0
2021-01-26 03:39:41 GMT 42.124924 -8.341744 36,000 34 438 0
2021-01-26 03:39:37 GMT 42.118423 -8.347862 36,000 34 439 0
2021-01-26 03:39:32 GMT 42.110687 -8.355103 36,000 34 438 0
2021-01-26 03:39:29 GMT 42.105469 -8.360034 36,000 34 438 0
2021-01-26 03:39:26 GMT 42.101379 -8.363853 36,000 34 438 0
2021-01-26 03:39:23 GMT 42.095234 -8.369602 36,000 34 438 0
2021-01-26 03:39:19 GMT 42.088303 -8.376076 36,000 34 438 0
2021-01-26 03:39:16 GMT 42.084641 -8.379510 36,000 34 438 0
2021-01-26 03:39:13 GMT 42.078003 -8.385752 36,000 34 438 0
2021-01-26 03:39:09 GMT 42.071587 -8.391702 36,000 34 438 0
2021-01-26 03:39:05 GMT 42.066605 -8.396365 36,000 34 438 0
2021-01-26 03:39:02 GMT 42.061661 -8.400983 36,000 34 438 0
2021-01-26 03:38:58 GMT 42.055023 -8.407225 36,000 34 438 0
2021-01-26 03:38:55 GMT 42.050034 -8.411844 36,000 34 438 0
2021-01-26 03:38:52 GMT 42.044174 -8.417275 36,000 34 438 0
2021-01-26 03:38:48 GMT 42.037460 -8.423575 36,000 34 438 0
2021-01-26 03:38:45 GMT 42.033188 -8.427512 36,000 34 438 0
2021-01-26 03:38:40 GMT 42.024216 -8.435877 36,000 34 438 0
2021-01-26 03:38:36 GMT 42.016205 -8.443305 36,000 34 438 0
2021-01-26 03:38:31 GMT 42.009201 -8.449735 36,000 34 437 0
2021-01-26 03:38:28 GMT 42.003757 -8.454746 36,000 34 437 0
2021-01-26 03:38:25 GMT 41.999428 -8.458770 36,000 34 437 0
2021-01-26 03:38:21 GMT 41.993099 -8.464583 36,000 34 437 0
2021-01-26 03:38:18 GMT 41.986256 -8.470842 36,000 34 437 0
2021-01-26 03:38:15 GMT 41.982147 -8.474641 36,000 34 437 0
2021-01-26 03:38:08 GMT 41.970009 -8.485661 36,000 34 437 0
2021-01-26 03:38:05 GMT 41.965679 -8.489621 36,000 34 437 0
2021-01-26 03:38:01 GMT 41.958755 -8.495990 36,000 34 437 0
2021-01-26 03:37:57 GMT 41.952831 -8.501374 36,000 34 436 0
2021-01-26 03:37:54 GMT 41.948456 -8.505334 36,000 34 436 0
2021-01-26 03:37:49 GMT 41.938633 -8.514340 36,000 34 437 0
2021-01-26 03:37:45 GMT 41.931976 -8.520536 36,000 34 438 0
2021-01-26 03:37:39 GMT 41.922089 -8.529760 36,000 35 438 0
2021-01-26 03:37:35 GMT 41.914810 -8.536627 36,000 35 438 0
2021-01-26 03:37:27 GMT 41.902451 -8.548424 36,000 34 437 0
2021-01-26 03:37:24 GMT 41.897644 -8.552919 36,000 34 437 0
2021-01-26 03:37:21 GMT 41.893433 -8.556789 36,000 33 436 0
2021-01-26 03:37:18 GMT 41.888496 -8.561224 36,000 21 425 0
2021-01-26 03:37:14 GMT 41.880478 -8.568150 36,000 32 434 0
2021-01-26 03:37:11 GMT 41.875973 -8.571955 36,000 31 434 0
2021-01-26 03:37:07 GMT 41.868851 -8.577763 36,000 30 434 0
2021-01-26 03:37:04 GMT 41.863590 -8.581919 36,000 30 433 0
2021-01-26 03:36:59 GMT 41.849903 -8.592458 36,000 29 432 0
2021-01-26 03:36:56 GMT 41.849903 -8.592458 36,000 28 431 0
2021-01-26 03:36:53 GMT 41.845715 -8.595524 36,000 28 431 0
2021-01-26 03:36:50 GMT 41.837612 -8.601273 36,000 27 430 0
2021-01-26 03:36:47 GMT 41.831680 -8.605354 36,000 26 429 0
2021-01-26 03:36:44 GMT 41.828026 -8.607788 36,000 25 429 0
2021-01-26 03:36:41 GMT 41.824486 -8.610088 36,000 25 428 0
2021-01-26 03:36:38 GMT 41.818130 -8.614093 36,000 24 427 0
2021-01-26 03:36:35 GMT 41.813782 -8.616714 36,000 23 426 0
2021-01-26 03:36:31 GMT 41.805634 -8.621396 36,000 22 425 0
2021-01-26 03:36:28 GMT 41.799347 -8.624779 36,000 21 425 0
2021-01-26 03:36:25 GMT 41.795792 -8.626702 36,000 21 425 0
2021-01-26 03:36:22 GMT 41.790035 -8.629761 36,000 21 425 0
2021-01-26 03:36:19 GMT 41.782589 -8.633721 36,000 21 425 0
2021-01-26 03:36:16 GMT 41.776978 -8.636690 36,000 21 425 0
2021-01-26 03:36:13 GMT 41.772400 -8.639124 36,000 21 425 -64
2021-01-26 03:36:10 GMT 41.766953 -8.641996 36,000 21 425 -64
2021-01-26 03:36:06 GMT 41.758427 -8.646496 36,000 21 425 0
2021-01-26 03:36:03 GMT 41.753265 -8.649299 36,000 21 425 0
2021-01-26 03:35:59 GMT 41.745113 -8.653586 36,000 21 425 0
2021-01-26 03:35:55 GMT 41.739532 -8.656540 36,000 21 424 0
2021-01-26 03:35:51 GMT 41.733055 -8.659973 36,000 21 425 -64
2021-01-26 03:35:48 GMT 41.727379 -8.662911 36,000 21 424 64
2021-01-26 03:35:45 GMT 41.720814 -8.666424 36,000 21 424 64
2021-01-26 03:35:41 GMT 41.714722 -8.669649 36,000 21 424 0
2021-01-26 03:35:38 GMT 41.708385 -8.672940 36,000 21 424 0
2021-01-26 03:35:35 GMT 41.702637 -8.676016 36,000 21 424 128
2021-01-26 03:35:30 GMT 41.693710 -8.680697 36,000 21 424 -64
2021-01-26 03:35:25 GMT 41.682587 -8.686627 36,000 21 424 64
2021-01-26 03:35:20 GMT 41.676361 -8.689873 36,000 21 423 -64
2021-01-26 03:35:17 GMT 41.668816 -8.693890 36,000 21 423 64
2021-01-26 03:35:11 GMT 41.659424 -8.698800 36,000 21 423 0
2021-01-26 03:35:08 GMT 41.646378 -8.705643 36,000 21 423 0
2021-01-26 03:35:04 GMT 41.646378 -8.705643 36,000 21 423 0
2021-01-26 03:35:00 GMT 41.639374 -8.709349 36,000 21 423 0
2021-01-26 03:34:57 GMT 41.633854 -8.712286 36,000 21 423 0
2021-01-26 03:34:54 GMT 41.628113 -8.715279 36,000 21 423 0
2021-01-26 03:34:51 GMT 41.623100 -8.717907 36,000 21 423 0
2021-01-26 03:34:48 GMT 41.617905 -8.720648 36,000 21 423 -64
2021-01-26 03:34:45 GMT 41.613373 -8.723082 36,000 21 423 -64
2021-01-26 03:34:41 GMT 41.604080 -8.727951 36,000 21 422 0
2021-01-26 03:34:36 GMT 41.595261 -8.732598 36,000 21 422 0
2021-01-26 03:34:33 GMT 41.588791 -8.735941 36,000 21 422 0
2021-01-26 03:34:30 GMT 41.585907 -8.737502 36,000 21 422 0
2021-01-26 03:34:25 GMT 41.567184 -8.747364 36,000 21 422 64
2021-01-26 03:34:20 GMT 41.567184 -8.747364 36,000 21 422 64
2021-01-26 03:34:16 GMT 41.557892 -8.752233 36,000 21 422 -64
2021-01-26 03:34:13 GMT 41.553360 -8.754605 36,000 21 422 -64
2021-01-26 03:34:10 GMT 41.548599 -8.757102 36,000 21 423 64
2021-01-26 03:34:05 GMT 41.539536 -8.761846 36,000 21 422 -64
2021-01-26 03:34:02 GMT 41.533070 -8.765237 36,000 21 423 0
2021-01-26 03:33:59 GMT 41.529438 -8.767154 36,000 21 422 64
2021-01-26 03:33:55 GMT 41.521133 -8.771459 36,000 21 422 -128
2021-01-26 03:33:51 GMT 41.512436 -8.776016 36,000 21 423 64
2021-01-26 03:33:48 GMT 41.506622 -8.779075 36,000 21 422 -64
2021-01-26 03:33:45 GMT 41.502159 -8.781398 36,000 21 422 -128
2021-01-26 03:33:42 GMT 41.496712 -8.784272 36,000 21 423 64
2021-01-26 03:33:39 GMT 41.492798 -8.786316 36,000 21 422 128
2021-01-26 03:33:35 GMT 41.482956 -8.791497 36,000 21 423 0
2021-01-26 03:33:32 GMT 41.479210 -8.793406 36,000 21 423 -192
2021-01-26 03:33:29 GMT 41.473763 -8.796280 36,000 21 423 128
2021-01-26 03:33:25 GMT 41.464371 -8.801172 36,000 21 423 -64
2021-01-26 03:33:20 GMT 41.452011 -8.807664 36,000 21 423 -128
2021-01-26 03:33:17 GMT 41.452011 -8.807664 36,000 21 423 -128
2021-01-26 03:33:14 GMT 41.446381 -8.810661 36,000 21 423 256
2021-01-26 03:33:10 GMT 41.437637 -8.815217 36,000 21 423 -256
2021-01-26 03:33:06 GMT 41.432423 -8.817934 36,000 21 423 192
2021-01-26 03:33:03 GMT 41.426880 -8.820835 36,000 21 423 192
2021-01-26 03:32:58 GMT 41.417480 -8.825726 36,000 21 423 -192
2021-01-26 03:32:54 GMT 41.409660 -8.829878 36,000 21 423 -64
2021-01-26 03:32:50 GMT 41.402115 -8.833819 36,000 21 423 -128
2021-01-26 03:32:47 GMT 41.391598 -8.839267 36,000 21 423 64
2021-01-26 03:32:44 GMT 41.391598 -8.839267 36,000 21 423 64
2021-01-26 03:32:39 GMT 41.382332 -8.844119 36,000 21 424 0
2021-01-26 03:32:36 GMT 41.377853 -8.846436 36,000 21 424 192
2021-01-26 03:32:33 GMT 41.370461 -8.850299 36,000 21 424 -128
2021-01-26 03:32:30 GMT 41.365082 -8.853149 36,000 21 424 64
2021-01-26 03:32:27 GMT 41.358856 -8.856384 36,000 21 424 0
2021-01-26 03:32:23 GMT 41.352215 -8.859849 36,000 21 424 0
2021-01-26 03:32:19 GMT 41.344986 -8.863647 36,000 21 424 0
2021-01-26 03:32:16 GMT 41.341324 -8.865540 36,000 21 425 0
2021-01-26 03:32:11 GMT 41.332352 -8.870178 36,000 21 425 64
2021-01-26 03:32:06 GMT 41.323116 -8.875018 36,000 21 425 64
2021-01-26 03:32:02 GMT 41.315506 -8.878967 36,000 21 425 0
2021-01-26 03:31:59 GMT 41.303650 -8.885193 36,000 21 425 64
2021-01-26 03:31:56 GMT 41.303650 -8.885193 36,000 21 425 0
2021-01-26 03:31:53 GMT 41.298958 -8.887627 36,000 21 425 -64
2021-01-26 03:31:48 GMT 41.288818 -8.892944 36,000 21 425 0
2021-01-26 03:31:45 GMT 41.284340 -8.895243 36,000 21 425 -192
2021-01-26 03:31:42 GMT 41.272423 -8.901485 36,000 21 425 -192
2021-01-26 03:31:39 GMT 41.272423 -8.901485 36,000 21 425 -64
2021-01-26 03:31:36 GMT 41.266975 -8.904294 36,000 21 425 0
2021-01-26 03:31:33 GMT 41.261482 -8.907166 36,000 21 425 -64
2021-01-26 03:31:29 GMT 41.255722 -8.910156 36,000 21 425 0
2021-01-26 03:31:26 GMT 41.248634 -8.913845 36,000 21 425 0
2021-01-26 03:31:22 GMT 41.241325 -8.917652 36,000 21 425 0
2021-01-26 03:31:18 GMT 41.233646 -8.921585 36,000 21 425 64
2021-01-26 03:31:15 GMT 41.230015 -8.923520 36,000 21 425 0
2021-01-26 03:31:12 GMT 41.222946 -8.927185 36,000 21 425 0
2021-01-26 03:31:09 GMT 41.217537 -8.929950 36,000 21 425 0
2021-01-26 03:31:05 GMT 41.211906 -8.932884 36,000 21 425 0
2021-01-26 03:31:02 GMT 41.205666 -8.936129 36,000 21 424 0
2021-01-26 03:30:58 GMT 41.193146 -8.942627 36,000 21 424 -64
2021-01-26 03:30:55 GMT 41.193146 -8.942627 36,000 21 424 0
2021-01-26 03:30:52 GMT 41.186737 -8.945923 36,000 21 424 0
2021-01-26 03:30:48 GMT 41.180992 -8.948926 36,000 21 424 0
2021-01-26 03:30:45 GMT 41.174198 -8.952422 36,000 21 424 0
2021-01-26 03:30:41 GMT 41.167446 -8.955917 36,000 21 424 0
2021-01-26 03:30:38 GMT 41.160885 -8.959351 36,000 21 424 0
2021-01-26 03:30:35 GMT 41.155949 -8.961910 36,000 21 424 0
2021-01-26 03:30:31 GMT 41.149612 -8.965210 36,000 21 424 0
2021-01-26 03:30:28 GMT 41.143147 -8.968589 36,000 21 424 0
2021-01-26 03:30:25 GMT 41.137756 -8.971375 36,000 21 425 0
2021-01-26 03:30:22 GMT 41.131165 -8.974792 36,000 21 425 64
2021-01-26 03:30:18 GMT 41.118473 -8.981323 36,000 21 425 0
2021-01-26 03:30:14 GMT 41.118473 -8.981323 36,000 21 425 0
2021-01-26 03:30:10 GMT 41.111206 -8.985107 36,000 21 425 0
2021-01-26 03:30:07 GMT 41.103928 -8.988892 36,000 21 425 0
2021-01-26 03:30:04 GMT 41.099434 -8.991186 36,000 21 424 0
2021-01-26 03:30:01 GMT 41.094040 -8.993958 36,000 21 425 64
2021-01-26 03:29:57 GMT 41.084702 -8.998779 36,000 21 425 0
2021-01-26 03:29:54 GMT 41.080769 -9.000799 36,000 21 425 -64
2021-01-26 03:29:51 GMT 41.075180 -9.003723 36,000 21 424 0
2021-01-26 03:29:46 GMT 41.066151 -9.008352 36,000 21 424 0
2021-01-26 03:29:43 GMT 41.062286 -9.010350 36,000 21 424 0
2021-01-26 03:29:40 GMT 41.054092 -9.014594 36,000 21 424 64
2021-01-26 03:29:36 GMT 41.047211 -9.018188 36,000 21 424 -64
2021-01-26 03:29:33 GMT 41.043480 -9.020088 36,000 21 424 -64
2021-01-26 03:29:28 GMT 41.032242 -9.025879 36,000 21 424 0
2021-01-26 03:29:25 GMT 41.026749 -9.028748 36,000 21 424 0
2021-01-26 03:29:21 GMT 41.019058 -9.032715 36,000 21 425 0
2021-01-26 03:29:16 GMT 41.011002 -9.036865 36,000 21 425 0
2021-01-26 03:29:13 GMT 41.005692 -9.039612 36,000 21 425 0
2021-01-26 03:29:10 GMT 41.000652 -9.042185 36,000 21 425 0
2021-01-26 03:29:07 GMT 40.995255 -9.044983 36,000 21 425 0
2021-01-26 03:29:04 GMT 40.989212 -9.048096 36,000 21 425 0
2021-01-26 03:29:00 GMT 40.981888 -9.051880 36,000 21 426 0
2021-01-26 03:28:57 GMT 40.977127 -9.054321 36,000 21 426 0
2021-01-26 03:28:54 GMT 40.970901 -9.057556 36,000 21 426 0
2021-01-26 03:28:50 GMT 40.963081 -9.061598 36,000 21 426 0
2021-01-26 03:28:47 GMT 40.957489 -9.064453 36,000 21 426 0
2021-01-26 03:28:44 GMT 40.952793 -9.066904 36,000 21 426 0
2021-01-26 03:28:41 GMT 40.947006 -9.069824 36,000 21 427 0
2021-01-26 03:28:37 GMT 40.940132 -9.073396 36,000 21 427 0
2021-01-26 03:28:33 GMT 40.933475 -9.076829 36,000 21 427 0
2021-01-26 03:28:30 GMT 40.927872 -9.079712 36,000 21 427 0
2021-01-26 03:28:27 GMT 40.920868 -9.083313 36,000 21 428 0
2021-01-26 03:28:23 GMT 40.915276 -9.086193 36,000 21 428 0
2021-01-26 03:28:20 GMT 40.907227 -9.090271 36,000 21 428 0
2021-01-26 03:28:17 GMT 40.902519 -9.092685 36,000 21 428 0
2021-01-26 03:28:13 GMT 40.895908 -9.096118 36,000 21 428 0
2021-01-26 03:28:09 GMT 40.888779 -9.099792 36,000 21 429 0
2021-01-26 03:28:06 GMT 40.883972 -9.102234 36,000 21 429 0
2021-01-26 03:28:03 GMT 40.877518 -9.105591 36,000 21 429 64
2021-01-26 03:27:59 GMT 40.870213 -9.109351 36,000 21 430 0
2021-01-26 03:27:56 GMT 40.863785 -9.112610 36,000 21 430 -64
2021-01-26 03:27:53 GMT 40.858341 -9.115406 36,000 21 430 -64
2021-01-26 03:27:50 GMT 40.854431 -9.117404 36,000 21 430 0
2021-01-26 03:27:47 GMT 40.846657 -9.121461 36,000 21 430 0
2021-01-26 03:27:43 GMT 40.839951 -9.124832 36,000 21 430 0
2021-01-26 03:27:39 GMT 40.831993 -9.128952 36,000 21 430 0
2021-01-26 03:27:33 GMT 40.821487 -9.134338 36,000 21 430 0
2021-01-26 03:27:29 GMT 40.814255 -9.138062 36,000 21 430 0
2021-01-26 03:27:26 GMT 40.809082 -9.140686 36,000 21 430 64
2021-01-26 03:27:22 GMT 40.802170 -9.144226 36,000 21 430 0
2021-01-26 03:27:19 GMT 40.794472 -9.148178 36,000 21 431 0
2021-01-26 03:27:16 GMT 40.790047 -9.150488 36,000 21 431 0
2021-01-26 03:27:12 GMT 40.783157 -9.153983 36,000 21 430 0
2021-01-26 03:27:08 GMT 40.775116 -9.158081 36,000 21 430 0
2021-01-26 03:27:03 GMT 40.764725 -9.163452 36,000 21 430 0
2021-01-26 03:26:59 GMT 40.757263 -9.167236 36,000 21 430 0
2021-01-26 03:26:56 GMT 40.753006 -9.169434 36,000 21 430 0
2021-01-26 03:26:52 GMT 40.745499 -9.173272 36,000 21 430 0
2021-01-26 03:26:48 GMT 40.737911 -9.177142 36,000 21 430 0
2021-01-26 03:26:45 GMT 40.732697 -9.179826 36,000 21 430 0
2021-01-26 03:26:42 GMT 40.727345 -9.182573 36,000 21 430 0
2021-01-26 03:26:38 GMT 40.718903 -9.186890 36,000 21 430 0
2021-01-26 03:26:32 GMT 40.708397 -9.192186 36,000 21 430 0
2021-01-26 03:26:28 GMT 40.700436 -9.196306 36,000 21 430 0
2021-01-26 03:26:22 GMT 40.690056 -9.201612 36,000 21 430 0
2021-01-26 03:26:18 GMT 40.681908 -9.205731 36,000 21 430 0
2021-01-26 03:26:15 GMT 40.677338 -9.208069 36,000 21 429 0
2021-01-26 03:26:12 GMT 40.671021 -9.211243 36,000 21 429 0
2021-01-26 03:26:08 GMT 40.663521 -9.215095 36,000 21 429 0
2021-01-26 03:26:05 GMT 40.658913 -9.217467 36,000 21 430 0
2021-01-26 03:26:02 GMT 40.651649 -9.221150 36,000 21 429 0
2021-01-26 03:25:58 GMT 40.640259 -9.226929 36,000 21 429 0
2021-01-26 03:25:55 GMT 40.640259 -9.226929 36,000 21 430 0
2021-01-26 03:25:51 GMT 40.632111 -9.231079 36,000 21 430 0
2021-01-26 03:25:48 GMT 40.621353 -9.236572 36,000 21 430 0
2021-01-26 03:25:45 GMT 40.621353 -9.236572 36,000 21 430 0
2021-01-26 03:25:41 GMT 40.613571 -9.240540 36,000 21 430 0
2021-01-26 03:25:37 GMT 40.605972 -9.244385 36,000 21 430 0
2021-01-26 03:25:34 GMT 40.601898 -9.246460 36,000 21 430 0
2021-01-26 03:25:31 GMT 40.594761 -9.250114 36,000 21 430 0
2021-01-26 03:25:26 GMT 40.587250 -9.253967 36,000 21 431 0
2021-01-26 03:25:23 GMT 40.581482 -9.256897 36,000 21 431 0
2021-01-26 03:25:20 GMT 40.576187 -9.259602 36,000 21 431 0
2021-01-26 03:25:16 GMT 40.566875 -9.264346 36,000 21 431 0
2021-01-26 03:25:11 GMT 40.556396 -9.269714 36,000 21 431 0
2021-01-26 03:25:08 GMT 40.552959 -9.271462 36,000 21 432 0
2021-01-26 03:25:05 GMT 40.547932 -9.274021 36,000 21 432 0
2021-01-26 03:25:00 GMT 40.536945 -9.279577 36,000 21 432 0
2021-01-26 03:24:56 GMT 40.529495 -9.283385 36,000 21 432 0
2021-01-26 03:24:49 GMT 40.518089 -9.289128 36,000 21 432 64
2021-01-26 03:24:45 GMT 40.510941 -9.292786 36,000 21 432 0
2021-01-26 03:24:39 GMT 40.499588 -9.298523 36,000 21 432 0
2021-01-26 03:24:35 GMT 40.491531 -9.302612 36,000 21 432 0
2021-01-26 03:24:31 GMT 40.483337 -9.306824 36,000 21 432 0
2021-01-26 03:24:28 GMT 40.477753 -9.309631 36,000 21 432 0
2021-01-26 03:24:25 GMT 40.472900 -9.312134 36,000 21 432 0
2021-01-26 03:24:22 GMT 40.466034 -9.315613 36,000 21 432 0
2021-01-26 03:24:19 GMT 40.458939 -9.319214 36,000 21 432 0
2021-01-26 03:24:15 GMT 40.453476 -9.321962 36,000 21 432 0
2021-01-26 03:24:12 GMT 40.448448 -9.324521 36,000 21 432 0
2021-01-26 03:24:09 GMT 40.442490 -9.327580 36,000 21 432 0
2021-01-26 03:24:05 GMT 40.435226 -9.331200 36,000 21 432 0
2021-01-26 03:24:02 GMT 40.430649 -9.333557 36,000 21 432 0
2021-01-26 03:23:59 GMT 40.423866 -9.336943 36,000 21 432 0
2021-01-26 03:23:56 GMT 40.418335 -9.339722 36,000 21 432 0
2021-01-26 03:23:53 GMT 40.412018 -9.342957 36,000 21 431 0
2021-01-26 03:23:50 GMT 40.406250 -9.345886 36,000 21 431 0
2021-01-26 03:23:47 GMT 40.401524 -9.348242 36,000 21 431 0
2021-01-26 03:23:44 GMT 40.396870 -9.350614 36,000 21 432 0
2021-01-26 03:23:40 GMT 40.388626 -9.354734 36,000 21 431 0
2021-01-26 03:23:37 GMT 40.383362 -9.357422 36,000 21 431 0
2021-01-26 03:23:34 GMT 40.377502 -9.360414 36,000 21 431 0
2021-01-26 03:23:30 GMT 40.369682 -9.364347 36,000 21 431 0
2021-01-26 03:23:27 GMT 40.365509 -9.366455 36,000 21 431 0
2021-01-26 03:23:24 GMT 40.358883 -9.369777 36,000 21 431 0
2021-01-26 03:23:19 GMT 40.349121 -9.374756 36,000 21 430 0
2021-01-26 03:23:16 GMT 40.345520 -9.376581 36,000 21 430 0
2021-01-26 03:23:13 GMT 40.339935 -9.379390 36,000 21 431 0
2021-01-26 03:23:09 GMT 40.330997 -9.383885 36,000 21 431 0
2021-01-26 03:23:06 GMT 40.326157 -9.386319 36,000 21 431 0
2021-01-26 03:23:02 GMT 40.318520 -9.390189 36,000 21 431 0
2021-01-26 03:22:59 GMT 40.310886 -9.394060 36,000 21 431 0
2021-01-26 03:22:56 GMT 40.307098 -9.395935 36,000 21 431 0
2021-01-26 03:22:53 GMT 40.301514 -9.398804 36,000 21 431 0
2021-01-26 03:22:49 GMT 40.293385 -9.402861 36,000 21 432 0
2021-01-26 03:22:46 GMT 40.288540 -9.405296 36,000 21 432 0
2021-01-26 03:22:43 GMT 40.282883 -9.408142 36,000 21 432 0
2021-01-26 03:22:40 GMT 40.276520 -9.411377 36,000 21 432 0
2021-01-26 03:22:37 GMT 40.271118 -9.414062 36,000 21 432 0
2021-01-26 03:22:34 GMT 40.266148 -9.416594 36,000 21 433 0
2021-01-26 03:22:31 GMT 40.260563 -9.419403 36,000 21 433 0
2021-01-26 03:22:28 GMT 40.254501 -9.422485 36,000 21 433 0
2021-01-26 03:22:25 GMT 40.248184 -9.425659 36,000 21 433 0
2021-01-26 03:22:22 GMT 40.243286 -9.428101 36,000 21 433 0
2021-01-26 03:22:18 GMT 40.235752 -9.431888 36,000 21 433 0
2021-01-26 03:22:15 GMT 40.229931 -9.434821 36,000 21 434 0
2021-01-26 03:22:12 GMT 40.223972 -9.437818 36,000 21 434 0
2021-01-26 03:22:08 GMT 40.216106 -9.441813 36,000 21 434 0
2021-01-26 03:22:05 GMT 40.212334 -9.443685 36,000 21 434 0
2021-01-26 03:22:02 GMT 40.206253 -9.446716 36,000 21 434 0
2021-01-26 03:21:59 GMT 40.200371 -9.449678 36,000 21 434 0
2021-01-26 03:21:56 GMT 40.194855 -9.452454 36,000 21 434 0
2021-01-26 03:21:52 GMT 40.187431 -9.456232 36,000 21 434 0
2021-01-26 03:21:46 GMT 40.175419 -9.462225 36,000 21 434 0
2021-01-26 03:21:43 GMT 40.169601 -9.465159 36,000 21 434 0
2021-01-26 03:21:39 GMT 40.163036 -9.468467 36,000 21 434 0
2021-01-26 03:21:35 GMT 40.155441 -9.472290 36,000 21 434 0
2021-01-26 03:21:31 GMT 40.149033 -9.475464 36,000 21 434 0
2021-01-26 03:21:27 GMT 40.139759 -9.480140 36,000 21 436 0
2021-01-26 03:21:24 GMT 40.133942 -9.483074 36,000 21 436 0
2021-01-26 03:21:20 GMT 40.127243 -9.486389 36,000 21 436 0
2021-01-26 03:21:16 GMT 40.119789 -9.490128 36,000 21 436 0
2021-01-26 03:21:13 GMT 40.114059 -9.493042 36,000 21 436 0
2021-01-26 03:21:10 GMT 40.108246 -9.495911 36,000 21 436 0
2021-01-26 03:21:06 GMT 40.100609 -9.499741 36,000 21 437 0
2021-01-26 03:21:03 GMT 40.095245 -9.502441 36,000 21 437 0
2021-01-26 03:20:59 GMT 40.086830 -9.506669 36,000 21 437 0
2021-01-26 03:20:56 GMT 40.081833 -9.509155 36,000 21 437 0
2021-01-26 03:20:53 GMT 40.076202 -9.511963 36,000 21 437 0
2021-01-26 03:20:50 GMT 40.071377 -9.514410 36,000 21 437 0
2021-01-26 03:20:47 GMT 40.062485 -9.518842 36,000 21 437 0
2021-01-26 03:20:44 GMT 40.059219 -9.520508 36,000 21 437 0
2021-01-26 03:20:41 GMT 40.053638 -9.523274 36,000 21 437 0
2021-01-26 03:20:38 GMT 40.047684 -9.526245 36,000 21 437 0
2021-01-26 03:20:34 GMT 40.040909 -9.529663 36,000 21 437 0
2021-01-26 03:20:31 GMT 40.034737 -9.532762 36,000 21 437 0
2021-01-26 03:20:28 GMT 40.029190 -9.535522 36,000 21 437 0
2021-01-26 03:20:25 GMT 40.023052 -9.538567 36,000 20 438 0
2021-01-26 03:20:21 GMT 40.015778 -9.542236 36,000 20 438 0
2021-01-26 03:20:18 GMT 40.010468 -9.544861 36,000 20 438 0
2021-01-26 03:20:15 GMT 40.003780 -9.548243 36,000 20 438 0
2021-01-26 03:20:12 GMT 39.997238 -9.551514 36,000 20 438 0
2021-01-26 03:20:09 GMT 39.993168 -9.553549 36,000 20 438 0
2021-01-26 03:20:06 GMT 39.987301 -9.556420 36,000 20 438 0
2021-01-26 03:20:03 GMT 39.982315 -9.558960 36,000 20 438 0
2021-01-26 03:20:00 GMT 39.976360 -9.561913 36,000 20 438 0
2021-01-26 03:19:57 GMT 39.971615 -9.564285 36,000 20 438 0
2021-01-26 03:19:54 GMT 39.962219 -9.568909 36,000 20 438 0
2021-01-26 03:19:51 GMT 39.959511 -9.570278 36,000 20 438 0
2021-01-26 03:19:48 GMT 39.952854 -9.573586 36,000 20 438 0
2021-01-26 03:19:43 GMT 39.943497 -9.578247 36,000 20 438 0
2021-01-26 03:19:40 GMT 39.937721 -9.581139 36,000 20 439 0
2021-01-26 03:19:37 GMT 39.933243 -9.583374 36,000 20 439 0
2021-01-26 03:19:34 GMT 39.928345 -9.585815 36,000 20 438 0
2021-01-26 03:19:31 GMT 39.921707 -9.589094 36,000 20 439 0
2021-01-26 03:19:28 GMT 39.914074 -9.592957 36,000 20 438 0
2021-01-26 03:19:24 GMT 39.908581 -9.595642 36,000 20 438 0
2021-01-26 03:19:21 GMT 39.902901 -9.598511 36,000 20 438 0
2021-01-26 03:19:17 GMT 39.895313 -9.602234 36,000 20 438 0
2021-01-26 03:19:14 GMT 39.888519 -9.605652 36,000 20 438 0
2021-01-26 03:19:11 GMT 39.883850 -9.607962 36,000 20 438 0
2021-01-26 03:19:07 GMT 39.876369 -9.611694 36,000 20 438 0
2021-01-26 03:19:04 GMT 39.870438 -9.614709 36,000 20 438 0
2021-01-26 03:19:01 GMT 39.863617 -9.618053 36,000 20 438 0
2021-01-26 03:18:57 GMT 39.856979 -9.621396 36,000 20 439 0
2021-01-26 03:18:54 GMT 39.850857 -9.624451 36,000 20 439 0
2021-01-26 03:18:50 GMT 39.838257 -9.630711 36,000 20 439 0
2021-01-26 03:18:47 GMT 39.838257 -9.630711 36,000 20 439 0
2021-01-26 03:18:43 GMT 39.831619 -9.633995 36,000 20 439 0
2021-01-26 03:18:40 GMT 39.825531 -9.636980 36,000 20 439 0
2021-01-26 03:18:37 GMT 39.818710 -9.640384 36,000 20 439 0
2021-01-26 03:18:34 GMT 39.812359 -9.643494 36,000 20 438 0
2021-01-26 03:18:30 GMT 39.806808 -9.646295 36,000 20 438 0
2021-01-26 03:18:27 GMT 39.799698 -9.649780 36,000 20 439 0
2021-01-26 03:18:23 GMT 39.792572 -9.653340 36,000 20 439 0
2021-01-26 03:18:19 GMT 39.784149 -9.657471 36,000 20 439 0
2021-01-26 03:18:16 GMT 39.779957 -9.659546 36,000 20 439 0
2021-01-26 03:18:12 GMT 39.772789 -9.663147 36,000 20 439 0
2021-01-26 03:18:09 GMT 39.764740 -9.667133 36,000 20 439 0
2021-01-26 03:18:06 GMT 39.760757 -9.669103 36,000 20 439 -64
2021-01-26 03:18:03 GMT 39.754074 -9.672387 36,000 20 439 0
2021-01-26 03:18:00 GMT 39.750027 -9.674438 36,000 20 439 0
2021-01-26 03:17:57 GMT 39.742126 -9.678358 36,000 20 439 0
2021-01-26 03:17:54 GMT 39.737129 -9.680847 36,000 20 439 0
2021-01-26 03:17:51 GMT 39.730179 -9.684269 36,000 21 439 64
2021-01-26 03:17:47 GMT 39.724319 -9.687195 36,000 21 440 0
2021-01-26 03:17:44 GMT 39.718231 -9.690180 36,000 21 440 0
2021-01-26 03:17:40 GMT 39.710690 -9.693909 36,000 20 439 0
2021-01-26 03:17:36 GMT 39.703217 -9.697644 36,000 20 440 -64
2021-01-26 03:17:31 GMT 39.693558 -9.702393 36,000 20 441 64
2021-01-26 03:17:28 GMT 39.688808 -9.704773 36,000 20 441 64
2021-01-26 03:17:24 GMT 39.678223 -9.710003 36,000 20 441 0
2021-01-26 03:17:20 GMT 39.671444 -9.713379 36,000 20 442 0
2021-01-26 03:17:15 GMT 39.664230 -9.716919 36,000 20 442 0
2021-01-26 03:17:12 GMT 39.657623 -9.720214 36,000 20 442 -64
2021-01-26 03:17:09 GMT 39.651672 -9.723139 36,000 20 442 0
2021-01-26 03:17:06 GMT 39.645840 -9.726013 36,025 20 443 0
2021-01-26 03:17:02 GMT 39.638393 -9.729736 36,000 21 443 0
2021-01-26 03:16:59 GMT 39.632481 -9.732666 36,000 21 443 128
2021-01-26 03:16:56 GMT 39.626450 -9.735618 36,000 20 444 64
2021-01-26 03:16:52 GMT 39.618652 -9.739502 36,000 20 444 -64
2021-01-26 03:16:49 GMT 39.612881 -9.742371 36,000 20 445 -64
2021-01-26 03:16:45 GMT 39.606552 -9.745483 36,000 20 445 0
2021-01-26 03:16:42 GMT 39.598755 -9.749291 36,000 20 445 0
2021-01-26 03:16:39 GMT 39.593842 -9.751709 36,000 20 446 0
2021-01-26 03:16:35 GMT 39.587093 -9.755066 36,000 20 446 0
2021-01-26 03:16:31 GMT 39.578888 -9.759084 36,000 20 446 0
2021-01-26 03:16:28 GMT 39.573219 -9.761902 36,000 20 447 0
2021-01-26 03:16:25 GMT 39.559799 -9.768518 36,000 20 447 0
2021-01-26 03:16:21 GMT 39.559799 -9.768518 36,000 20 447 0
2021-01-26 03:16:18 GMT 39.551880 -9.772399 36,000 20 447 -64
2021-01-26 03:16:14 GMT 39.547256 -9.774667 36,000 20 447 -64
2021-01-26 03:16:11 GMT 39.539795 -9.778320 36,000 20 447 0
2021-01-26 03:16:08 GMT 39.534485 -9.780937 36,000 20 447 0
2021-01-26 03:16:03 GMT 39.524460 -9.785893 36,000 20 447 0
2021-01-26 03:16:00 GMT 39.519684 -9.788208 36,000 20 447 0
2021-01-26 03:15:57 GMT 39.513912 -9.791077 36,000 20 447 64
2021-01-26 03:15:54 GMT 39.508095 -9.793945 36,000 20 447 64
2021-01-26 03:15:50 GMT 39.499947 -9.797974 36,000 20 448 -64
2021-01-26 03:15:47 GMT 39.494843 -9.800521 36,000 20 448 -64
2021-01-26 03:15:44 GMT 39.488617 -9.803566 36,000 20 448 0
2021-01-26 03:15:41 GMT 39.480881 -9.807388 36,000 20 448 64
2021-01-26 03:15:38 GMT 39.474575 -9.810486 36,000 20 448 0
2021-01-26 03:15:34 GMT 39.469547 -9.812988 36,000 20 448 0
2021-01-26 03:15:31 GMT 39.463806 -9.815747 36,000 20 448 0
2021-01-26 03:15:27 GMT 39.456142 -9.819519 36,000 20 448 0
2021-01-26 03:15:24 GMT 39.449345 -9.822876 36,000 20 448 0
2021-01-26 03:15:21 GMT 39.443756 -9.825623 36,000 20 448 0
2021-01-26 03:15:17 GMT 39.434631 -9.830078 36,000 20 448 0
2021-01-26 03:15:14 GMT 39.430721 -9.831970 36,000 20 449 0
2021-01-26 03:15:11 GMT 39.423843 -9.835391 36,000 20 449 -64
2021-01-26 03:15:08 GMT 39.417362 -9.838562 36,000 20 449 -64
2021-01-26 03:15:04 GMT 39.410660 -9.841839 36,000 20 449 0
2021-01-26 03:15:00 GMT 39.403770 -9.845215 36,000 20 449 64
2021-01-26 03:14:57 GMT 39.394459 -9.849792 36,000 20 449 0
2021-01-26 03:14:54 GMT 39.391155 -9.851440 36,000 20 449 0
2021-01-26 03:14:50 GMT 39.381004 -9.856384 36,000 20 449 0
2021-01-26 03:14:47 GMT 39.378120 -9.857788 36,000 20 450 0
2021-01-26 03:14:44 GMT 39.371201 -9.861185 36,000 20 449 0
2021-01-26 03:14:40 GMT 39.364380 -9.864528 36,000 20 450 0
2021-01-26 03:14:37 GMT 39.357971 -9.867633 36,000 20 450 0
2021-01-26 03:14:34 GMT 39.351864 -9.870667 36,000 20 450 0
2021-01-26 03:14:31 GMT 39.345020 -9.873962 36,000 20 450 0
2021-01-26 03:14:26 GMT 39.335106 -9.878845 36,000 20 450 0
2021-01-26 03:14:23 GMT 39.332108 -9.880291 36,000 20 450 0
2021-01-26 03:14:20 GMT 39.325058 -9.883755 36,000 20 450 0
2021-01-26 03:14:17 GMT 39.319511 -9.886475 36,000 20 450 0
2021-01-26 03:14:13 GMT 39.311829 -9.890203 36,000 20 451 0
2021-01-26 03:14:10 GMT 39.305450 -9.893311 36,000 20 451 0
2021-01-26 03:14:07 GMT 39.299149 -9.896413 36,000 20 451 0
2021-01-26 03:14:03 GMT 39.292416 -9.899719 36,000 20 452 0
2021-01-26 03:14:00 GMT 39.285202 -9.903259 36,000 20 452 0
2021-01-26 03:13:57 GMT 39.279522 -9.906006 36,000 20 452 0
2021-01-26 03:13:53 GMT 39.272186 -9.909608 36,000 20 452 0
2021-01-26 03:13:50 GMT 39.265320 -9.912952 36,000 20 453 0
2021-01-26 03:13:46 GMT 39.259548 -9.915771 36,000 20 453 0
2021-01-26 03:13:43 GMT 39.252289 -9.919312 36,000 20 453 0
2021-01-26 03:13:39 GMT 39.245026 -9.922852 36,000 20 454 0
2021-01-26 03:13:36 GMT 39.239719 -9.925476 36,000 20 454 0
2021-01-26 03:13:32 GMT 39.230873 -9.929810 36,000 20 455 0
2021-01-26 03:13:29 GMT 39.225449 -9.932477 36,000 20 455 0
2021-01-26 03:13:25 GMT 39.215324 -9.937378 36,000 20 455 0
2021-01-26 03:13:22 GMT 39.212345 -9.938843 36,000 20 455 0
2021-01-26 03:13:19 GMT 39.205765 -9.942030 36,000 20 455 0
2021-01-26 03:13:16 GMT 39.199631 -9.945015 36,000 20 456 0
2021-01-26 03:13:12 GMT 39.191940 -9.948777 36,000 20 456 0
2021-01-26 03:13:09 GMT 39.185806 -9.951762 36,000 20 456 0
2021-01-26 03:13:06 GMT 39.179901 -9.954628 36,000 20 456 0
2021-01-26 03:13:02 GMT 39.171894 -9.958557 36,000 20 457 -64
2021-01-26 03:12:59 GMT 39.165375 -9.961670 36,000 20 457 0
2021-01-26 03:12:56 GMT 39.160309 -9.964122 36,000 20 457 -64
2021-01-26 03:12:52 GMT 39.152248 -9.968018 36,000 20 458 0
2021-01-26 03:12:49 GMT 39.145126 -9.971497 36,000 20 458 -64
2021-01-26 03:12:45 GMT 39.139481 -9.974272 36,000 20 458 -64
2021-01-26 03:12:42 GMT 39.132416 -9.977661 36,000 20 458 0
2021-01-26 03:12:39 GMT 39.124084 -9.981750 36,025 20 458 0
2021-01-26 03:12:35 GMT 39.119148 -9.984192 36,000 20 460 64
2021-01-26 03:12:32 GMT 39.112167 -9.987610 36,000 20 459 0
2021-01-26 03:12:28 GMT 39.104691 -9.991230 36,000 20 459 0
2021-01-26 03:12:25 GMT 39.099335 -9.993857 36,000 20 460 0
2021-01-26 03:12:21 GMT 39.091450 -9.997681 36,000 20 460 0
2021-01-26 03:12:18 GMT 39.084412 -10.001081 36,000 20 460 0
2021-01-26 03:12:15 GMT 39.077904 -10.004272 36,000 20 461 0
2021-01-26 03:12:11 GMT 39.071045 -10.007590 36,000 20 461 0
2021-01-26 03:12:08 GMT 39.064270 -10.010933 36,000 20 461 0
2021-01-26 03:12:05 GMT 39.058353 -10.013794 36,000 20 460 64
2021-01-26 03:12:03 GMT 39.052998 -10.016357 36,000 20 460 64
2021-01-26 03:12:00 GMT 39.048996 -10.018311 36,000 20 460 64
2021-01-26 03:11:58 GMT 39.044312 -10.020606 36,000 20 460 64
2021-01-26 03:11:54 GMT 39.036613 -10.024353 36,000 20 460 0
2021-01-26 03:11:51 GMT 39.031128 -10.026995 36,000 20 460 0
2021-01-26 03:11:47 GMT 39.023483 -10.030701 36,000 20 460 0
2021-01-26 03:11:44 GMT 39.017899 -10.033386 36,000 20 460 0
2021-01-26 03:11:40 GMT 39.008789 -10.037802 36,000 20 459 0
2021-01-26 03:11:38 GMT 39.002838 -10.040728 36,000 20 459 0
2021-01-26 03:11:34 GMT 38.997665 -10.043235 36,000 20 459 0
2021-01-26 03:11:31 GMT 38.990200 -10.046814 36,000 20 459 0
2021-01-26 03:11:27 GMT 38.982845 -10.050354 36,000 20 458 0
2021-01-26 03:11:24 GMT 38.977982 -10.052729 36,000 20 459 -64
2021-01-26 03:11:21 GMT 38.970509 -10.056335 36,000 20 458 0
2021-01-26 03:11:17 GMT 38.962280 -10.060312 36,000 20 458 0
2021-01-26 03:11:14 GMT 38.957336 -10.062700 36,000 20 458 -64
2021-01-26 03:11:10 GMT 38.949467 -10.066528 36,000 20 458 0
2021-01-26 03:11:07 GMT 38.942532 -10.069885 36,000 20 458 0
2021-01-26 03:11:02 GMT 38.934803 -10.073608 36,000 20 458 0
2021-01-26 03:11:00 GMT 38.929733 -10.076075 36,000 20 458 -64
2021-01-26 03:10:55 GMT 38.917648 -10.081867 36,000 20 458 0
2021-01-26 03:10:52 GMT 38.914783 -10.083313 36,000 20 458 0
2021-01-26 03:10:50 GMT 38.910095 -10.085569 36,000 20 458 0
2021-01-26 03:10:47 GMT 38.902359 -10.089271 36,000 20 458 0
2021-01-26 03:10:43 GMT 38.895996 -10.092375 36,000 20 458 0
2021-01-26 03:10:40 GMT 38.889862 -10.095361 36,000 20 459 64
2021-01-26 03:10:36 GMT 38.882309 -10.099003 36,000 20 459 64
2021-01-26 03:10:32 GMT 38.871964 -10.103959 36,000 20 459 -64
2021-01-26 03:10:29 GMT 38.868805 -10.105511 36,000 20 459 -64
2021-01-26 03:10:26 GMT 38.861713 -10.108948 36,000 20 459 64
2021-01-26 03:10:23 GMT 38.855850 -10.111781 36,000 20 459 0
2021-01-26 03:10:20 GMT 38.849380 -10.114868 36,000 20 459 0
2021-01-26 03:10:16 GMT 38.842117 -10.118408 36,000 20 459 64
2021-01-26 03:10:13 GMT 38.836166 -10.121274 36,000 20 459 64
2021-01-26 03:10:11 GMT 38.832001 -10.123245 36,000 20 459 64
2021-01-26 03:10:08 GMT 38.824814 -10.126708 36,000 20 459 0
2021-01-26 03:10:05 GMT 38.820648 -10.128678 36,000 20 459 0
2021-01-26 03:10:02 GMT 38.814880 -10.131484 36,000 20 459 -64
2021-01-26 03:09:59 GMT 38.809017 -10.134277 36,000 20 459 0
2021-01-26 03:09:56 GMT 38.801926 -10.137694 36,000 20 459 0
2021-01-26 03:09:53 GMT 38.795792 -10.140620 36,000 20 458 0
2021-01-26 03:09:49 GMT 38.788349 -10.144226 36,000 20 458 0
2021-01-26 03:09:46 GMT 38.780319 -10.148083 36,000 20 458 0
2021-01-26 03:09:43 GMT 38.776012 -10.150146 36,000 20 458 0
2021-01-26 03:09:39 GMT 38.768417 -10.153815 36,000 20 458 0
2021-01-26 03:09:34 GMT 38.755810 -10.159851 36,000 20 457 -64
2021-01-26 03:09:31 GMT 38.751755 -10.161816 36,000 20 457 0
2021-01-26 03:09:28 GMT 38.746765 -10.164204 36,000 20 457 0
2021-01-26 03:09:25 GMT 38.740631 -10.167190 36,000 20 457 0
2021-01-26 03:09:22 GMT 38.735275 -10.169757 36,000 20 457 0
2021-01-26 03:09:18 GMT 38.727085 -10.173645 36,000 20 457 0
2021-01-26 03:09:15 GMT 38.719963 -10.177124 36,000 20 457 0
2021-01-26 03:09:12 GMT 38.714611 -10.179688 36,000 20 457 0
2021-01-26 03:09:08 GMT 38.705486 -10.184021 36,000 20 457 0
2021-01-26 03:09:04 GMT 38.699661 -10.186834 36,000 20 457 0
2021-01-26 03:09:01 GMT 38.691559 -10.190715 36,000 20 457 0
2021-01-26 03:08:58 GMT 38.686680 -10.193054 36,000 20 458 0
2021-01-26 03:08:53 GMT 38.677872 -10.197283 36,000 20 458 0
2021-01-26 03:08:50 GMT 38.671829 -10.200134 36,000 20 458 0
2021-01-26 03:08:47 GMT 38.665077 -10.203369 36,000 20 457 0
2021-01-26 03:08:43 GMT 38.651394 -10.209961 36,000 20 458 0
2021-01-26 03:08:40 GMT 38.651394 -10.209961 36,000 20 458 0
2021-01-26 03:08:37 GMT 38.644363 -10.213344 36,000 20 458 0
2021-01-26 03:08:34 GMT 38.639191 -10.215792 36,000 20 458 0
2021-01-26 03:08:30 GMT 38.631187 -10.219666 36,000 20 458 0
2021-01-26 03:08:27 GMT 38.623352 -10.223435 36,000 20 458 0
2021-01-26 03:08:24 GMT 38.619186 -10.225405 36,000 20 458 0
2021-01-26 03:08:21 GMT 38.614151 -10.227844 36,000 20 458 0
2021-01-26 03:08:17 GMT 38.604904 -10.232272 36,000 20 458 0
2021-01-26 03:08:13 GMT 38.597351 -10.235854 36,000 20 458 0
2021-01-26 03:08:09 GMT 38.589432 -10.239676 36,000 20 458 0
2021-01-26 03:08:06 GMT 38.584358 -10.242065 36,000 20 458 0
2021-01-26 03:08:03 GMT 38.578125 -10.245050 36,000 20 458 0
2021-01-26 03:08:00 GMT 38.571167 -10.248393 36,000 20 458 0
2021-01-26 03:07:56 GMT 38.565083 -10.251282 36,000 20 458 0
2021-01-26 03:07:52 GMT 38.554459 -10.256394 36,000 20 458 0
2021-01-26 03:07:49 GMT 38.548508 -10.259200 36,000 20 458 0
2021-01-26 03:07:46 GMT 38.543251 -10.261719 36,000 20 458 0
2021-01-26 03:07:41 GMT 38.533813 -10.266246 36,000 20 458 0
2021-01-26 03:07:38 GMT 38.528774 -10.268616 36,000 20 458 0
2021-01-26 03:07:33 GMT 38.518753 -10.273411 36,000 20 458 0
2021-01-26 03:07:29 GMT 38.511086 -10.277100 36,000 20 458 0
2021-01-26 03:07:25 GMT 38.502331 -10.281250 36,000 20 458 0
2021-01-26 03:07:22 GMT 38.491150 -10.286606 36,000 20 458 0
2021-01-26 03:07:19 GMT 38.491150 -10.286606 36,000 20 458 0
2021-01-26 03:07:15 GMT 38.480732 -10.291565 36,000 20 458 0
2021-01-26 03:07:12 GMT 38.477566 -10.293030 36,000 20 458 0
2021-01-26 03:07:09 GMT 38.470322 -10.296518 36,000 20 458 0
2021-01-26 03:07:05 GMT 38.463181 -10.299921 36,000 20 458 0
2021-01-26 03:07:02 GMT 38.457642 -10.302549 36,000 20 457 0
2021-01-26 03:06:59 GMT 38.450912 -10.305773 36,000 20 457 0
2021-01-26 03:06:55 GMT 38.442352 -10.309833 36,000 20 457 0
2021-01-26 03:06:51 GMT 38.435074 -10.313296 36,000 20 456 0
2021-01-26 03:06:48 GMT 38.427338 -10.316998 36,000 20 457 0
2021-01-26 03:06:45 GMT 38.423286 -10.318909 36,000 20 456 0
2021-01-26 03:06:42 GMT 38.417221 -10.321834 36,000 20 456 0
2021-01-26 03:06:39 GMT 38.410492 -10.325045 36,000 20 456 0
2021-01-26 03:06:35 GMT 38.402477 -10.328820 36,000 20 456 0
2021-01-26 03:06:32 GMT 38.397728 -10.331089 36,000 20 456 0
2021-01-26 03:06:29 GMT 38.390980 -10.334313 36,000 20 456 0
2021-01-26 03:06:26 GMT 38.385624 -10.336821 36,000 20 456 0
2021-01-26 03:06:22 GMT 38.377396 -10.340764 36,000 20 456 0
2021-01-26 03:06:18 GMT 38.369797 -10.344344 36,000 20 456 0
2021-01-26 03:06:15 GMT 38.364532 -10.346842 36,000 20 456 0
2021-01-26 03:06:12 GMT 38.357437 -10.350231 36,000 20 456 -64
2021-01-26 03:06:08 GMT 38.349407 -10.354017 36,000 20 456 0
2021-01-26 03:06:04 GMT 38.341187 -10.357945 36,000 20 456 0
2021-01-26 03:06:01 GMT 38.337116 -10.359869 36,000 20 456 0
2021-01-26 03:05:58 GMT 38.328041 -10.364168 36,000 20 455 0
2021-01-26 03:05:55 GMT 38.324875 -10.365660 36,000 20 455 0
2021-01-26 03:05:52 GMT 38.316776 -10.369541 36,000 20 455 0
2021-01-26 03:05:48 GMT 38.310745 -10.372379 36,000 20 455 0
2021-01-26 03:05:45 GMT 38.305206 -10.375009 36,000 20 455 0
2021-01-26 03:05:41 GMT 38.296326 -10.379217 36,000 20 455 0
2021-01-26 03:05:37 GMT 38.287811 -10.383249 36,000 20 455 0
2021-01-26 03:05:33 GMT 38.278519 -10.387690 36,000 20 455 0
2021-01-26 03:05:29 GMT 38.272690 -10.390439 36,000 20 455 0
2021-01-26 03:05:26 GMT 38.267258 -10.393008 36,000 20 456 0
2021-01-26 03:05:23 GMT 38.258633 -10.397067 36,000 20 456 0
2021-01-26 03:05:20 GMT 38.255882 -10.398380 36,000 20 456 0
2021-01-26 03:05:16 GMT 38.247177 -10.402500 36,000 20 456 0
2021-01-26 03:05:13 GMT 38.240242 -10.405784 36,000 20 456 0
2021-01-26 03:05:10 GMT 38.235992 -10.407793 36,000 20 456 0
2021-01-26 03:05:07 GMT 38.229954 -10.410680 36,000 20 456 0
2021-01-26 03:05:04 GMT 38.224686 -10.413169 36,000 20 456 0
2021-01-26 03:05:01 GMT 38.216267 -10.417129 36,000 20 456 0
2021-01-26 03:04:58 GMT 38.211227 -10.419539 36,000 20 456 0
2021-01-26 03:04:55 GMT 38.205978 -10.422025 36,000 20 456 0
2021-01-26 03:04:52 GMT 38.199738 -10.424974 36,000 20 457 0
2021-01-26 03:04:48 GMT 38.190216 -10.429473 36,000 20 457 0
2021-01-26 03:04:44 GMT 38.185043 -10.431928 36,000 20 457 0
2021-01-26 03:04:40 GMT 38.176231 -10.436056 36,000 20 457 0
2021-01-26 03:04:37 GMT 38.170277 -10.438922 36,000 20 457 0
2021-01-26 03:04:34 GMT 38.164131 -10.441788 36,000 20 457 0
2021-01-26 03:04:30 GMT 38.155289 -10.445953 36,000 20 457 0
2021-01-26 03:04:27 GMT 38.150444 -10.448237 36,000 20 457 0
2021-01-26 03:04:24 GMT 38.144485 -10.451043 36,000 20 457 0
2021-01-26 03:04:20 GMT 38.135651 -10.455244 36,000 20 457 0
2021-01-26 03:04:17 GMT 38.130478 -10.457699 36,000 20 458 0
2021-01-26 03:04:14 GMT 38.124001 -10.460716 36,000 20 458 0
2021-01-26 03:04:10 GMT 38.115482 -10.464776 36,000 20 458 64
2021-01-26 03:04:07 GMT 38.110313 -10.467224 36,000 20 458 0
2021-01-26 03:04:04 GMT 38.104248 -10.470088 36,000 20 458 -64
2021-01-26 03:04:00 GMT 38.095093 -10.474412 36,000 20 458 0
2021-01-26 03:03:56 GMT 38.089325 -10.477100 36,000 20 458 -64
2021-01-26 03:03:53 GMT 38.083828 -10.479703 36,000 20 458 0
2021-01-26 03:03:49 GMT 38.074402 -10.484171 36,000 20 458 0
2021-01-26 03:03:44 GMT 38.058178 -10.491764 36,000 20 458 0
2021-01-26 03:03:41 GMT 38.058178 -10.491764 36,000 20 459 0
2021-01-26 03:03:37 GMT 38.049423 -10.495944 36,000 20 459 0
2021-01-26 03:03:33 GMT 38.043549 -10.498664 36,000 20 459 0
2021-01-26 03:03:29 GMT 38.034164 -10.503105 36,000 20 459 64
2021-01-26 03:03:26 GMT 38.029266 -10.505378 36,000 20 459 64
2021-01-26 03:03:23 GMT 38.023590 -10.508072 36,000 20 460 -64
2021-01-26 03:03:20 GMT 38.016747 -10.511289 36,000 20 459 -64
2021-01-26 03:03:16 GMT 38.008438 -10.515202 36,000 20 460 64
2021-01-26 03:03:13 GMT 38.002853 -10.517831 36,000 20 459 64
2021-01-26 03:03:09 GMT 37.994213 -10.521857 36,000 20 459 -64
2021-01-26 03:03:06 GMT 37.989120 -10.524260 36,000 20 460 -64
2021-01-26 03:03:03 GMT 37.983044 -10.527112 36,000 20 460 -64
2021-01-26 03:02:59 GMT 37.973740 -10.531506 36,000 20 460 64
2021-01-26 03:02:56 GMT 37.968285 -10.534097 36,000 20 460 0
2021-01-26 03:02:53 GMT 37.960968 -10.537525 36,000 20 461 0
2021-01-26 03:02:48 GMT 37.952690 -10.541382 36,000 20 461 0
2021-01-26 03:02:45 GMT 37.948196 -10.543486 36,000 20 461 64
2021-01-26 03:02:41 GMT 37.938305 -10.548129 36,000 20 461 0
2021-01-26 03:02:38 GMT 37.932720 -10.550756 36,000 20 461 0
2021-01-26 03:02:35 GMT 37.926407 -10.553712 36,000 20 461 0
2021-01-26 03:02:32 GMT 37.920593 -10.556459 36,000 20 461 0
2021-01-26 03:02:28 GMT 37.912399 -10.560316 36,000 20 461 0
2021-01-26 03:02:25 GMT 37.907303 -10.562698 36,000 20 461 0
2021-01-26 03:02:21 GMT 37.898315 -10.566877 36,000 20 461 0
2021-01-26 03:02:18 GMT 37.891521 -10.570102 36,000 20 461 0
2021-01-26 03:02:15 GMT 37.887589 -10.571945 36,000 20 461 0
2021-01-26 03:02:12 GMT 37.879578 -10.575685 36,000 20 461 0
2021-01-26 03:02:09 GMT 37.873352 -10.578607 36,000 20 461 0
2021-01-26 03:02:06 GMT 37.867950 -10.581120 36,000 20 461 0
2021-01-26 03:02:01 GMT 37.858337 -10.585619 36,000 20 461 0
2021-01-26 03:01:58 GMT 37.851151 -10.589009 36,000 20 461 0
2021-01-26 03:01:55 GMT 37.846893 -10.590996 36,000 20 461 0
2021-01-26 03:01:51 GMT 37.837875 -10.595203 36,000 20 461 0
2021-01-26 03:01:48 GMT 37.832165 -10.597866 36,000 20 461 0
2021-01-26 03:01:45 GMT 37.826248 -10.600638 36,000 20 462 0
2021-01-26 03:01:40 GMT 37.817047 -10.604962 36,000 20 461 0
2021-01-26 03:01:37 GMT 37.810101 -10.608255 36,000 20 461 0
2021-01-26 03:01:33 GMT 37.803635 -10.611274 36,000 20 461 0
2021-01-26 03:01:30 GMT 37.794689 -10.615480 36,000 20 461 0
2021-01-26 03:01:27 GMT 37.789810 -10.617760 36,000 20 461 -64
2021-01-26 03:01:24 GMT 37.785892 -10.619600 36,000 20 461 0
2021-01-26 03:01:20 GMT 37.776352 -10.624013 36,000 20 461 0
2021-01-26 03:01:17 GMT 37.765778 -10.628980 36,000 20 461 0
2021-01-26 03:01:14 GMT 37.765778 -10.628980 36,000 20 461 0
2021-01-26 03:01:08 GMT 37.746044 -10.638109 36,000 20 460 -64
2021-01-26 03:01:05 GMT 37.746044 -10.638109 36,000 20 460 0
2021-01-26 03:01:01 GMT 37.738358 -10.641720 36,000 20 460 0
2021-01-26 03:00:58 GMT 37.732265 -10.644558 36,000 20 460 0
2021-01-26 03:00:55 GMT 37.726135 -10.647447 36,000 20 460 0
2021-01-26 03:00:49 GMT 37.714436 -10.652857 36,000 20 460 -64
2021-01-26 03:00:46 GMT 37.709034 -10.655365 36,000 20 460 -64
2021-01-26 03:00:43 GMT 37.703030 -10.658171 36,000 20 460 0
2021-01-26 03:00:40 GMT 37.697865 -10.660619 36,000 20 460 0
2021-01-26 03:00:36 GMT 37.688370 -10.665036 36,000 20 460 0
2021-01-26 03:00:33 GMT 37.682602 -10.667725 36,000 20 460 0
2021-01-26 03:00:30 GMT 37.676682 -10.670471 36,000 20 460 0
2021-01-26 03:00:26 GMT 37.666485 -10.675188 36,000 20 460 0
2021-01-26 03:00:19 GMT 37.652519 -10.681696 36,000 20 460 0
2021-01-26 03:00:15 GMT 37.647541 -10.684025 36,000 20 460 0
2021-01-26 03:00:10 GMT 37.637650 -10.688645 36,000 20 460 0
2021-01-26 03:00:06 GMT 37.627853 -10.693204 36,000 20 460 0
2021-01-26 03:00:03 GMT 37.622772 -10.695549 36,000 20 459 0
2021-01-26 03:00:00 GMT 37.616581 -10.698415 36,000 20 459 0
2021-01-26 02:59:56 GMT 37.607784 -10.702535 36,000 20 459 0
2021-01-26 02:59:52 GMT 37.601593 -10.705401 36,000 20 459 0
2021-01-26 02:59:46 GMT 37.585255 -10.712984 36,000 20 459 0
2021-01-26 02:59:43 GMT 37.583176 -10.713949 36,000 20 459 0
2021-01-26 02:59:38 GMT 37.570770 -10.719676 36,000 20 459 0
2021-01-26 02:59:35 GMT 37.565598 -10.722072 36,000 20 459 0
2021-01-26 02:59:32 GMT 37.561432 -10.724059 36,000 20 459 0
2021-01-26 02:59:29 GMT 37.555435 -10.726805 36,000 20 459 0
2021-01-26 02:59:25 GMT 37.547173 -10.730657 36,000 20 459 -64
2021-01-26 02:59:22 GMT 37.540981 -10.733523 36,000 20 459 -64
2021-01-26 02:59:19 GMT 37.536419 -10.735613 36,000 20 459 64
2021-01-26 02:59:14 GMT 37.525360 -10.740772 36,000 20 459 0
2021-01-26 02:59:11 GMT 37.519287 -10.743614 36,000 20 459 0
2021-01-26 02:59:07 GMT 37.504807 -10.750297 36,000 20 459 0
2021-01-26 02:59:04 GMT 37.504807 -10.750297 36,000 20 459 0
2021-01-26 02:58:59 GMT 37.495468 -10.754622 36,000 20 459 0
2021-01-26 02:58:55 GMT 37.480232 -10.761705 36,000 20 459 0
2021-01-26 02:58:51 GMT 37.480232 -10.761705 36,000 20 459 0
2021-01-26 02:58:48 GMT 37.474228 -10.764452 36,000 20 459 0
2021-01-26 02:58:44 GMT 37.463791 -10.769290 36,000 20 459 0
2021-01-26 02:58:39 GMT 37.455185 -10.773263 36,000 20 459 0
2021-01-26 02:58:33 GMT 37.442944 -10.778961 36,000 20 459 64
2021-01-26 02:58:28 GMT 37.434376 -10.782902 36,000 20 459 0
2021-01-26 02:58:24 GMT 37.424603 -10.787440 36,000 20 459 0
2021-01-26 02:58:21 GMT 37.420715 -10.789217 36,000 20 459 0
2021-01-26 02:58:18 GMT 37.414452 -10.792097 36,000 20 459 0
2021-01-26 02:58:14 GMT 37.404739 -10.796580 36,000 20 459 0
2021-01-26 02:58:08 GMT 37.394482 -10.801352 36,000 20 459 0
2021-01-26 02:58:04 GMT 37.386612 -10.804995 36,000 20 459 0
2021-01-26 02:58:00 GMT 37.378700 -10.808577 36,000 20 459 0
2021-01-26 02:57:57 GMT 37.372833 -10.811307 36,000 20 459 0
2021-01-26 02:57:52 GMT 37.362782 -10.815980 36,000 20 459 0
2021-01-26 02:57:45 GMT 37.346741 -10.823403 36,000 20 459 0
2021-01-26 02:57:42 GMT 37.341522 -10.825799 36,000 20 459 0
2021-01-26 02:57:38 GMT 37.333450 -10.829534 36,000 20 459 0
2021-01-26 02:57:34 GMT 37.325363 -10.833221 36,000 20 459 0
2021-01-26 02:57:27 GMT 37.312691 -10.839087 36,000 20 459 0
2021-01-26 02:57:24 GMT 37.305519 -10.842371 36,000 20 459 0
2021-01-26 02:57:21 GMT 37.299515 -10.845118 36,000 20 459 0
2021-01-26 02:57:18 GMT 37.293369 -10.847984 36,000 20 459 0
2021-01-26 02:57:13 GMT 37.285080 -10.851804 36,000 20 459 0
2021-01-26 02:57:07 GMT 37.271484 -10.858057 36,000 20 459 0
2021-01-26 02:57:02 GMT 37.261250 -10.862792 36,000 20 458 0
2021-01-26 02:56:56 GMT 37.250793 -10.867582 36,000 20 459 0
2021-01-26 02:56:53 GMT 37.244385 -10.870504 36,000 20 459 0
2021-01-26 02:56:47 GMT 37.231968 -10.876226 36,000 20 458 0
2021-01-26 02:56:44 GMT 37.224289 -10.879796 36,000 20 458 0
2021-01-26 02:56:37 GMT 37.211929 -10.885464 36,000 20 458 0
2021-01-26 02:56:33 GMT 37.204872 -10.888705 36,000 20 458 0
2021-01-26 02:56:28 GMT 37.194214 -10.893587 36,000 20 458 0
2021-01-26 02:56:23 GMT 37.183868 -10.898379 36,000 20 458 0
2021-01-26 02:56:20 GMT 37.178513 -10.900833 36,000 20 458 0
2021-01-26 02:56:16 GMT 37.170731 -10.904398 36,000 20 458 0
2021-01-26 02:56:13 GMT 37.163956 -10.907495 36,000 20 458 0
2021-01-26 02:56:06 GMT 37.150864 -10.913514 36,000 20 458 0
2021-01-26 02:56:01 GMT 37.138687 -10.919125 36,000 20 458 0
2021-01-26 02:55:56 GMT 37.130856 -10.922739 36,000 20 458 0
2021-01-26 02:55:50 GMT 37.119125 -10.928113 36,000 20 458 0
2021-01-26 02:55:46 GMT 37.111118 -10.931755 36,000 20 458 0
2021-01-26 02:55:42 GMT 37.103073 -10.935429 36,000 20 458 0
2021-01-26 02:55:39 GMT 37.095291 -10.938993 36,000 20 458 0
2021-01-26 02:55:36 GMT 37.091053 -10.940950 36,000 20 459 0
2021-01-26 02:55:32 GMT 37.082863 -10.944711 36,000 20 459 0
2021-01-26 02:55:29 GMT 37.077805 -10.947058 36,000 20 459 0
2021-01-26 02:55:26 GMT 37.070618 -10.950330 36,000 20 459 0
2021-01-26 02:55:22 GMT 37.063019 -10.953778 36,000 20 459 0
2021-01-26 02:55:15 GMT 37.049881 -10.959797 36,000 20 459 0
2021-01-26 02:55:11 GMT 37.042099 -10.963362 36,000 20 459 0
2021-01-26 02:55:06 GMT 37.030563 -10.968621 36,000 20 459 0
2021-01-26 02:55:01 GMT 37.021877 -10.972595 36,000 20 459 0
2021-01-26 02:54:55 GMT 37.009644 -10.978205 36,000 20 459 0
2021-01-26 02:54:52 GMT 37.002090 -10.981653 36,000 20 459 0
2021-01-26 02:54:49 GMT 36.997997 -10.983522 36,000 20 459 0
2021-01-26 02:54:45 GMT 36.988827 -10.987701 36,000 20 459 0
2021-01-26 02:54:39 GMT 36.974579 -10.994217 36,000 20 459 0
2021-01-26 02:54:35 GMT 36.968670 -10.996896 36,000 20 459 0
2021-01-26 02:54:31 GMT 36.958519 -11.001554 36,000 20 459 0
2021-01-26 02:54:25 GMT 36.949219 -11.005788 36,000 20 459 0
2021-01-26 02:54:19 GMT 36.937408 -11.011164 36,000 20 459 0
2021-01-26 02:54:15 GMT 36.929146 -11.014988 36,000 20 459 0
2021-01-26 02:54:11 GMT 36.920765 -11.018809 36,000 20 459 0
2021-01-26 02:54:07 GMT 36.912991 -11.022332 36,000 20 459 0
2021-01-26 02:54:04 GMT 36.908195 -11.024541 36,000 20 459 0
2021-01-26 02:54:00 GMT 36.898911 -11.028754 36,000 20 459 0
2021-01-26 02:53:54 GMT 36.887924 -11.033780 36,000 20 459 0
2021-01-26 02:53:51 GMT 36.879959 -11.037403 36,000 20 459 0
2021-01-26 02:53:44 GMT 36.868069 -11.042812 36,000 20 459 0
2021-01-26 02:53:39 GMT 36.857269 -11.047768 36,000 20 459 0
2021-01-26 02:53:34 GMT 36.847961 -11.051960 36,000 20 459 0
2021-01-26 02:53:30 GMT 36.839298 -11.055928 36,000 20 459 0
2021-01-26 02:53:24 GMT 36.827892 -11.061129 36,000 20 459 0
2021-01-26 02:53:17 GMT 36.812717 -11.068024 36,000 20 459 0
2021-01-26 02:53:14 GMT 36.806946 -11.070654 36,000 20 459 0
2021-01-26 02:53:07 GMT 36.793724 -11.076673 36,000 20 459 0
2021-01-26 02:53:03 GMT 36.786743 -11.079829 36,000 20 459 0
2021-01-26 02:52:57 GMT 36.774361 -11.085439 36,000 20 459 0
2021-01-26 02:52:53 GMT 36.766586 -11.089004 36,000 20 459 0
2021-01-26 02:52:47 GMT 36.754486 -11.094475 36,000 20 459 0
2021-01-26 02:52:42 GMT 36.743912 -11.099281 36,000 20 459 0
2021-01-26 02:52:39 GMT 36.738049 -11.101977 36,000 20 459 0
2021-01-26 02:52:35 GMT 36.731552 -11.104889 36,000 20 459 0
2021-01-26 02:52:33 GMT 36.725784 -11.107521 36,000 20 459 0
2021-01-26 02:52:27 GMT 36.714386 -11.112671 36,000 20 458 0
2021-01-26 02:52:17 GMT 36.693878 -11.121998 36,000 20 458 0
2021-01-26 02:52:12 GMT 36.683208 -11.126813 36,000 20 458 0
2021-01-26 02:52:07 GMT 36.674038 -11.130962 36,000 20 458 0
2021-01-26 02:52:02 GMT 36.664581 -11.135273 36,000 20 458 0
2021-01-26 02:51:57 GMT 36.654720 -11.139728 36,000 20 458 0
2021-01-26 02:51:52 GMT 36.644711 -11.144227 36,000 20 458 0
2021-01-26 02:51:47 GMT 36.633957 -11.149078 36,000 20 458 0
2021-01-26 02:51:42 GMT 36.624786 -11.153227 36,000 20 458 0
2021-01-26 02:51:37 GMT 36.613907 -11.158161 36,000 20 459 0
2021-01-26 02:51:31 GMT 36.603233 -11.162986 36,000 20 458 0
2021-01-26 02:51:26 GMT 36.592899 -11.167661 36,000 20 458 0
2021-01-26 02:51:17 GMT 36.574631 -11.175957 36,000 19 459 0
2021-01-26 02:51:05 GMT 36.551834 -11.186199 36,000 19 459 0
2021-01-26 02:51:02 GMT 36.543785 -11.189867 36,000 19 459 0
2021-01-26 02:50:57 GMT 36.534801 -11.193900 36,000 19 459 0
2021-01-26 02:50:51 GMT 36.521393 -11.199919 36,000 19 459 0
2021-01-26 02:50:47 GMT 36.514526 -11.203022 36,000 19 459 0
2021-01-26 02:50:43 GMT 36.503613 -11.207925 36,000 19 459 0
2021-01-26 02:50:37 GMT 36.494339 -11.212120 36,000 19 459 0
2021-01-26 02:50:24 GMT 36.469528 -11.223278 36,000 19 459 0
2021-01-26 02:50:17 GMT 36.454193 -11.230259 36,000 19 459 0
2021-01-26 02:50:00 GMT 36.418808 -11.246166 36,000 20 458 0
2021-01-26 02:49:55 GMT 36.410320 -11.250000 36,000 20 458 0
2021-01-26 02:49:27 GMT 36.354645 -11.275011 36,000 20 458 0
2021-01-26 02:49:17 GMT 36.334534 -11.283989 36,000 19 459 0
2021-01-26 02:49:07 GMT 36.314392 -11.293030 36,000 20 458 0
2021-01-26 02:48:57 GMT 36.294498 -11.301951 36,000 20 458 0
2021-01-26 02:48:46 GMT 36.273468 -11.311398 36,000 20 458 0
2021-01-26 02:48:37 GMT 36.254185 -11.320067 36,000 19 459 0
2021-01-26 02:48:29 GMT 36.237984 -11.327313 36,000 19 459 0
2021-01-26 02:48:22 GMT 36.221226 -11.334793 36,000 19 459 0
2021-01-26 02:48:18 GMT 36.215221 -11.337482 36,000 19 459 0
2021-01-26 02:47:09 GMT 36.078644 -11.397743 36,000 19 460 0
2021-01-26 02:47:00 GMT 36.059502 -11.406029 36,000 19 459 0
2021-01-26 02:46:50 GMT 36.039322 -11.414795 36,000 19 459 0
2021-01-26 02:46:34 GMT 36.007919 -11.428585 36,000 20 459 0
2021-01-26 02:46:32 GMT 36.003826 -11.430456 36,000 20 459 0
2021-01-26 02:46:23 GMT 35.985077 -11.439400 36,000 22 459 0
2021-01-26 02:45:48 GMT 35.917877 -11.477680 36,000 26 462 0
2021-01-26 02:45:41 GMT 35.905975 -11.484890 36,000 26 462 0
2021-01-26 02:45:27 GMT 35.878834 -11.501341 36,000 26 462 64
2021-01-26 02:45:22 GMT 35.867432 -11.508236 36,000 26 462 0
2021-01-26 02:45:08 GMT 35.842571 -11.523314 36,000 26 462 0
2021-01-26 02:45:05 GMT 35.835022 -11.527863 36,000 26 462 0
2021-01-26 02:45:00 GMT 35.827148 -11.532612 36,000 26 462 0
2021-01-26 02:44:51 GMT 35.808746 -11.543713 36,000 26 461 0
2021-01-26 02:44:41 GMT 35.789566 -11.555271 36,000 26 461 0
2021-01-26 02:44:31 GMT 35.770203 -11.567001 36,000 26 461 0
2021-01-26 02:44:06 GMT 35.724197 -11.594639 36,000 26 461 0
2021-01-26 02:44:02 GMT 35.716228 -11.599459 36,000 26 461 0
2021-01-26 02:43:59 GMT 35.708862 -11.603909 36,000 26 461 0
2021-01-26 02:43:33 GMT 35.659901 -11.633294 36,000 26 461 0
2021-01-26 02:43:32 GMT 35.657913 -11.634521 36,000 26 461 0
2021-01-26 02:43:19 GMT 35.634521 -11.648540 36,000 26 461 0
2021-01-26 02:43:11 GMT 35.618454 -11.658211 36,000 26 460 0
2021-01-26 02:43:02 GMT 35.600407 -11.669058 36,000 26 459 0
2021-01-26 02:42:51 GMT 35.580154 -11.681213 36,000 26 459 0
2021-01-26 02:42:42 GMT 35.562836 -11.691570 36,000 26 459 0
2021-01-26 02:42:32 GMT 35.542866 -11.703537 36,000 26 459 0
2021-01-26 02:42:22 GMT 35.524525 -11.714523 36,000 26 459 0
2021-01-26 02:42:12 GMT 35.505341 -11.726074 36,000 26 459 0
2021-01-26 02:42:01 GMT 35.485245 -11.738091 36,000 26 460 0
We lost coverage of the aircraft here for a total of 28 minutes
2021-01-26 02:13:42 GMT 32.225143 -13.606677 36,000 24 456 0
2021-01-26 02:13:40 GMT 32.221176 -13.608866 36,000 24 456 0
2021-01-26 02:13:30 GMT 32.201385 -13.619751 36,000 25 455 0
2021-01-26 02:13:13 GMT 32.168839 -13.637604 36,000 25 455 0
2021-01-26 02:13:10 GMT 32.163254 -13.640680 36,000 24 456 0
2021-01-26 02:12:57 GMT 32.138397 -13.654358 36,000 24 456 0
2021-01-26 02:12:49 GMT 32.123699 -13.662396 36,000 24 456 0
2021-01-26 02:11:54 GMT 32.016129 -13.721265 36,000 24 458 0
2021-01-26 02:11:49 GMT 32.006992 -13.726296 36,000 24 458 0
2021-01-26 02:11:45 GMT 31.999191 -13.730548 36,000 24 458 0
2021-01-26 02:11:39 GMT 31.985138 -13.738184 36,000 25 459 0
2021-01-26 02:11:36 GMT 31.980927 -13.740491 36,000 25 459 0
2021-01-26 02:11:28 GMT 31.966909 -13.748156 36,000 25 459 0
2021-01-26 02:11:25 GMT 31.960766 -13.751520 36,000 25 459 0
2021-01-26 02:11:15 GMT 31.941422 -13.762079 36,000 24 459 0
2021-01-26 02:11:07 GMT 31.926178 -13.770428 36,000 24 459 0
2021-01-26 02:11:04 GMT 31.920364 -13.773560 36,000 24 459 0
2021-01-26 02:10:58 GMT 31.908966 -13.779767 36,000 24 459 0
2021-01-26 02:10:54 GMT 31.901178 -13.784030 36,000 24 459 0
2021-01-26 02:10:44 GMT 31.881775 -13.794598 36,000 24 459 0
2021-01-26 02:10:34 GMT 31.863098 -13.804770 36,000 24 459 0
2021-01-26 02:10:23 GMT 31.841949 -13.816296 36,000 24 460 0
2021-01-26 02:10:12 GMT 31.820177 -13.828144 36,000 24 460 0
2021-01-26 02:10:04 GMT 31.803040 -13.837445 36,000 24 462 0
2021-01-26 02:09:52 GMT 31.782003 -13.848883 36,000 24 462 0
2021-01-26 02:09:45 GMT 31.766373 -13.857368 36,000 24 462 0
2021-01-26 02:09:41 GMT 31.760822 -13.860406 36,000 24 462 0
2021-01-26 02:09:35 GMT 31.749186 -13.866724 36,000 24 462 0
2021-01-26 02:09:31 GMT 31.741037 -13.871173 36,000 24 462 0
2021-01-26 02:09:22 GMT 31.722885 -13.881010 36,000 24 461 0
2021-01-26 02:08:59 GMT 31.679543 -13.904517 36,000 24 460 0
2021-01-26 02:08:55 GMT 31.670837 -13.909241 36,000 24 461 0
2021-01-26 02:08:51 GMT 31.663971 -13.913000 36,000 24 461 0
2021-01-26 02:08:42 GMT 31.644745 -13.923394 36,000 24 460 0
2021-01-26 02:08:34 GMT 31.629639 -13.931580 36,000 24 460 0
2021-01-26 02:08:31 GMT 31.624237 -13.934542 36,000 24 460 0
2021-01-26 02:08:22 GMT 31.604691 -13.945097 36,000 24 460 0
2021-01-26 02:08:11 GMT 31.585415 -13.955548 36,000 24 460 0
2021-01-26 02:08:01 GMT 31.565676 -13.966205 36,000 24 460 0
2021-01-26 02:07:50 GMT 31.544312 -13.977733 36,000 24 460 0
2021-01-26 02:07:40 GMT 31.526991 -13.987079 36,000 24 459 0
2021-01-26 02:07:30 GMT 31.506409 -13.998252 36,000 24 459 0
2021-01-26 02:07:22 GMT 31.491531 -14.006276 36,000 24 459 0
2021-01-26 02:07:19 GMT 31.486212 -14.009161 36,000 24 459 0
2021-01-26 02:07:09 GMT 31.465961 -14.020093 36,000 24 459 0
2021-01-26 02:07:02 GMT 31.453491 -14.026794 36,000 24 458 0
2021-01-26 02:06:59 GMT 31.446829 -14.030420 36,000 24 459 0
2021-01-26 02:06:50 GMT 31.427399 -14.040850 36,000 24 459 0
2021-01-26 02:06:42 GMT 31.412201 -14.049090 36,000 24 459 0
2021-01-26 02:06:36 GMT 31.402651 -14.054205 36,000 24 458 0
2021-01-26 02:06:31 GMT 31.392700 -14.059592 36,000 24 458 0
2021-01-26 02:06:25 GMT 31.381607 -14.065576 36,000 24 458 0
2021-01-26 02:06:20 GMT 31.372284 -14.070578 36,000 24 458 0
2021-01-26 02:06:17 GMT 31.364365 -14.074833 36,000 24 458 0
2021-01-26 02:06:11 GMT 31.353863 -14.080518 36,000 24 458 0
2021-01-26 02:06:08 GMT 31.347427 -14.083988 36,000 24 458 0
2021-01-26 02:06:01 GMT 31.334335 -14.090989 36,000 24 458 0
2021-01-26 02:05:58 GMT 31.327606 -14.094651 36,000 24 458 0
2021-01-26 02:05:48 GMT 31.308661 -14.104797 36,000 24 458 0
2021-01-26 02:05:38 GMT 31.289291 -14.115224 36,000 24 458 0
2021-01-26 02:05:29 GMT 31.272949 -14.124002 36,000 24 457 0
2021-01-26 02:05:26 GMT 31.268326 -14.126479 36,000 24 457 0
2021-01-26 02:05:16 GMT 31.248138 -14.137304 36,000 24 457 0
2021-01-26 02:05:09 GMT 31.234783 -14.144513 36,000 24 457 0
2021-01-26 02:05:00 GMT 31.215929 -14.154620 36,000 24 456 0
2021-01-26 02:04:56 GMT 31.211060 -14.157230 36,000 24 456 0
2021-01-26 02:04:47 GMT 31.191908 -14.167474 36,000 24 456 0
2021-01-26 02:04:39 GMT 31.176453 -14.175756 36,000 24 456 0
2021-01-26 02:04:36 GMT 31.170773 -14.178790 36,000 24 456 0
2021-01-26 02:04:27 GMT 31.151733 -14.189008 36,000 24 457 0
2021-01-26 02:04:17 GMT 31.135437 -14.197729 36,000 24 457 0
2021-01-26 02:04:05 GMT 31.109802 -14.211408 36,000 24 458 0
2021-01-26 02:03:55 GMT 31.092379 -14.220758 36,000 24 458 0
2021-01-26 02:03:48 GMT 31.078693 -14.228064 36,000 24 459 0
2021-01-26 02:03:43 GMT 31.067333 -14.234161 36,000 24 459 0
2021-01-26 02:03:37 GMT 31.057571 -14.239358 36,000 24 459 0
2021-01-26 02:03:31 GMT 31.044336 -14.246466 36,000 24 459 0
2021-01-26 02:03:25 GMT 31.034409 -14.251745 36,000 24 459 0
2021-01-26 02:03:17 GMT 31.019531 -14.259715 36,000 24 459 0
2021-01-26 02:03:14 GMT 31.013763 -14.262785 36,000 24 459 0
2021-01-26 02:03:06 GMT 30.997786 -14.271295 36,000 24 459 0
2021-01-26 02:02:58 GMT 30.981539 -14.279974 36,000 24 459 0
2021-01-26 02:02:54 GMT 30.973438 -14.284314 36,000 24 459 0
2021-01-26 02:02:45 GMT 30.954073 -14.294641 36,000 24 459 0
2021-01-26 02:02:36 GMT 30.926651 -14.309262 36,000 24 462 0
2021-01-26 02:02:24 GMT 30.915295 -14.315295 36,000 24 461 0
2021-01-26 02:02:14 GMT 30.895798 -14.325741 36,000 24 461 0
2021-01-26 02:02:04 GMT 30.877121 -14.335650 36,000 24 462 0
2021-01-26 02:01:58 GMT 30.863342 -14.343028 36,000 24 462 0
2021-01-26 02:01:53 GMT 30.856079 -14.346881 36,000 24 462 0
2021-01-26 02:01:43 GMT 30.836334 -14.357408 36,000 24 461 0
2021-01-26 02:01:35 GMT 30.818665 -14.366778 36,000 24 461 0
2021-01-26 02:01:31 GMT 30.812925 -14.369843 36,000 24 460 0
2021-01-26 02:01:22 GMT 30.795547 -14.379111 36,000 24 460 0
2021-01-26 02:01:14 GMT 30.781691 -14.386487 36,000 24 462 0
2021-01-26 02:01:04 GMT 30.758926 -14.398572 36,000 24 462 0
2021-01-26 02:01:02 GMT 30.756912 -14.399629 36,000 24 462 0
2021-01-26 02:00:54 GMT 30.741655 -14.407745 36,000 24 462 0
2021-01-26 02:00:51 GMT 30.736395 -14.410547 36,000 24 462 -64
2021-01-26 02:00:42 GMT 30.718231 -14.420202 36,000 24 462 0
2021-01-26 02:00:31 GMT 30.696918 -14.431476 36,000 24 462 0
2021-01-26 02:00:23 GMT 30.682205 -14.439266 36,000 24 462 0
2021-01-26 02:00:20 GMT 30.676481 -14.442352 36,000 24 462 0
2021-01-26 02:00:12 GMT 30.660049 -14.451061 36,000 24 462 0
2021-01-26 02:00:09 GMT 30.654276 -14.454108 36,000 24 462 0
2021-01-26 02:00:01 GMT 30.638727 -14.462347 36,000 24 462 0
2021-01-26 01:59:51 GMT 30.619640 -14.472455 36,000 24 462 0
2021-01-26 01:59:46 GMT 30.608189 -14.478552 36,000 24 461 0
2021-01-26 01:59:42 GMT 30.601393 -14.482178 36,000 24 462 0
2021-01-26 01:59:39 GMT 30.596420 -14.484774 36,000 24 461 0
2021-01-26 01:59:29 GMT 30.576553 -14.495329 36,000 24 461 0
2021-01-26 01:59:24 GMT 30.566153 -14.500800 36,000 24 461 0
2021-01-26 01:59:19 GMT 30.557030 -14.505634 36,000 24 461 0
2021-01-26 01:59:10 GMT 30.538055 -14.515632 36,000 24 461 0
2021-01-26 01:59:07 GMT 30.534760 -14.517409 36,000 24 461 0
2021-01-26 01:58:59 GMT 30.518156 -14.526178 36,000 24 461 0
2021-01-26 01:58:51 GMT 30.503082 -14.534104 36,000 24 460 0
2021-01-26 01:58:41 GMT 30.482033 -14.545239 36,000 24 460 0
2021-01-26 01:58:38 GMT 30.477859 -14.547406 36,000 24 460 0
2021-01-26 01:58:28 GMT 30.459000 -14.557369 36,000 24 461 0
2021-01-26 01:58:18 GMT 30.438692 -14.568091 36,000 24 461 0
2021-01-26 01:58:08 GMT 30.419233 -14.578363 36,000 24 462 0
2021-01-26 01:57:59 GMT 30.400681 -14.588228 36,000 24 462 0
2021-01-26 01:57:55 GMT 30.390976 -14.593452 36,000 24 462 0
2021-01-26 01:57:48 GMT 30.380037 -14.599402 36,000 25 462 0
2021-01-26 01:57:39 GMT 30.363510 -14.608477 36,000 23 462 0
2021-01-26 01:57:35 GMT 30.356249 -14.612421 36,000 23 462 0
2021-01-26 01:57:29 GMT 30.344193 -14.618494 36,000 21 463 64
2021-01-26 01:57:26 GMT 30.337967 -14.621295 36,000 20 463 0
2021-01-26 01:57:18 GMT 30.318649 -14.628781 36,000 17 463 0
2021-01-26 01:57:15 GMT 30.314758 -14.630181 36,000 17 463 0
2021-01-26 01:57:07 GMT 30.297958 -14.636320 36,000 17 463 0
2021-01-26 01:56:59 GMT 30.279556 -14.643052 36,000 17 463 0
2021-01-26 01:56:56 GMT 30.275574 -14.644556 36,000 17 463 0
2021-01-26 01:56:41 GMT 30.244904 -14.655708 36,000 17 463 0
2021-01-26 01:56:38 GMT 30.238285 -14.658124 36,000 17 463 0
2021-01-26 01:56:34 GMT 30.231909 -14.660431 36,000 17 463 0
2021-01-26 01:56:25 GMT 30.212723 -14.667394 36,000 17 464 64
2021-01-26 01:56:15 GMT 30.192261 -14.674880 36,000 17 464 0
2021-01-26 01:56:05 GMT 30.171753 -14.682366 36,000 17 464 0
2021-01-26 01:55:54 GMT 30.149597 -14.690444 36,000 17 463 -64
2021-01-26 01:55:47 GMT 30.134628 -14.695883 36,000 17 463 -64
2021-01-26 01:55:44 GMT 30.129026 -14.697949 36,000 17 463 -64
2021-01-26 01:55:34 GMT 30.108917 -14.705200 36,000 17 463 0
2021-01-26 01:55:23 GMT 30.086573 -14.713330 36,000 17 464 0
2021-01-26 01:55:15 GMT 30.069765 -14.719427 36,000 17 464 0
2021-01-26 01:55:05 GMT 30.048445 -14.727228 36,000 17 464 0
2021-01-26 01:54:59 GMT 30.036715 -14.731458 36,000 17 464 -64
2021-01-26 01:54:55 GMT 30.028793 -14.734336 36,000 17 464 -64
2021-01-26 01:54:45 GMT 30.008596 -14.741675 36,000 17 464 0
2021-01-26 01:54:39 GMT 29.992493 -14.747476 36,000 17 464 0
2021-01-26 01:54:31 GMT 29.979584 -14.752161 36,000 17 463 0
2021-01-26 01:54:20 GMT 29.955946 -14.760736 36,000 17 463 0
2021-01-26 01:54:14 GMT 29.943558 -14.765194 36,000 17 463 0
2021-01-26 01:54:02 GMT 29.919123 -14.774084 36,000 17 462 0
2021-01-26 01:53:53 GMT 29.900436 -14.780837 36,000 17 462 0
2021-01-26 01:53:44 GMT 29.882395 -14.787382 36,000 17 460 0
2021-01-26 01:53:41 GMT 29.876062 -14.789644 36,000 17 461 0
2021-01-26 01:53:38 GMT 29.867079 -14.792875 36,000 17 461 0
2021-01-26 01:53:31 GMT 29.856464 -14.796753 36,000 17 461 0
2021-01-26 01:53:27 GMT 29.847340 -14.800038 36,000 17 461 0
2021-01-26 01:53:23 GMT 29.839096 -14.803021 36,000 17 460 0
2021-01-26 01:53:20 GMT 29.834198 -14.804764 36,000 17 460 0
2021-01-26 01:53:17 GMT 29.825972 -14.807739 36,000 17 460 0
2021-01-26 01:53:10 GMT 29.813644 -14.812211 36,000 17 460 0
2021-01-26 01:53:06 GMT 29.805256 -14.815225 36,000 17 459 0
2021-01-26 01:53:03 GMT 29.798971 -14.817487 36,000 17 459 0
2021-01-26 01:52:57 GMT 29.784256 -14.822775 36,000 17 459 0
2021-01-26 01:52:52 GMT 29.769133 -14.828258 36,000 17 457 -64
2021-01-26 01:52:45 GMT 29.763153 -14.830381 36,000 17 458 0
2021-01-26 01:52:42 GMT 29.757587 -14.832405 36,000 17 458 0
2021-01-26 01:52:39 GMT 29.750696 -14.834882 36,000 17 457 -64
2021-01-26 01:52:35 GMT 29.742279 -14.837934 36,000 17 458 0
2021-01-26 01:52:32 GMT 29.737150 -14.839783 36,000 17 458 0
2021-01-26 01:52:29 GMT 29.731052 -14.841937 36,000 17 457 0
2021-01-26 01:52:25 GMT 29.721451 -14.845434 36,000 17 457 0
2021-01-26 01:52:22 GMT 29.716187 -14.847336 36,000 17 457 0
2021-01-26 01:52:19 GMT 29.710739 -14.849290 36,000 17 458 0
2021-01-26 01:52:16 GMT 29.701538 -14.852600 36,000 17 458 0
2021-01-26 01:52:11 GMT 29.693857 -14.855347 36,000 17 457 0
2021-01-26 01:52:08 GMT 29.688597 -14.857285 36,000 17 458 0
2021-01-26 01:52:05 GMT 29.680729 -14.860086 36,000 17 458 0
2021-01-26 01:52:01 GMT 29.674759 -14.862284 36,000 17 458 0
2021-01-26 01:51:58 GMT 29.667664 -14.864819 36,000 17 458 0
2021-01-26 01:51:54 GMT 29.659454 -14.867787 36,000 17 458 0
2021-01-26 01:51:51 GMT 29.654297 -14.869625 36,000 17 458 0
2021-01-26 01:51:47 GMT 29.646093 -14.872580 36,000 17 458 0
2021-01-26 01:51:44 GMT 29.639017 -14.875165 36,000 17 458 0
2021-01-26 01:51:41 GMT 29.633387 -14.877212 36,000 17 458 0
2021-01-26 01:51:37 GMT 29.625471 -14.880066 36,000 17 458 0
2021-01-26 01:51:31 GMT 29.612717 -14.884644 36,000 17 458 0
2021-01-26 01:51:27 GMT 29.604197 -14.887713 36,000 17 458 0
2021-01-26 01:51:20 GMT 29.591255 -14.892399 36,000 17 458 0
2021-01-26 01:51:16 GMT 29.583023 -14.895348 36,000 17 458 0
2021-01-26 01:51:10 GMT 29.571487 -14.899521 36,000 17 458 0
2021-01-26 01:51:06 GMT 29.561834 -14.902954 36,000 17 459 0
2021-01-26 01:51:03 GMT 29.555782 -14.905162 36,000 17 459 0
2021-01-26 01:51:00 GMT 29.550797 -14.906916 36,000 17 459 0
2021-01-26 01:50:57 GMT 29.544191 -14.909309 36,000 17 459 0
2021-01-26 01:50:54 GMT 29.535486 -14.912433 36,000 17 459 0
2021-01-26 01:50:50 GMT 29.530289 -14.914310 36,000 17 458 0
2021-01-26 01:50:47 GMT 29.523104 -14.916902 36,000 17 459 0
2021-01-26 01:50:43 GMT 29.514771 -14.919864 36,000 17 459 0
2021-01-26 01:50:40 GMT 29.510010 -14.921599 36,000 17 459 0
2021-01-26 01:50:36 GMT 29.500992 -14.924819 36,000 17 460 0
2021-01-26 01:50:33 GMT 29.494659 -14.927081 36,000 17 460 0
2021-01-26 01:50:30 GMT 29.488794 -14.929181 36,000 17 460 0
2021-01-26 01:50:26 GMT 29.481068 -14.931982 36,000 17 460 0
2021-01-26 01:50:22 GMT 29.472919 -14.934890 36,000 17 460 0
2021-01-26 01:50:19 GMT 29.467712 -14.936758 36,000 17 460 0
2021-01-26 01:50:16 GMT 29.460304 -14.939414 36,000 17 460 0
2021-01-26 01:50:13 GMT 29.452763 -14.942106 36,000 17 460 0
2021-01-26 01:50:09 GMT 29.447269 -14.944099 36,000 17 460 0
2021-01-26 01:50:06 GMT 29.440147 -14.946630 36,000 17 460 0
2021-01-26 01:50:02 GMT 29.432327 -14.949435 36,000 17 460 0
2021-01-26 01:49:59 GMT 29.426239 -14.951653 36,000 17 460 0
2021-01-26 01:49:52 GMT 29.410950 -14.957146 36,000 17 461 0
2021-01-26 01:49:48 GMT 29.404861 -14.959312 36,000 17 461 0
2021-01-26 01:49:42 GMT 29.390579 -14.964435 36,000 17 461 0
2021-01-26 01:49:38 GMT 29.384563 -14.966556 36,000 17 461 0
2021-01-26 01:49:35 GMT 29.377441 -14.969141 36,000 17 461 0
2021-01-26 01:49:32 GMT 29.368561 -14.972305 36,000 17 461 0
2021-01-26 01:49:28 GMT 29.363480 -14.974101 36,000 17 461 0
2021-01-26 01:49:24 GMT 29.356028 -14.976789 36,000 17 461 0
2021-01-26 01:49:21 GMT 29.348557 -14.979436 36,000 17 462 0
2021-01-26 01:49:18 GMT 29.343292 -14.981337 36,000 17 462 0
2021-01-26 01:49:14 GMT 29.335405 -14.984167 36,000 17 462 0
2021-01-26 01:49:11 GMT 29.327133 -14.987147 36,000 17 462 0
2021-01-26 01:49:08 GMT 29.320816 -14.989419 36,000 17 462 0
2021-01-26 01:49:04 GMT 29.314968 -14.991491 36,000 17 462 0
2021-01-26 01:48:58 GMT 29.301701 -14.996230 36,000 17 462 0
2021-01-26 01:48:54 GMT 29.293213 -14.999243 36,000 17 462 0
2021-01-26 01:48:50 GMT 29.284943 -15.002208 36,000 17 463 0
2021-01-26 01:48:47 GMT 29.278610 -15.004470 36,000 17 463 0
2021-01-26 01:48:44 GMT 29.272884 -15.006570 36,000 17 463 0
2021-01-26 01:48:40 GMT 29.263668 -15.009855 36,000 17 463 0
2021-01-26 01:48:37 GMT 29.257233 -15.012131 36,000 17 463 0
2021-01-26 01:48:34 GMT 29.252169 -15.013948 36,000 17 463 0
2021-01-26 01:48:27 GMT 29.230774 -15.021585 36,000 17 464 -64
2021-01-26 01:48:23 GMT 29.230774 -15.021585 36,000 17 463 0
2021-01-26 01:48:17 GMT 29.218185 -15.026119 36,000 17 463 -64
2021-01-26 01:48:13 GMT 29.209671 -15.029138 36,000 17 463 0
2021-01-26 01:48:10 GMT 29.201382 -15.032097 36,000 17 463 0
2021-01-26 01:48:07 GMT 29.197174 -15.033628 36,000 17 463 0
2021-01-26 01:48:03 GMT 29.188385 -15.036744 36,000 17 464 0
2021-01-26 01:47:59 GMT 29.180059 -15.039745 36,000 17 464 0
2021-01-26 01:47:56 GMT 29.175659 -15.041287 36,000 17 464 0
2021-01-26 01:47:53 GMT 29.167955 -15.044053 36,000 17 464 0
2021-01-26 01:47:49 GMT 29.158739 -15.047338 36,000 17 464 0
2021-01-26 01:47:46 GMT 29.153915 -15.049051 36,000 17 464 64
2021-01-26 01:47:42 GMT 29.146402 -15.051754 36,000 17 464 0
2021-01-26 01:47:38 GMT 29.138628 -15.054501 36,000 17 464 0
2021-01-26 01:47:35 GMT 29.131119 -15.057185 36,000 17 464 0
2021-01-26 01:47:32 GMT 29.125992 -15.059034 36,000 17 464 0
2021-01-26 01:47:29 GMT 29.117680 -15.061987 36,000 17 464 0
2021-01-26 01:47:26 GMT 29.112854 -15.063682 36,000 17 464 0
2021-01-26 01:47:21 GMT 29.103714 -15.066941 36,000 17 464 0
2021-01-26 01:47:15 GMT 29.090103 -15.071816 36,000 17 463 0
2021-01-26 01:47:12 GMT 29.083923 -15.073982 36,000 17 463 0
2021-01-26 01:47:08 GMT 29.075729 -15.076940 36,000 17 463 0
2021-01-26 01:47:05 GMT 29.070419 -15.078841 36,000 17 463 0
2021-01-26 01:47:01 GMT 29.061996 -15.081799 36,000 17 463 0
2021-01-26 01:46:57 GMT 29.052979 -15.085021 36,000 17 463 0
2021-01-26 01:46:54 GMT 29.048132 -15.086706 36,000 17 463 0
2021-01-26 01:46:51 GMT 29.041718 -15.089035 36,000 17 463 0
2021-01-26 01:46:48 GMT 29.032471 -15.092310 36,000 17 463 0
2021-01-26 01:46:45 GMT 29.020798 -15.096430 36,000 17 463 0
2021-01-26 01:46:41 GMT 29.020798 -15.096430 36,000 17 463 0
2021-01-26 01:46:37 GMT 29.011681 -15.099685 36,000 17 463 0
2021-01-26 01:46:34 GMT 29.004822 -15.102081 36,000 17 463 0
2021-01-26 01:46:30 GMT 28.999466 -15.103983 36,000 17 463 0
2021-01-26 01:46:26 GMT 28.990965 -15.107009 36,000 17 463 0
2021-01-26 01:46:23 GMT 28.984314 -15.109370 36,000 17 463 0
2021-01-26 01:46:20 GMT 28.978180 -15.111536 36,000 17 463 0
2021-01-26 01:46:17 GMT 28.970715 -15.114225 36,000 17 463 64
2021-01-26 01:46:14 GMT 28.965593 -15.116057 36,000 17 463 0
2021-01-26 01:46:07 GMT 28.948603 -15.122088 36,000 17 463 0
2021-01-26 01:46:04 GMT 28.944693 -15.123435 36,000 17 463 0
2021-01-26 01:45:59 GMT 28.936020 -15.126536 36,000 17 463 -64
2021-01-26 01:45:54 GMT 28.924023 -15.130759 36,000 17 462 -64
2021-01-26 01:45:49 GMT 28.914804 -15.134044 36,000 17 462 0
2021-01-26 01:45:46 GMT 28.906952 -15.136836 36,000 17 462 0
2021-01-26 01:45:43 GMT 28.900818 -15.139002 36,000 17 462 0
2021-01-26 01:45:39 GMT 28.894789 -15.141153 36,000 17 462 0
2021-01-26 01:45:33 GMT 28.880495 -15.146215 36,000 17 462 0
2021-01-26 01:45:29 GMT 28.873444 -15.148720 36,000 17 462 0
2021-01-26 01:45:26 GMT 28.863924 -15.152085 36,000 17 462 0
2021-01-26 01:45:23 GMT 28.860992 -15.153157 36,000 17 461 64
2021-01-26 01:45:16 GMT 28.845840 -15.158492 36,000 17 463 0
2021-01-26 01:45:13 GMT 28.837875 -15.161291 36,000 17 461 0
2021-01-26 01:45:08 GMT 28.831430 -15.163610 36,000 17 462 0
2021-01-26 01:45:05 GMT 28.823776 -15.166309 36,000 17 462 0
2021-01-26 01:45:02 GMT 28.817642 -15.168475 36,000 17 461 0
2021-01-26 01:44:58 GMT 28.810684 -15.170957 36,000 17 461 0
2021-01-26 01:44:55 GMT 28.802307 -15.173915 36,000 17 460 0
2021-01-26 01:44:51 GMT 28.795073 -15.176481 36,000 17 460 0
2021-01-26 01:44:48 GMT 28.789347 -15.178474 36,000 17 460 0
2021-01-26 01:44:45 GMT 28.780176 -15.181705 36,000 17 460 0
2021-01-26 01:44:41 GMT 28.774979 -15.183581 36,000 17 460 0
2021-01-26 01:44:38 GMT 28.768770 -15.185744 36,000 17 460 0
2021-01-26 01:44:32 GMT 28.757179 -15.189837 36,000 17 460 0
2021-01-26 01:44:27 GMT 28.747284 -15.193352 36,000 17 459 0
2021-01-26 01:44:24 GMT 28.740372 -15.195782 36,000 17 459 0
2021-01-26 01:44:21 GMT 28.734879 -15.197736 36,000 17 459 0
2021-01-26 01:44:14 GMT 28.717987 -15.203705 36,000 17 459 0
2021-01-26 01:44:11 GMT 28.715050 -15.204755 36,000 17 459 0
2021-01-26 01:44:06 GMT 28.705582 -15.208089 36,000 17 459 0
2021-01-26 01:44:01 GMT 28.694000 -15.212209 36,000 17 459 0
2021-01-26 01:43:56 GMT 28.683838 -15.215800 36,000 17 459 0
2021-01-26 01:43:53 GMT 28.675278 -15.218811 36,000 17 459 0
2021-01-26 01:43:50 GMT 28.671150 -15.220265 36,000 17 458 0
2021-01-26 01:43:46 GMT 28.664520 -15.222614 36,000 17 458 0
2021-01-26 01:43:41 GMT 28.653168 -15.226628 36,000 17 458 0
2021-01-26 01:43:37 GMT 28.646570 -15.228936 36,000 17 458 0
2021-01-26 01:43:33 GMT 28.636236 -15.232598 36,000 17 458 0
2021-01-26 01:43:30 GMT 28.625153 -15.236453 36,000 17 458 0
2021-01-26 01:43:27 GMT 28.625153 -15.236453 36,000 17 458 0
2021-01-26 01:43:22 GMT 28.615103 -15.240030 36,000 17 458 0
2021-01-26 01:43:19 GMT 28.608902 -15.242210 36,000 17 458 0
2021-01-26 01:43:16 GMT 28.603743 -15.244015 36,000 17 458 0
2021-01-26 01:43:13 GMT 28.594711 -15.247175 36,000 17 458 0
2021-01-26 01:43:10 GMT 28.590637 -15.248654 36,000 17 458 0
2021-01-26 01:43:05 GMT 28.580606 -15.252147 36,000 17 458 0
2021-01-26 01:43:02 GMT 28.573530 -15.254678 36,000 17 458 0
2021-01-26 01:42:59 GMT 28.569351 -15.256154 36,000 17 458 0
2021-01-26 01:42:55 GMT 28.560196 -15.259376 36,000 17 458 0
2021-01-26 01:42:52 GMT 28.553101 -15.261858 36,000 17 458 0
2021-01-26 01:42:49 GMT 28.546829 -15.264077 36,000 17 458 0
2021-01-26 01:42:44 GMT 28.538498 -15.266982 36,000 17 458 0
2021-01-26 01:42:39 GMT 28.527491 -15.270888 36,000 17 458 0
2021-01-26 01:42:35 GMT 28.512177 -15.276278 36,000 17 458 0
2021-01-26 01:42:32 GMT 28.512177 -15.276278 36,000 17 458 0
2021-01-26 01:42:28 GMT 28.506088 -15.278391 36,000 17 457 0
2021-01-26 01:42:24 GMT 28.497757 -15.281349 36,000 17 457 0
2021-01-26 01:42:21 GMT 28.490479 -15.283884 36,000 17 457 0
2021-01-26 01:42:18 GMT 28.483685 -15.286291 36,000 17 457 0
2021-01-26 01:42:14 GMT 28.476700 -15.288743 36,000 17 457 0
2021-01-26 01:42:11 GMT 28.470139 -15.291084 36,000 17 457 0
2021-01-26 01:42:07 GMT 28.463516 -15.293391 36,000 17 457 0
2021-01-26 01:42:03 GMT 28.455643 -15.296191 36,000 17 457 0
2021-01-26 01:41:58 GMT 28.441368 -15.301208 36,000 17 457 0
2021-01-26 01:41:51 GMT 28.428497 -15.305698 36,000 17 457 0
2021-01-26 01:41:47 GMT 28.421448 -15.308181 36,000 17 457 0
2021-01-26 01:41:40 GMT 28.407572 -15.313110 36,000 17 457 0
2021-01-26 01:41:35 GMT 28.397964 -15.316473 36,000 17 457 0
2021-01-26 01:41:32 GMT 28.391790 -15.318657 36,000 17 457 0
2021-01-26 01:41:29 GMT 28.386429 -15.320540 36,000 17 457 0
2021-01-26 01:41:26 GMT 28.371168 -15.325874 36,000 17 457 0
2021-01-26 01:41:22 GMT 28.371168 -15.325874 36,000 17 457 0
2021-01-26 01:41:19 GMT 28.365967 -15.327724 36,000 17 457 0
2021-01-26 01:41:16 GMT 28.357807 -15.330559 36,000 17 457 0
2021-01-26 01:41:10 GMT 28.344772 -15.335171 36,000 17 457 0
2021-01-26 01:41:05 GMT 28.336765 -15.337937 36,000 17 457 0
2021-01-26 01:41:01 GMT 28.328852 -15.340738 36,000 17 457 0
2021-01-26 01:40:57 GMT 28.320648 -15.343622 36,000 17 457 0
2021-01-26 01:40:54 GMT 28.314699 -15.345692 36,000 17 457 0
2021-01-26 01:40:50 GMT 28.307281 -15.348323 36,000 17 457 0
2021-01-26 01:40:47 GMT 28.300316 -15.350755 36,000 17 457 0
2021-01-26 01:40:43 GMT 28.293194 -15.353232 36,000 17 457 0
2021-01-26 01:40:39 GMT 28.285812 -15.355823 36,000 17 457 0
2021-01-26 01:40:36 GMT 28.279833 -15.357917 36,000 17 457 0
2021-01-26 01:40:33 GMT 28.273361 -15.360233 36,000 17 457 0
2021-01-26 01:40:29 GMT 28.261917 -15.364274 36,000 17 458 0
2021-01-26 01:40:24 GMT 28.252274 -15.367665 36,000 17 458 0
2021-01-26 01:40:21 GMT 28.248224 -15.369065 36,000 17 458 0
2021-01-26 01:40:16 GMT 28.237888 -15.372727 36,000 17 458 0
2021-01-26 01:40:10 GMT 28.225925 -15.376982 36,000 17 459 0
2021-01-26 01:40:06 GMT 28.217697 -15.379909 36,000 17 459 0
2021-01-26 01:40:03 GMT 28.209366 -15.382866 36,000 17 459 0
2021-01-26 01:40:00 GMT 28.205442 -15.384306 36,000 17 459 0
2021-01-26 01:39:57 GMT 28.199530 -15.386406 36,000 17 459 0
2021-01-26 01:39:54 GMT 28.193573 -15.388571 36,000 17 459 0
2021-01-26 01:39:50 GMT 28.185242 -15.391582 36,000 17 459 0
2021-01-26 01:39:47 GMT 28.178558 -15.393958 36,000 17 459 0
2021-01-26 01:39:43 GMT 28.171738 -15.396423 36,000 17 459 0
2021-01-26 01:39:40 GMT 28.164322 -15.399082 36,000 17 459 0
2021-01-26 01:39:35 GMT 28.155029 -15.402462 36,000 17 459 0
2021-01-26 01:39:31 GMT 28.146286 -15.405579 36,000 17 460 0
2021-01-26 01:39:25 GMT 28.133881 -15.410015 36,000 17 460 0
2021-01-26 01:39:21 GMT 28.125048 -15.413118 36,000 17 460 0
2021-01-26 01:39:17 GMT 28.115829 -15.416296 36,000 16 460 0
2021-01-26 01:39:14 GMT 28.112915 -15.417252 36,000 16 460 0
2021-01-26 01:39:08 GMT 28.100513 -15.421358 36,000 15 460 0
2021-01-26 01:39:04 GMT 28.092506 -15.423889 36,000 15 460 0
2021-01-26 01:38:57 GMT 28.077805 -15.428502 36,000 15 460 0
2021-01-26 01:38:54 GMT 28.071625 -15.430403 36,000 15 460 0
2021-01-26 01:38:48 GMT 28.059593 -15.434175 36,000 15 460 0
2021-01-26 01:38:44 GMT 28.050329 -15.437084 36,000 15 460 0
2021-01-26 01:38:38 GMT 28.038895 -15.440650 36,000 15 461 0
2021-01-26 01:38:34 GMT 28.029419 -15.443608 36,000 15 461 0
2021-01-26 01:38:28 GMT 28.016830 -15.447517 36,000 15 461 0
2021-01-26 01:38:24 GMT 28.008591 -15.450052 36,000 15 461 0
2021-01-26 01:38:18 GMT 27.996330 -15.453886 36,000 15 461 0
2021-01-26 01:38:13 GMT 27.987019 -15.456740 36,000 15 461 0
2021-01-26 01:38:07 GMT 27.975403 -15.460405 36,000 15 461 0
2021-01-26 01:38:03 GMT 27.965286 -15.463521 36,000 15 461 0
2021-01-26 01:37:56 GMT 27.952698 -15.467430 36,000 15 461 0
2021-01-26 01:37:53 GMT 27.945282 -15.469754 36,000 15 461 0
2021-01-26 01:37:45 GMT 27.926826 -15.475458 36,000 15 461 0
2021-01-26 01:37:42 GMT 27.923813 -15.476420 36,000 15 461 0
2021-01-26 01:37:35 GMT 27.908068 -15.481268 36,000 15 461 0
2021-01-26 01:37:32 GMT 27.901749 -15.483208 36,000 15 461 0
2021-01-26 01:37:26 GMT 27.886791 -15.487870 36,000 15 461 0
2021-01-26 01:37:21 GMT 27.880228 -15.489930 36,000 15 461 0
2021-01-26 01:37:15 GMT 27.867426 -15.493892 36,000 15 461 0
2021-01-26 01:37:11 GMT 27.858536 -15.496586 36,000 15 461 0
2021-01-26 01:37:04 GMT 27.842377 -15.501605 36,000 15 461 0
2021-01-26 01:37:00 GMT 27.836975 -15.503264 36,000 15 461 0
2021-01-26 01:36:55 GMT 27.823668 -15.507361 36,000 15 461 0
2021-01-26 01:36:50 GMT 27.816376 -15.509586 36,000 15 461 0
2021-01-26 01:36:43 GMT 27.801086 -15.514302 36,000 15 461 0
2021-01-26 01:36:40 GMT 27.794907 -15.516219 36,000 15 461 0
2021-01-26 01:36:34 GMT 27.780375 -15.520724 36,000 15 461 0
2021-01-26 01:36:29 GMT 27.773300 -15.522904 36,000 15 461 0
2021-01-26 01:36:25 GMT 27.763475 -15.525900 36,000 15 461 0
2021-01-26 01:36:21 GMT 27.755127 -15.528501 36,000 15 461 0
2021-01-26 01:36:18 GMT 27.748947 -15.530419 36,000 15 461 0
2021-01-26 01:36:12 GMT 27.737228 -15.534046 36,000 15 461 0
2021-01-26 01:36:08 GMT 27.729677 -15.536358 36,000 15 461 0
2021-01-26 01:36:04 GMT 27.721207 -15.538946 36,000 15 461 0
2021-01-26 01:36:01 GMT 27.715061 -15.540848 36,000 15 461 0
2021-01-26 01:35:58 GMT 27.708572 -15.542856 36,000 15 461 0
2021-01-26 01:35:53 GMT 27.698456 -15.545965 36,000 15 461 0
2021-01-26 01:35:50 GMT 27.691366 -15.548190 36,000 15 461 0
2021-01-26 01:35:46 GMT 27.684860 -15.550163 36,000 15 461 0
2021-01-26 01:35:43 GMT 27.678680 -15.552080 36,000 15 461 0
2021-01-26 01:35:40 GMT 27.670853 -15.554516 36,000 15 461 0
2021-01-26 01:35:37 GMT 27.664598 -15.556429 36,000 15 461 0
2021-01-26 01:35:33 GMT 27.657150 -15.558701 36,000 15 461 0
2021-01-26 01:35:29 GMT 27.649328 -15.561130 36,000 15 461 0
2021-01-26 01:35:26 GMT 27.643478 -15.562963 36,000 15 461 0
2021-01-26 01:35:22 GMT 27.635239 -15.565502 36,000 15 461 0
2021-01-26 01:35:19 GMT 27.628647 -15.567523 36,000 15 461 0
2021-01-26 01:35:16 GMT 27.622238 -15.569493 36,000 15 461 0
2021-01-26 01:35:12 GMT 27.614508 -15.571905 36,000 15 461 0
2021-01-26 01:35:09 GMT 27.607105 -15.574176 36,000 15 461 0
2021-01-26 01:35:05 GMT 27.598448 -15.576817 36,000 15 461 0
2021-01-26 01:35:01 GMT 27.589096 -15.579753 36,000 15 461 0
2021-01-26 01:34:58 GMT 27.584747 -15.581049 36,000 15 461 0
2021-01-26 01:34:55 GMT 27.578979 -15.582863 36,000 15 461 0
2021-01-26 01:34:52 GMT 27.572472 -15.584846 36,000 15 461 0
2021-01-26 01:34:49 GMT 27.565338 -15.587060 36,000 15 461 0
2021-01-26 01:34:45 GMT 27.558041 -15.589283 36,000 15 461 0
2021-01-26 01:34:42 GMT 27.551849 -15.591184 36,000 15 461 0
2021-01-26 01:34:38 GMT 27.543503 -15.593797 36,000 15 461 0
2021-01-26 01:34:30 GMT 27.525454 -15.599371 36,000 15 462 0
2021-01-26 01:34:27 GMT 27.519974 -15.601052 36,000 15 462 0
2021-01-26 01:34:21 GMT 27.509628 -15.604213 36,000 15 462 0
2021-01-26 01:34:18 GMT 27.500107 -15.607116 36,000 15 462 0
2021-01-26 01:34:11 GMT 27.487473 -15.611002 36,000 15 462 0
2021-01-26 01:34:06 GMT 27.478363 -15.613801 36,000 15 462 0
2021-01-26 01:34:01 GMT 27.466890 -15.617330 36,000 15 463 0
2021-01-26 01:33:58 GMT 27.461723 -15.618914 36,000 15 463 0
2021-01-26 01:33:55 GMT 27.454376 -15.621159 36,000 15 463 0
2021-01-26 01:33:52 GMT 27.449108 -15.622770 36,000 15 463 0
2021-01-26 01:33:49 GMT 27.439379 -15.625781 36,000 15 463 0
2021-01-26 01:33:46 GMT 27.435745 -15.626912 36,000 15 463 0
2021-01-26 01:33:40 GMT 27.424347 -15.630384 36,000 15 463 0
2021-01-26 01:33:37 GMT 27.416801 -15.632700 36,000 15 463 0
2021-01-26 01:33:33 GMT 27.408979 -15.635129 36,000 15 463 0
2021-01-26 01:33:30 GMT 27.402878 -15.637017 36,000 15 463 0
2021-01-26 01:33:25 GMT 27.390125 -15.640940 36,000 15 463 0
2021-01-26 01:33:20 GMT 27.381546 -15.643547 36,000 15 463 0
2021-01-26 01:33:16 GMT 27.374996 -15.645535 36,000 15 463 0
2021-01-26 01:33:09 GMT 27.360214 -15.650076 36,000 15 463 0
2021-01-26 01:33:06 GMT 27.353577 -15.652097 36,000 15 463 0
2021-01-26 01:33:00 GMT 27.341766 -15.655725 36,000 15 463 0
2021-01-26 01:32:57 GMT 27.334217 -15.658053 36,000 15 463 0
2021-01-26 01:32:53 GMT 27.326536 -15.660377 36,000 15 463 0
2021-01-26 01:32:49 GMT 27.317411 -15.663176 36,000 15 463 0
2021-01-26 01:32:46 GMT 27.311096 -15.665105 36,000 15 463 0
2021-01-26 01:32:39 GMT 27.296696 -15.669515 36,000 15 464 0
2021-01-26 01:32:35 GMT 27.289307 -15.671738 36,000 15 464 0
2021-01-26 01:32:28 GMT 27.274796 -15.676195 36,000 15 464 0
2021-01-26 01:32:25 GMT 27.268625 -15.678071 36,000 15 465 -64
2021-01-26 01:32:18 GMT 27.254101 -15.682561 36,000 15 465 0
2021-01-26 01:32:15 GMT 27.247444 -15.684568 36,000 15 465 0
2021-01-26 01:32:07 GMT 27.231949 -15.689358 36,000 15 465 0
2021-01-26 01:32:04 GMT 27.225563 -15.691276 36,000 15 466 0
2021-01-26 01:31:58 GMT 27.211075 -15.695732 36,000 15 466 64
2021-01-26 01:31:55 GMT 27.205261 -15.697545 36,000 15 466 64
2021-01-26 01:31:49 GMT 27.190138 -15.702157 36,000 15 466 0
2021-01-26 01:31:45 GMT 27.185028 -15.703712 36,000 15 466 0
2021-01-26 01:31:41 GMT 27.175102 -15.706752 36,000 15 466 0
2021-01-26 01:31:37 GMT 27.168137 -15.708895 36,000 15 466 0
2021-01-26 01:31:34 GMT 27.161974 -15.710766 36,000 15 466 0
2021-01-26 01:31:27 GMT 27.147079 -15.715321 36,000 15 465 0
2021-01-26 01:31:24 GMT 27.141165 -15.717104 36,000 15 465 0
2021-01-26 01:31:14 GMT 27.119518 -15.723707 36,000 15 465 0
2021-01-26 01:31:09 GMT 27.107227 -15.727457 36,000 15 465 0
2021-01-26 01:31:06 GMT 27.103180 -15.728691 36,000 15 464 -64
2021-01-26 01:31:03 GMT 27.097685 -15.730362 36,000 15 464 -64
2021-01-26 01:30:59 GMT 27.087910 -15.733373 36,000 15 464 0
2021-01-26 01:30:56 GMT 27.083347 -15.734746 36,000 15 464 0
2021-01-26 01:30:53 GMT 27.076923 -15.736700 36,000 15 464 0
2021-01-26 01:30:49 GMT 27.066122 -15.740028 36,000 15 465 0
2021-01-26 01:30:46 GMT 27.061615 -15.741387 36,000 15 465 0
2021-01-26 01:30:43 GMT 27.055389 -15.743305 36,000 15 465 0
2021-01-26 01:30:38 GMT 27.045315 -15.746366 36,000 15 465 0
2021-01-26 01:30:33 GMT 27.034700 -15.749588 36,000 15 465 0
2021-01-26 01:30:25 GMT 27.018034 -15.754711 36,000 15 465 0
2021-01-26 01:30:22 GMT 27.011797 -15.756613 36,000 15 465 0
2021-01-26 01:30:15 GMT 26.997458 -15.760997 36,000 15 465 0
2021-01-26 01:30:11 GMT 26.990150 -15.763215 36,000 15 466 0
2021-01-26 01:30:05 GMT 26.976517 -15.767350 36,000 15 466 0
2021-01-26 01:30:02 GMT 26.971018 -15.769025 36,000 15 466 0
2021-01-26 01:29:52 GMT 26.949829 -15.775486 36,000 15 465 0
2021-01-26 01:29:45 GMT 26.935778 -15.779800 36,000 15 465 0
2021-01-26 01:29:42 GMT 26.929230 -15.781809 36,000 15 465 0
2021-01-26 01:29:32 GMT 26.907990 -15.788286 36,000 15 465 0
2021-01-26 01:29:24 GMT 26.890732 -15.793520 36,000 15 465 0
2021-01-26 01:29:20 GMT 26.883173 -15.795805 36,000 15 465 0
2021-01-26 01:29:14 GMT 26.870045 -15.799819 36,000 15 464 0
2021-01-26 01:29:11 GMT 26.864548 -15.801449 36,000 15 464 0
2021-01-26 01:29:03 GMT 26.848572 -15.806320 36,000 15 464 0
2021-01-26 01:29:00 GMT 26.842440 -15.808217 36,000 15 464 0
2021-01-26 01:28:53 GMT 26.826370 -15.813057 36,000 15 464 0
2021-01-26 01:28:50 GMT 26.820969 -15.814716 36,000 15 463 0
2021-01-26 01:28:43 GMT 26.805943 -15.819256 36,000 15 463 0
2021-01-26 01:28:39 GMT 26.799179 -15.821349 36,000 15 463 0
2021-01-26 01:28:32 GMT 26.784575 -15.825753 36,000 15 463 0
2021-01-26 01:28:29 GMT 26.778488 -15.827619 36,000 15 464 0
2021-01-26 01:28:21 GMT 26.758575 -15.833631 36,000 15 464 0
2021-01-26 01:28:18 GMT 26.755417 -15.834615 36,000 15 464 0
2021-01-26 01:28:11 GMT 26.740906 -15.839020 36,000 15 464 0
2021-01-26 01:28:08 GMT 26.734812 -15.840859 36,000 15 464 0
2021-01-26 01:28:01 GMT 26.720240 -15.845243 36,000 15 464 0
2021-01-26 01:27:58 GMT 26.712433 -15.847623 36,000 15 464 0
2021-01-26 01:27:51 GMT 26.699059 -15.851687 36,000 15 465 0
2021-01-26 01:27:47 GMT 26.690643 -15.854256 36,000 15 465 0
2021-01-26 01:27:40 GMT 26.674294 -15.859187 36,000 15 465 0
2021-01-26 01:27:37 GMT 26.669174 -15.860734 36,000 15 465 0
2021-01-26 01:27:29 GMT 26.652412 -15.865790 36,000 15 466 0
2021-01-26 01:27:21 GMT 26.635515 -15.870913 36,000 15 466 0
2021-01-26 01:27:18 GMT 26.630219 -15.872498 36,000 15 466 0
2021-01-26 01:27:11 GMT 26.614241 -15.877304 36,000 15 466 -64
2021-01-26 01:27:08 GMT 26.609344 -15.878768 36,000 15 466 -64
2021-01-26 01:27:03 GMT 26.597761 -15.882269 36,000 15 466 0
2021-01-26 01:26:59 GMT 26.587519 -15.885333 36,000 15 467 0
2021-01-26 01:26:55 GMT 26.581699 -15.887076 36,000 15 467 0
2021-01-26 01:26:48 GMT 26.567036 -15.891512 36,000 15 468 0
2021-01-26 01:26:45 GMT 26.560455 -15.893486 36,000 15 468 0
2021-01-26 01:26:38 GMT 26.544876 -15.898168 36,000 15 468 0
2021-01-26 01:26:34 GMT 26.538666 -15.900015 36,000 15 467 0
2021-01-26 01:26:27 GMT 26.523193 -15.904679 36,000 15 467 64
2021-01-26 01:26:24 GMT 26.517151 -15.906493 36,000 15 467 0
2021-01-26 01:26:18 GMT 26.502375 -15.910950 36,000 15 467 0
2021-01-26 01:26:13 GMT 26.494228 -15.913432 36,000 15 467 0
2021-01-26 01:26:09 GMT 26.484638 -15.916337 36,000 15 467 64
2021-01-26 01:26:06 GMT 26.479523 -15.917842 36,000 15 467 64
2021-01-26 01:25:57 GMT 26.458832 -15.924061 36,000 15 466 0
2021-01-26 01:25:46 GMT 26.438232 -15.930331 36,000 15 465 64
2021-01-26 01:25:40 GMT 26.426147 -15.933959 36,000 15 465 0
2021-01-26 01:25:37 GMT 26.416487 -15.936884 36,000 15 464 64
2021-01-26 01:25:26 GMT 26.394791 -15.943442 36,000 15 464 0
2021-01-26 01:25:20 GMT 26.384628 -15.946500 36,000 15 464 0
2021-01-26 01:25:15 GMT 26.373642 -15.949816 36,000 15 464 0
2021-01-26 01:25:05 GMT 26.352757 -15.956110 36,025 15 464 -192
2021-01-26 01:24:56 GMT 26.330200 -15.962876 36,075 15 465 -448
2021-01-26 01:24:50 GMT 26.321985 -15.965353 36,100 15 465 -896
2021-01-26 01:24:45 GMT 26.310114 -15.968945 36,200 15 465 -896
2021-01-26 01:24:40 GMT 26.299576 -15.972100 36,250 15 467 -960
2021-01-26 01:24:35 GMT 26.288607 -15.975442 36,325 15 468 -1024
2021-01-26 01:24:24 GMT 26.266542 -15.982097 36,500 15 470 -960
2021-01-26 01:24:15 GMT 26.245331 -15.988528 36,650 15 473 -1024
2021-01-26 01:24:04 GMT 26.223953 -15.994954 36,850 15 473 -960
2021-01-26 01:23:53 GMT 26.201797 -16.001587 36,975 15 471 -384
2021-01-26 01:23:43 GMT 26.180607 -16.007925 37,000 15 470 0
2021-01-26 01:23:34 GMT 26.159500 -16.014282 37,000 15 470 0
2021-01-26 01:23:26 GMT 26.144531 -16.018791 37,000 15 470 0
2021-01-26 01:23:23 GMT 26.137499 -16.020920 37,000 15 470 0
2021-01-26 01:23:12 GMT 26.115280 -16.027550 37,000 15 470 0
2021-01-26 01:23:06 GMT 26.102005 -16.031488 37,000 15 470 0
2021-01-26 01:23:03 GMT 26.094950 -16.033594 37,000 15 470 0
2021-01-26 01:22:53 GMT 26.075912 -16.039314 37,000 15 470 0
2021-01-26 01:22:43 GMT 26.055038 -16.045584 37,000 15 470 0
2021-01-26 01:22:33 GMT 26.033455 -16.052029 37,000 15 470 0
2021-01-26 01:22:23 GMT 26.011341 -16.058632 37,000 15 470 0
2021-01-26 01:22:12 GMT 25.989349 -16.065226 37,000 15 471 0
2021-01-26 01:22:02 GMT 25.968187 -16.071571 37,000 15 471 0
2021-01-26 01:21:52 GMT 25.946262 -16.078121 37,000 15 471 0
2021-01-26 01:21:41 GMT 25.924255 -16.084658 37,000 15 471 0
2021-01-26 01:21:31 GMT 25.903063 -16.090956 37,000 15 471 0
2021-01-26 01:21:21 GMT 25.880585 -16.097666 37,000 15 471 0
2021-01-26 01:21:11 GMT 25.859629 -16.103897 37,000 15 471 0
2021-01-26 01:21:01 GMT 25.838121 -16.110289 37,000 15 470 0
2021-01-26 01:20:50 GMT 25.815079 -16.117147 37,000 15 470 0
2021-01-26 01:20:40 GMT 25.794434 -16.123301 37,000 15 470 0
2021-01-26 01:20:29 GMT 25.771545 -16.130117 37,000 15 470 0
2021-01-26 01:20:19 GMT 25.750076 -16.136524 37,000 15 469 0
2021-01-26 01:20:09 GMT 25.719088 -16.145758 37,000 15 470 0
2021-01-26 01:19:58 GMT 25.706589 -16.149494 37,000 15 470 0
2021-01-26 01:19:46 GMT 25.681320 -16.156973 37,000 15 470 0
2021-01-26 01:19:38 GMT 25.664520 -16.162008 37,000 15 470 0
2021-01-26 01:19:28 GMT 25.643509 -16.168264 37,000 15 470 0
2021-01-26 01:19:17 GMT 25.621216 -16.174927 37,000 15 470 0
2021-01-26 01:19:07 GMT 25.600204 -16.181183 37,000 15 470 0
2021-01-26 01:18:57 GMT 25.578918 -16.187540 37,000 15 470 0
2021-01-26 01:18:47 GMT 25.557970 -16.193745 37,000 15 470 0
2021-01-26 01:18:37 GMT 25.536509 -16.200171 37,000 15 471 0
2021-01-26 01:18:26 GMT 25.513559 -16.206959 37,000 15 471 0
2021-01-26 01:18:17 GMT 25.493076 -16.213022 37,000 15 471 0
2021-01-26 01:18:06 GMT 25.470917 -16.219603 37,000 15 472 0
2021-01-26 01:17:56 GMT 25.448868 -16.226145 37,000 15 472 0
2021-01-26 01:17:46 GMT 25.427624 -16.232454 37,000 15 472 0
2021-01-26 01:17:35 GMT 25.404465 -16.239319 37,000 15 474 0
2021-01-26 01:16:33 GMT 25.273590 -16.277973 37,000 15 474 0
2021-01-26 01:16:23 GMT 25.252680 -16.284122 37,000 14 473 0
2021-01-26 01:16:13 GMT 25.231705 -16.290232 37,000 14 474 0
2021-01-26 01:16:03 GMT 25.210133 -16.296558 37,000 15 475 0
2021-01-26 01:15:25 GMT 25.129669 -16.320089 37,000 14 474 0
2021-01-26 01:15:20 GMT 25.119461 -16.323038 37,000 14 474 0
2021-01-26 01:15:10 GMT 25.097849 -16.329260 37,000 14 474 0
2021-01-26 01:15:00 GMT 25.075424 -16.335754 37,000 14 474 0
2021-01-26 01:13:54 GMT 24.936951 -16.384735 37,000 20 475 0
2021-01-26 01:13:47 GMT 24.923836 -16.390150 37,000 20 475 0
2021-01-26 01:13:39 GMT 24.906601 -16.397299 37,000 20 474 0
2021-01-26 01:13:01 GMT 24.828497 -16.429691 37,000 20 473 0
2021-01-26 01:12:58 GMT 24.822351 -16.432230 37,000 20 473 0
2021-01-26 01:12:47 GMT 24.800379 -16.441351 37,000 20 473 0
2021-01-26 01:12:01 GMT 24.706009 -16.480509 37,000 20 472 0
2021-01-26 01:11:56 GMT 24.696442 -16.484476 37,000 20 471 0
2021-01-26 01:11:45 GMT 24.673384 -16.493952 37,000 20 471 0
2021-01-26 01:09:48 GMT 24.434198 -16.592567 37,000 20 470 0
2021-01-26 01:09:43 GMT 24.423958 -16.596766 37,000 20 470 0
2021-01-26 01:09:33 GMT 24.402542 -16.605627 37,000 20 470 0
2021-01-26 01:05:59 GMT 23.966721 -16.784006 37,000 20 469 0
We lost coverage of the aircraft here for a total of 44 minutes
2021-01-26 00:21:44 GMT 18.308487 -17.999775 35,625 0 478 448
2021-01-26 00:21:09 GMT 18.229204 -17.999950 35,375 0 474 576
2021-01-26 00:20:52 GMT 18.193909 -17.999922 35,275 0 474 704
2021-01-26 00:20:43 GMT 18.174362 -17.999893 35,025 0 478 1280
2021-01-26 00:20:28 GMT 18.139359 -17.999872 34,700 0 478 1280
2021-01-26 00:20:16 GMT 18.113937 -17.999846 34,450 0 480 1280
2021-01-26 00:20:08 GMT 18.095320 -17.999872 34,275 0 481 1280
2021-01-26 00:19:56 GMT 18.071159 -17.999872 34,050 0 483 1216
2021-01-26 00:19:47 GMT 18.048157 -17.999846 33,850 0 485 1024
2021-01-26 00:19:36 GMT 18.022476 -17.999846 33,675 0 485 960
2021-01-26 00:19:25 GMT 17.999542 -17.999846 33,525 0 485 896
2021-01-26 00:19:13 GMT 17.973862 -17.999748 33,350 0 485 896
2021-01-26 00:19:03 GMT 17.951111 -17.999748 33,175 0 486 1152
2021-01-26 00:18:53 GMT 17.925032 -17.999676 32,925 0 488 1472
2021-01-26 00:18:41 GMT 17.900208 -17.999653 32,650 0 490 1280
2021-01-26 00:18:31 GMT 17.877457 -17.999653 32,450 0 492 1344
2021-01-26 00:18:20 GMT 17.852509 -17.999653 32,200 0 494 1152
2021-01-26 00:18:09 GMT 17.827332 -17.999701 32,000 0 494 1088
2021-01-26 00:17:59 GMT 17.803764 -17.999775 31,850 0 495 896
2021-01-26 00:17:48 GMT 17.777414 -17.999823 31,700 0 494 704
2021-01-26 00:17:37 GMT 17.754278 -17.999775 31,600 0 492 384
2021-01-26 00:17:26 GMT 17.728180 -17.999748 31,500 0 490 640
2021-01-26 00:17:16 GMT 17.705399 -17.999725 31,375 0 488 832
2021-01-26 00:17:04 GMT 17.680492 -17.999676 31,225 0 488 896
2021-01-26 00:16:54 GMT 17.656752 -17.999626 31,050 0 487 1216
2021-01-26 00:16:44 GMT 17.633743 -17.999653 30,825 0 489 1472
2021-01-26 00:16:33 GMT 17.607779 -17.999626 30,500 0 491 1792
2021-01-26 00:16:22 GMT 17.584875 -17.999676 30,200 0 494 1792
2021-01-26 00:16:11 GMT 17.557503 -17.999725 29,850 0 498 1664
2021-01-26 00:16:01 GMT 17.533310 -17.999748 29,575 0 500 1600
2021-01-26 00:15:50 GMT 17.508224 -17.999748 29,325 0 502 1280
2021-01-26 00:15:39 GMT 17.485022 -17.999725 29,125 0 502 704
2021-01-26 00:15:28 GMT 17.458145 -17.999701 29,025 0 501 384
2021-01-26 00:15:18 GMT 17.434937 -17.999701 28,975 0 500 384
2021-01-26 00:15:07 GMT 17.407930 -17.999676 28,900 0 499 384
2021-01-26 00:14:56 GMT 17.384857 -17.999653 28,850 0 498 320
2021-01-26 00:14:44 GMT 17.358078 -17.999653 28,775 0 498 384
2021-01-26 00:14:35 GMT 17.335075 -17.999676 28,700 0 497 448
2021-01-26 00:14:24 GMT 17.308588 -17.999725 28,625 0 496 448
2021-01-26 00:14:12 GMT 17.284428 -17.999725 28,550 0 495 384
2021-01-26 00:14:01 GMT 17.259150 -17.999775 28,475 0 494 448
2021-01-26 00:13:52 GMT 17.235361 -17.999775 28,400 0 493 448
2021-01-26 00:13:40 GMT 17.211760 -17.999823 28,325 0 493 576
2021-01-26 00:13:31 GMT 17.185593 -17.999798 28,200 0 492 576
2021-01-26 00:13:19 GMT 17.162645 -17.999775 28,125 0 492 576
2021-01-26 00:13:08 GMT 17.136292 -17.999748 28,025 0 491 512
2021-01-26 00:13:04 GMT 17.129425 -17.999748 28,000 0 491 512
2021-01-26 00:12:58 GMT 17.112167 -17.999701 27,925 0 490 576
2021-01-26 00:12:46 GMT 17.087585 -17.999701 27,825 0 489 512
2021-01-26 00:12:35 GMT 17.062979 -17.999676 27,750 0 488 512
2021-01-26 00:12:26 GMT 17.040541 -17.999676 27,650 0 488 576
2021-01-26 00:12:13 GMT 17.007534 -17.999725 27,500 0 487 576
2021-01-26 00:12:00 GMT 16.984537 -17.999725 27,400 0 486 640
2021-01-26 00:11:51 GMT 16.961426 -17.999798 27,300 0 485 576
2021-01-26 00:11:40 GMT 16.932678 -17.999872 27,175 0 485 576
2021-01-26 00:11:28 GMT 16.910339 -17.999990 27,050 0 484 640
2021-01-26 00:11:16 GMT 16.884590 -18.000168 26,950 0 483 576
2021-01-26 00:11:07 GMT 16.861404 -18.000376 26,850 0 482 576
2021-01-26 00:11:04 GMT 16.858063 -18.000423 26,825 0 481 640
2021-01-26 00:10:54 GMT 16.836823 -18.000666 26,725 0 481 640
2021-01-26 00:10:44 GMT 16.813738 -18.000559 26,600 359 480 640
2021-01-26 00:10:35 GMT 16.789398 -17.999510 26,500 357 477 640
2021-01-26 00:10:23 GMT 16.765650 -17.997566 26,375 355 476 704
2021-01-26 00:10:12 GMT 16.742752 -17.994785 26,225 352 474 768
2021-01-26 00:10:03 GMT 16.719980 -17.991093 26,100 351 474 832
2021-01-26 00:09:51 GMT 16.695868 -17.986189 25,950 348 472 832
2021-01-26 00:09:41 GMT 16.673662 -17.980843 25,800 346 471 832
2021-01-26 00:09:31 GMT 16.651503 -17.974613 25,675 344 470 704
2021-01-26 00:09:19 GMT 16.628540 -17.967176 25,525 342 468 768
2021-01-26 00:09:08 GMT 16.605137 -17.958527 25,400 340 466 704
2021-01-26 00:08:58 GMT 16.584515 -17.949944 25,250 337 464 832
2021-01-26 00:08:47 GMT 16.562119 -17.939663 25,100 336 463 896
2021-01-26 00:08:41 GMT 16.554520 -17.936001 25,050 336 463 896
2021-01-26 00:08:36 GMT 16.542572 -17.930313 24,950 336 463 832
2021-01-26 00:08:25 GMT 16.522181 -17.920565 24,800 336 462 832
2021-01-26 00:08:15 GMT 16.500275 -17.910124 24,650 336 461 768
2021-01-26 00:08:03 GMT 16.478003 -17.899525 24,525 336 459 768
2021-01-26 00:07:53 GMT 16.458822 -17.890352 24,400 336 459 640
2021-01-26 00:07:41 GMT 16.436060 -17.879513 24,250 336 456 704
2021-01-26 00:07:32 GMT 16.417019 -17.870392 24,150 336 455 768
2021-01-26 00:07:21 GMT 16.396116 -17.860434 24,000 336 453 832
2021-01-26 00:07:09 GMT 16.375168 -17.850422 23,850 336 452 896
2021-01-26 00:07:03 GMT 16.363625 -17.844936 23,750 336 452 960
2021-01-26 00:07:00 GMT 16.355896 -17.841219 23,675 336 452 960
2021-01-26 00:06:54 GMT 16.346603 -17.836786 23,600 336 451 960
2021-01-26 00:06:49 GMT 16.335461 -17.831448 23,500 336 451 960
2021-01-26 00:06:43 GMT 16.325455 -17.826715 23,425 336 450 960
2021-01-26 00:06:38 GMT 16.315567 -17.821993 23,350 336 450 960
2021-01-26 00:06:34 GMT 16.309113 -17.818909 23,275 336 450 960
2021-01-26 00:06:27 GMT 16.294634 -17.811977 23,150 336 449 1024
2021-01-26 00:06:17 GMT 16.275009 -17.802622 23,000 336 448 1024
2021-01-26 00:06:05 GMT 16.253759 -17.792505 22,700 336 447 1024
2021-01-26 00:05:59 GMT 16.242920 -17.787348 22,700 336 447 1024
2021-01-26 00:05:55 GMT 16.225983 -17.779301 22,550 336 446 1024
2021-01-26 00:05:45 GMT 16.213531 -17.773373 22,425 336 445 1024
2021-01-26 00:05:34 GMT 16.194214 -17.764170 22,275 336 444 1024
2021-01-26 00:05:22 GMT 16.173798 -17.754436 22,075 336 443 1024
2021-01-26 00:05:13 GMT 16.154232 -17.745176 21,900 336 442 1024
2021-01-26 00:05:02 GMT 16.133003 -17.735023 21,700 336 441 1088
2021-01-26 00:04:51 GMT 16.114197 -17.726097 21,525 336 440 1024
2021-01-26 00:04:41 GMT 16.097763 -17.718296 21,375 336 440 1024
2021-01-26 00:04:39 GMT 16.093203 -17.716141 21,225 336 438 1024
2021-01-26 00:04:30 GMT 16.074051 -17.707022 21,150 336 438 960
2021-01-26 00:04:27 GMT 16.070755 -17.705431 21,125 336 438 960
2021-01-26 00:04:18 GMT 16.053589 -17.697289 21,000 336 436 960
2021-01-26 00:04:09 GMT 16.037292 -17.689558 20,850 336 434 960
2021-01-26 00:04:07 GMT 16.015778 -17.679316 20,700 336 433 960
2021-01-26 00:03:58 GMT 16.015778 -17.679316 20,675 336 433 960
2021-01-26 00:03:46 GMT 15.994812 -17.669340 20,475 336 431 960
2021-01-26 00:03:36 GMT 15.972399 -17.658659 20,275 336 429 960
2021-01-26 00:03:29 GMT 15.964874 -17.655127 20,200 336 428 1024
2021-01-26 00:03:23 GMT 15.950089 -17.648043 20,050 336 427 1024
2021-01-26 00:03:19 GMT 15.946289 -17.646259 20,025 336 427 1024
2021-01-26 00:03:09 GMT 15.928593 -17.637863 19,850 336 425 1024
2021-01-26 00:02:58 GMT 15.909227 -17.628641 19,675 336 423 1024
2021-01-26 00:02:49 GMT 15.892319 -17.620625 19,525 336 422 960
2021-01-26 00:02:38 GMT 15.870987 -17.610506 19,350 336 420 1152
2021-01-26 00:02:28 GMT 15.856796 -17.603760 19,150 336 419 1216
2021-01-26 00:02:26 GMT 15.851409 -17.601177 19,075 336 419 1216
2021-01-26 00:02:19 GMT 15.839911 -17.595734 18,950 336 419 1216
2021-01-26 00:02:16 GMT 15.832695 -17.592299 18,875 336 418 1152
2021-01-26 00:02:09 GMT 15.821823 -17.587185 18,750 336 417 1088
2021-01-26 00:02:05 GMT 15.814407 -17.583666 18,675 336 417 1152
2021-01-26 00:01:59 GMT 15.804345 -17.578861 18,575 336 415 1152
2021-01-26 00:01:54 GMT 15.794586 -17.574270 18,450 336 415 1216
2021-01-26 00:01:49 GMT 15.786422 -17.570425 18,350 336 414 1280
2021-01-26 00:01:44 GMT 15.776274 -17.565619 18,225 336 414 1344
2021-01-26 00:01:39 GMT 15.768919 -17.562136 18,125 336 413 1408
2021-01-26 00:01:34 GMT 15.758011 -17.556971 18,000 336 413 1472
2021-01-26 00:01:28 GMT 15.750687 -17.553453 17,875 336 413 1472
2021-01-26 00:01:19 GMT 15.733887 -17.545504 17,650 336 413 1408
2021-01-26 00:01:12 GMT 15.720474 -17.539143 17,475 336 413 1344
2021-01-26 00:01:09 GMT 15.716812 -17.537409 17,425 336 413 1408
2021-01-26 00:00:59 GMT 15.699416 -17.529177 17,200 336 412 1344
2021-01-26 00:00:49 GMT 15.681820 -17.520840 16,975 336 412 1344
2021-01-26 00:00:39 GMT 15.664456 -17.512600 16,750 336 411 1280
2021-01-26 00:00:29 GMT 15.647092 -17.504410 16,550 336 410 1280
2021-01-26 00:00:18 GMT 15.627090 -17.494957 16,325 336 409 1216
2021-01-26 00:00:09 GMT 15.612177 -17.487928 16,125 336 407 1024
2021-01-26 00:00:06 GMT 15.607895 -17.485868 16,100 336 407 1024
2021-01-25 23:59:59 GMT 15.595000 -17.479738 15,950 336 404 1280
2021-01-25 23:59:57 GMT 15.590251 -17.477482 15,875 336 404 1408
2021-01-25 23:59:48 GMT 15.576828 -17.471153 15,650 336 404 1984
2021-01-25 23:59:45 GMT 15.570831 -17.468309 15,525 336 406 2368
2021-01-25 23:59:39 GMT 15.560715 -17.463491 15,300 336 408 2368
2021-01-25 23:59:34 GMT 15.552933 -17.459829 15,125 336 410 1920
2021-01-25 23:59:28 GMT 15.542256 -17.454775 14,950 336 410 1600
2021-01-25 23:59:25 GMT 15.535692 -17.451685 14,875 336 410 1536
2021-01-25 23:59:18 GMT 15.524139 -17.446194 14,700 336 410 1472
2021-01-25 23:59:13 GMT 15.515350 -17.442049 14,575 336 409 1344
2021-01-25 23:59:09 GMT 15.509125 -17.439110 14,500 336 409 1280
2021-01-25 23:59:02 GMT 15.497543 -17.433617 14,350 336 408 1280
2021-01-25 23:58:58 GMT 15.491095 -17.430593 14,275 336 407 1280
2021-01-25 23:58:52 GMT 15.479783 -17.425247 14,125 336 405 1408
2021-01-25 23:58:49 GMT 15.474197 -17.422583 14,050 336 405 1408
2021-01-25 23:58:41 GMT 15.460510 -17.416124 13,850 336 404 1536
2021-01-25 23:58:38 GMT 15.456940 -17.414438 13,800 336 404 1536
2021-01-25 23:58:31 GMT 15.443436 -17.408030 13,600 336 403 1536
2021-01-25 23:58:28 GMT 15.439934 -17.406366 13,550 336 403 1600
2021-01-25 23:58:18 GMT 15.423082 -17.398420 13,275 336 403 1600
2021-01-25 23:58:07 GMT 15.405718 -17.390228 13,000 336 402 1664
2021-01-25 23:57:58 GMT 15.389511 -17.382540 12,725 336 402 1600
2021-01-25 23:57:47 GMT 15.367499 -17.372181 12,425 336 400 1408
2021-01-25 23:57:36 GMT 15.348459 -17.363205 12,150 336 397 1472
2021-01-25 23:57:28 GMT 15.338654 -17.358591 12,000 336 396 1536
2021-01-25 23:57:24 GMT 15.331048 -17.354965 11,875 336 396 1536
2021-01-25 23:57:18 GMT 15.321945 -17.350689 11,750 336 394 1472
2021-01-25 23:57:13 GMT 15.312927 -17.346449 11,625 336 393 1472
2021-01-25 23:57:08 GMT 15.305212 -17.342802 11,500 336 392 1472
2021-01-25 23:57:04 GMT 15.295948 -17.338436 11,375 336 391 1472
2021-01-25 23:56:58 GMT 15.288391 -17.334885 11,250 336 390 1536
2021-01-25 23:56:53 GMT 15.277281 -17.329657 11,075 336 389 1536
2021-01-25 23:56:47 GMT 15.270126 -17.326307 10,950 336 388 1664
2021-01-25 23:56:41 GMT 15.260788 -17.321875 10,800 336 387 1792
2021-01-25 23:56:37 GMT 15.254929 -17.319078 10,675 336 387 1856
2021-01-25 23:56:31 GMT 15.241761 -17.312883 10,425 336 387 1920
2021-01-25 23:56:28 GMT 15.239182 -17.311659 10,375 336 387 1920
2021-01-25 23:56:21 GMT 15.224584 -17.304790 10,075 336 387 1920
2021-01-25 23:56:18 GMT 15.222839 -17.303949 10,050 336 387 1920
2021-01-25 23:56:08 GMT 15.206754 -17.296354 9,725 336 387 1856
2021-01-25 23:55:58 GMT 15.190088 -17.288507 9,425 336 386 1728
2021-01-25 23:55:48 GMT 15.173655 -17.280758 9,150 336 383 1664
2021-01-25 23:55:37 GMT 15.155221 -17.272078 8,875 336 382 1792
2021-01-25 23:55:27 GMT 15.137878 -17.263906 8,450 336 381 1920
2021-01-25 23:55:17 GMT 15.121078 -17.256004 8,125 336 380 1856
2021-01-25 23:55:08 GMT 15.109222 -17.250414 7,925 336 379 1728
2021-01-25 23:55:06 GMT 15.104553 -17.248198 7,825 336 379 1664
2021-01-25 23:54:58 GMT 15.093201 -17.242849 7,650 336 377 1472
2021-01-25 23:54:55 GMT 15.087296 -17.240103 7,550 336 376 1344
2021-01-25 23:54:45 GMT 15.070170 -17.232006 7,275 336 371 1728
2021-01-25 23:54:38 GMT 15.061837 -17.228083 7,125 336 370 1792
2021-01-25 23:54:34 GMT 15.052899 -17.223866 6,950 336 370 1792
2021-01-25 23:54:28 GMT 15.045544 -17.220383 6,825 336 369 1792
2021-01-25 23:54:22 GMT 15.036438 -17.216106 6,650 336 368 1792
2021-01-25 23:54:18 GMT 15.030075 -17.213072 6,525 336 367 1600
2021-01-25 23:54:12 GMT 15.019226 -17.207964 6,350 336 366 1344
2021-01-25 23:54:08 GMT 15.014540 -17.205767 6,300 336 363 1216
2021-01-25 23:54:02 GMT 15.003250 -17.200495 6,175 336 359 576
2021-01-25 23:53:58 GMT 14.999634 -17.198759 6,150 336 357 512
2021-01-25 23:53:51 GMT 14.986515 -17.192623 6,075 336 349 704
2021-01-25 23:53:48 GMT 14.984607 -17.191690 6,050 336 348 640
2021-01-25 23:53:38 GMT 14.969617 -17.184677 5,950 336 339 704
2021-01-25 23:53:28 GMT 14.955597 -17.178087 5,825 336 331 768
2021-01-25 23:53:18 GMT 14.942151 -17.171728 5,700 336 321 704
2021-01-25 23:53:07 GMT 14.925997 -17.164127 5,575 336 312 768
2021-01-25 23:52:58 GMT 14.915268 -17.159054 5,450 336 302 704
2021-01-25 23:52:56 GMT 14.912684 -17.157848 5,425 336 300 704
2021-01-25 23:52:47 GMT 14.899887 -17.151827 5,300 336 289 832
2021-01-25 23:52:38 GMT 14.890571 -17.147451 5,125 336 284 1792
2021-01-25 23:52:35 GMT 14.886149 -17.145342 5,025 336 284 1920
2021-01-25 23:52:27 GMT 14.878052 -17.141563 4,800 336 283 1984
2021-01-25 23:52:25 GMT 14.873533 -17.139458 4,675 336 282 1984
2021-01-25 23:52:18 GMT 14.866791 -17.136311 4,500 336 281 1728
2021-01-25 23:52:14 GMT 14.861572 -17.133854 4,375 336 280 1664
2021-01-25 23:52:08 GMT 14.854477 -17.130529 4,200 336 278 1664
2021-01-25 23:52:02 GMT 14.847885 -17.127445 4,025 336 276 1792
2021-01-25 23:51:57 GMT 14.842072 -17.124746 3,875 337 275 1792
2021-01-25 23:51:52 GMT 14.834564 -17.121422 3,700 337 274 1856
2021-01-25 23:51:42 GMT 14.822931 -17.116121 3,375 337 272 1984
2021-01-25 23:51:37 GMT 14.819439 -17.114578 3,275 337 271 1984
2021-01-25 23:51:30 GMT 14.811246 -17.110821 3,025 336 270 1984
2021-01-25 23:51:27 GMT 14.807569 -17.109135 2,925 336 270 1984
2021-01-25 23:51:21 GMT 14.799236 -17.105328 2,725 336 268 1280
2021-01-25 23:51:17 GMT 14.796341 -17.104008 2,675 336 267 960
2021-01-25 23:51:08 GMT 14.785583 -17.098989 2,550 336 256 832
2021-01-25 23:50:58 GMT 14.774842 -17.094004 2,450 336 245 448
2021-01-25 23:50:48 GMT 14.764984 -17.089422 2,375 336 232 512
2021-01-25 23:50:37 GMT 14.754089 -17.084402 2,300 336 219 256
2021-01-25 23:50:26 GMT 14.743835 -17.079620 2,250 337 206 192
2021-01-25 23:50:16 GMT 14.735138 -17.076590 2,200 349 192 512
2021-01-25 23:50:08 GMT 14.728500 -17.075644 2,125 355 185 320
2021-01-25 23:50:04 GMT 14.725031 -17.075260 2,100 355 180 384
2021-01-25 23:49:58 GMT 14.720143 -17.074778 2,025 355 177 1344
2021-01-25 23:49:57 GMT 14.719345 -17.074696 2,000 355 176 1664
2021-01-25 23:49:56 GMT 14.716792 -17.074440 1,900 355 176 1728
2021-01-25 23:49:54 GMT 14.716792 -17.074440 1,900 355 175 1728
2021-01-25 23:49:53 GMT 14.716003 -17.074364 1,875 355 175 1664
2021-01-25 23:49:52 GMT 14.715179 -17.074268 1,850 355 174 1664
2021-01-25 23:49:50 GMT 14.713626 -17.074150 1,800 355 174 1664
2021-01-25 23:49:49 GMT 14.712695 -17.074055 1,775 356 173 1600
2021-01-25 23:49:48 GMT 14.711904 -17.073959 1,750 356 172 1600
2021-01-25 23:49:46 GMT 14.710373 -17.073843 1,700 356 171 1664
2021-01-25 23:49:44 GMT 14.708831 -17.073717 1,625 356 170 1728
2021-01-25 23:49:42 GMT 14.706573 -17.073559 1,550 356 169 1728
2021-01-25 23:49:40 GMT 14.705795 -17.073511 1,525 357 168 1728
2021-01-25 23:49:39 GMT 14.704926 -17.073463 1,500 357 168 1728
2021-01-25 23:49:38 GMT 14.704083 -17.073380 1,475 357 167 1728
2021-01-25 23:49:37 GMT 14.703278 -17.073370 1,425 357 167 1792
2021-01-25 23:49:35 GMT 14.701709 -17.073284 1,375 358 165 1920
2021-01-25 23:49:34 GMT 14.700173 -17.073189 1,300 358 165 2048
2021-01-25 23:49:32 GMT 14.699524 -17.073179 1,275 359 165 2176
2021-01-25 23:49:30 GMT 14.698105 -17.073133 1,200 359 165 2240
2021-01-25 23:49:29 GMT 14.696732 -17.073086 1,125 359 165 2432
2021-01-25 23:49:27 GMT 14.695843 -17.073044 1,075 359 165 2496
2021-01-25 23:49:26 GMT 14.695129 -17.073038 1,050 359 165 2624
2021-01-25 23:49:25 GMT 14.693562 -17.072994 950 359 166 2880
2021-01-25 23:49:23 GMT 14.692724 -17.072994 900 359 167 2944
2021-01-25 23:49:22 GMT 14.692017 -17.072990 850 359 169 3008
2021-01-25 23:49:21 GMT 14.690369 -17.072943 750 359 171 2880
2021-01-25 23:49:19 GMT 14.689499 -17.072943 700 0 172 2816
2021-01-25 23:49:18 GMT 14.688812 -17.072943 650 0 173 2752
2021-01-25 23:49:17 GMT 14.688080 -17.072895 600 0 174 2688
2021-01-25 23:49:15 GMT 14.685741 -17.072899 475 0 177 2496
2021-01-25 23:49:14 GMT 14.684950 -17.072899 450 0 178 2368
2021-01-25 23:49:12 GMT 14.684006 -17.072895 400 0 180 1856
2021-01-25 23:49:11 GMT 14.682312 -17.072895 325 0 180 1472
2021-01-25 23:49:09 GMT 14.681459 -17.072899 300 0 179 1088
2021-01-25 23:49:07 GMT 14.679840 -17.072895 250 0 176 448
2021-01-25 23:49:05 GMT 14.678146 -17.072895 250 0 171 64
2021-01-25 23:49:04 GMT 14.677414 -17.072895 250 0 169 0
2021-01-25 23:49:03 GMT 14.675720 -17.072849 300 0 164 64
2021-01-25 23:49:02 GMT 14.674895 -17.072849 300 0 161 -128
2021-01-25 23:49:00 GMT 14.674150 -17.072849 300 0 158 -128
2021-01-25 23:48:58 GMT 14.672653 -17.072849 300 0 152 -64
2021-01-25 23:48:56 GMT 14.671357 -17.072802 325 0 147 -64
2021-01-25 23:48:54 GMT 14.670044 -17.072802 325 0 141 0
2021-01-25 23:48:51 GMT 14.667446 -17.072802 325 0 128 0
2021-01-25 23:48:47 GMT 14.666236 -17.072754 325 0 119 0
2021-01-25 23:48:46 GMT 14.665724 -17.072754 325 0 119 0
2021-01-25 23:48:39 GMT 14.661814 -17.072754 325 0 92
2021-01-25 23:48:37 GMT 14.660397 -17.072718 0 0 82
2021-01-25 23:48:35 GMT 14.660397 -17.072718 0 0 82
2021-01-25 23:48:33 GMT 14.659637 -17.072706 0 0 72
2021-01-25 23:48:32 GMT 14.658016 -17.072695 0 0 64
2021-01-25 23:48:29 GMT 14.658016 -17.072695 0 0 53
2021-01-25 23:48:18 GMT 14.656391 -17.072672 0 0 21
2021-01-25 23:48:16 GMT 14.656174 -17.072672 0 0 15
2021-01-25 23:48:11 GMT 14.655901 -17.072670 0 357 8
2021-01-25 23:48:08 GMT 14.655773 -17.072683 0 351 5
2021-01-25 23:48:01 GMT 14.655680 -17.072695 0 343 3
2021-01-25 23:47:57 GMT 14.655622 -17.072718 0 331 3
2021-01-25 23:47:51 GMT 14.655579 -17.072718 0 323 1
2021-01-25 23:47:45 GMT 14.655552 -17.072718 0 320 0
2021-01-25 23:47:35 GMT 14.655476 -17.072729 0 303 4
2021-01-25 23:47:24 GMT 14.655304 -17.072588 0 270 5
2021-01-25 23:47:13 GMT 14.655304 -17.072329 0 270 6
2021-01-25 23:47:03 GMT 14.655293 -17.072008 0 270 7
2021-01-25 23:46:52 GMT 14.655296 -17.071646 0 267 6
2021-01-25 23:46:42 GMT 14.655304 -17.071440 0 267 3
2021-01-25 23:46:31 GMT 14.655304 -17.071392 0 264 0
2021-01-25 23:46:20 GMT 14.655296 -17.071381 0 264 0
2021-01-25 23:46:08 GMT 14.655273 -17.071308 0 255 3
2021-01-25 23:45:59 GMT 14.655258 -17.071096 0 227 7
2021-01-25 23:45:48 GMT 14.655441 -17.070824 0 188 8
2021-01-25 23:45:36 GMT 14.655876 -17.070765 0 177 9
2021-01-25 23:45:27 GMT 14.656390 -17.070778 0 180 13
2021-01-25 23:45:16 GMT 14.657007 -17.070778 0 180 12
2021-01-25 23:45:04 GMT 14.657650 -17.070778 0 177 23
2021-01-25 23:44:55 GMT 14.658450 -17.070778 0 177 23
2021-01-25 23:44:51 GMT 14.658817 -17.070789 0 180 25
2021-01-25 23:44:49 GMT 14.659058 -17.070789 0 180 26
2021-01-25 23:44:44 GMT 14.660030 -17.070801 0 180 30
2021-01-25 23:44:39 GMT 14.660477 -17.070812 0 180 29
2021-01-25 23:44:37 GMT 14.660685 -17.070814 0 180 29
2021-01-25 23:44:36 GMT 14.660877 -17.070812 0 180 29
2021-01-25 23:44:34 GMT 14.661139 -17.070814 0 180 28
2021-01-25 23:44:31 GMT 14.661415 -17.070812 0 180 28
2021-01-25 23:44:30 GMT 14.661616 -17.070814 0 180 28
2021-01-25 23:44:26 GMT 14.662273 -17.070835 0 180 27
2021-01-25 23:44:23 GMT 14.662430 -17.070839 0 180 27
2021-01-25 23:44:22 GMT 14.662594 -17.070835 0 180 26
2021-01-25 23:44:21 GMT 14.662733 -17.070839 0 180 26
2021-01-25 23:44:19 GMT 14.662977 -17.070839 0 180 26
2021-01-25 23:44:18 GMT 14.663094 -17.070839 0 180 26
2021-01-25 23:44:16 GMT 14.663326 -17.070839 0 180 25
2021-01-25 23:44:13 GMT 14.663681 -17.070848 0 180 25
2021-01-25 23:44:10 GMT 14.664013 -17.070848 0 180 24
2021-01-25 23:44:08 GMT 14.664211 -17.070850 0 180 24
2021-01-25 23:44:07 GMT 14.664379 -17.070848 0 180 24
2021-01-25 23:44:01 GMT 14.665192 -17.070848 0 180 22
2021-01-25 23:43:57 GMT 14.665398 -17.070850 0 180 22
2021-01-25 23:43:55 GMT 14.665604 -17.070860 0 180 22
2021-01-25 23:43:53 GMT 14.665810 -17.070860 0 180 21
2021-01-25 23:43:51 GMT 14.665980 -17.070864 0 180 21
2021-01-25 23:43:49 GMT 14.666166 -17.070875 0 180 21
2021-01-25 23:43:47 GMT 14.666393 -17.070871 0 180 20
2021-01-25 23:43:45 GMT 14.666531 -17.070871 0 180 20
2021-01-25 23:43:44 GMT 14.666691 -17.070860 0 180 20
2021-01-25 23:43:43 GMT 14.666782 -17.070860 0 180 19
2021-01-25 23:43:40 GMT 14.667034 -17.070860 0 177 19
2021-01-25 23:43:39 GMT 14.667103 -17.070860 0 177 19
2021-01-25 23:43:37 GMT 14.667283 -17.070864 0 177 18
2021-01-25 23:43:36 GMT 14.667353 -17.070864 0 177 18
2021-01-25 23:43:35 GMT 14.667469 -17.070871 0 180 18
2021-01-25 23:43:34 GMT 14.667516 -17.070875 0 180 18
2021-01-25 23:43:33 GMT 14.667691 -17.070875 0 180 17
2021-01-25 23:43:31 GMT 14.667767 -17.070883 0 180 17
2021-01-25 23:43:30 GMT 14.667847 -17.070883 0 180 17
2021-01-25 23:43:25 GMT 14.668224 -17.070883 0 180 16
2021-01-25 23:43:22 GMT 14.668412 -17.070887 0 180 16
2021-01-25 23:43:18 GMT 14.668694 -17.070883 0 180 15
2021-01-25 23:43:14 GMT 14.668934 -17.070894 0 180 14
2021-01-25 23:43:12 GMT 14.669094 -17.070894 0 180 14
2021-01-25 23:43:09 GMT 14.669266 -17.070894 0 180 13
2021-01-25 23:43:08 GMT 14.669320 -17.070898 0 180 13
2021-01-25 23:43:07 GMT 14.669415 -17.070894 0 180 12
2021-01-25 23:43:05 GMT 14.669495 -17.070894 0 180 12
2021-01-25 23:43:04 GMT 14.669576 -17.070898 0 180 11
2021-01-25 23:43:02 GMT 14.669634 -17.070898 0 180 11
2021-01-25 23:42:58 GMT 14.669809 -17.070898 0 182 10
2021-01-25 23:42:56 GMT 14.669902 -17.070898 0 185 10
2021-01-25 23:42:53 GMT 14.670030 -17.070898 0 188 9
2021-01-25 23:42:52 GMT 14.670067 -17.070908 0 191 9
2021-01-25 23:42:51 GMT 14.670111 -17.070898 0 194 9
2021-01-25 23:42:49 GMT 14.670193 -17.070908 0 199 9
2021-01-25 23:42:47 GMT 14.670273 -17.070894 0 205 9
2021-01-25 23:42:45 GMT 14.670353 -17.070883 0 213 9
2021-01-25 23:42:43 GMT 14.670437 -17.070864 0 222 9
2021-01-25 23:42:41 GMT 14.670507 -17.070839 0 230 10
2021-01-25 23:42:40 GMT 14.670542 -17.070814 0 236 9
2021-01-25 23:42:39 GMT 14.670582 -17.070789 0 239 10
2021-01-25 23:42:37 GMT 14.670639 -17.070728 0 247 10
2021-01-25 23:42:33 GMT 14.670752 -17.070513 0 258 9
2021-01-25 23:42:23 GMT 14.670763 -17.070200 0 244 8
2021-01-25 23:42:22 GMT 14.670763 -17.070175 0 241 7
2021-01-25 23:42:21 GMT 14.670765 -17.070139 0 236 7
2021-01-25 23:42:20 GMT 14.670776 -17.070066 0 227 7
2021-01-25 23:42:18 GMT 14.670775 -17.070044 0 225 7
2021-01-25 23:42:17 GMT 14.670788 -17.070019 0 219 7
2021-01-25 23:42:16 GMT 14.670798 -17.069983 0 213 6
2021-01-25 23:42:14 GMT 14.670811 -17.069937 0 208 6
2021-01-25 23:42:13 GMT 14.670821 -17.069910 0 202 6
2021-01-25 23:42:11 GMT 14.670856 -17.069862 0 196 4
2021-01-25 23:42:09 GMT 14.670880 -17.069839 0 191 6
2021-01-25 23:42:08 GMT 14.670903 -17.069826 0 191 6
2021-01-25 23:41:58 GMT 14.671120 -17.069771 0 180 4
2021-01-25 23:41:57 GMT 14.671143 -17.069771 0 180 4
2021-01-25 23:41:56 GMT 14.671154 -17.069771 0 180 4
2021-01-25 23:41:55 GMT 14.671171 -17.069765 0 180 4
2021-01-25 23:41:54 GMT 14.671200 -17.069771 0 177 3
2021-01-25 23:41:52 GMT 14.671217 -17.069765 0 177 3
2021-01-25 23:41:51 GMT 14.671234 -17.069771 0 177 3
2021-01-25 23:41:47 GMT 14.671268 -17.069771 0 177 0
2021-01-25 23:41:42 GMT 14.671310 -17.069778 0 177 0
2021-01-25 23:41:37 GMT 14.671322 -17.069778 0 177 0
2021-01-25 23:41:27 GMT 14.671326 -17.069771 0 177 0
2021-01-25 23:41:17 GMT 14.671322 -17.069778 0 177 0
2021-01-25 23:41:12 GMT 14.671326 -17.069771 0 177 0
2021-01-25 23:41:07 GMT 14.671322 -17.069778 0 177 0
2021-01-25 23:40:57 GMT 14.671326 -17.069771 0 177 0
2021-01-25 23:40:53 GMT 14.671326 -17.069771 0 177 0
2021-01-25 23:40:47 GMT 14.671326 -17.069771 0 177 0
2021-01-25 23:40:43 GMT 14.671322 -17.069765 0 177 0
2021-01-25 23:40:37 GMT 14.671322 -17.069765 0 177 0
2021-01-25 23:40:31 GMT 14.671326 -17.069771 0 177 0
2021-01-25 23:40:26 GMT 14.671322 -17.069765 0 177 0
2021-01-25 23:40:21 GMT 14.671326 -17.069771 0 177 0
2021-01-25 23:40:11 GMT 14.671322 -17.069765 0 177 0
2021-01-25 23:40:06 GMT 14.671326 -17.069771 0 177 0
2021-01-25 23:40:01 GMT 14.671322 -17.069765 0 177 0
2021-01-25 23:39:57 GMT 14.671326 -17.069771 0 177 0
2021-01-25 23:39:56 GMT 14.671322 -17.069765 0 177 0
2021-01-25 23:39:55 GMT 14.671326 -17.069771 0 177 0
2021-01-25 23:39:51 GMT 14.671326 -17.069771 0 177 0
2021-01-25 23:39:45 GMT 14.671326 -17.069771 0 177 0
2021-01-25 23:39:41 GMT 14.671322 -17.069765 0 177 0
2021-01-25 23:39:37 GMT 14.671322 -17.069765 0 177 0
2021-01-25 23:39:36 GMT 14.671333 -17.069765 0 177 0
2021-01-25 23:39:33 GMT 14.671322 -17.069765 0 177 0
We lost coverage of the aircraft here for a total of 66 minutes
2021-01-25 22:33:04 GMT 14.670786 -17.068321 0 90 0 0
2021-01-25 22:33:03 GMT 14.670788 -17.068314 0 90 0 0
2021-01-25 22:32:42 GMT 14.670786 -17.068321 0 90 0 0
2021-01-25 22:32:30 GMT 14.670798 -17.068333 0 90 0 0
2021-01-25 22:32:20 GMT 14.670798 -17.068394 0 90 3 0
2021-01-25 22:32:09 GMT 14.670799 -17.068516 0 90 4 0
2021-01-25 22:31:59 GMT 14.670798 -17.068743 0 90 6 0
2021-01-25 22:31:51 GMT 14.670788 -17.068966 0 90 9 0
2021-01-25 22:31:48 GMT 14.670788 -17.069155 0 90 9 0
2021-01-25 22:31:45 GMT 14.670786 -17.069212 0 90 10 0
2021-01-25 22:31:35 GMT 14.670786 -17.069681 0 90 10 0
2021-01-25 22:31:27 GMT 14.670775 -17.070091 0 95 14 0
2021-01-25 22:31:16 GMT 14.670879 -17.070753 0 154 12 0
2021-01-25 22:31:06 GMT 14.671326 -17.070908 0 180 13 0
2021-01-25 22:30:55 GMT 14.672218 -17.070911 0 180 18 0
2021-01-25 22:30:44 GMT 14.673079 -17.070923 0 180 19 0
2021-01-25 22:30:32 GMT 14.673958 -17.070919 0 180 18 0
2021-01-25 22:30:23 GMT 14.674790 -17.070934 0 180 17 0
2021-01-25 22:30:12 GMT 14.675581 -17.070934 0 180 17 0
2021-01-25 22:30:00 GMT 14.676418 -17.070944 0 180 15 0
2021-01-25 22:29:51 GMT 14.677059 -17.070959 0 180 13 0
2021-01-25 22:29:39 GMT 14.677746 -17.070959 0 163 13 0
2021-01-25 22:29:29 GMT 14.678316 -17.071199 0 92 15 0
2021-01-25 22:29:17 GMT 14.678270 -17.071754 0 30 11 0
2021-01-25 22:29:07 GMT 14.677723 -17.072067 0 28 18 0
2021-01-25 22:28:57 GMT 14.676664 -17.072584 0 16 22 0
2021-01-25 22:28:45 GMT 14.675743 -17.072813 0 2 20 0
2021-01-25 22:28:38 GMT 14.675194 -17.072838 0 0 20 0
2021-01-25 22:28:33 GMT 14.674580 -17.072838 0 0 31 0
2021-01-25 22:28:30 GMT 14.674150 -17.072838 0 0 38 0
2021-01-25 22:28:29 GMT 14.673946 -17.072838 0 0 40 0
2021-01-25 22:28:26 GMT 14.673486 -17.072838 0 0 47 0
2021-01-25 22:28:24 GMT 14.672653 -17.072824 0 0 53 0
2021-01-25 22:28:21 GMT 14.672090 -17.072826 0 0 64 0
2021-01-25 22:28:19 GMT 14.671205 -17.072802 0 0 69 0
2021-01-25 22:28:18 GMT 14.671205 -17.072802 0 0 70 0
2021-01-25 22:28:15 GMT 14.670216 -17.072802 0 0 76 0
2021-01-25 22:28:12 GMT 14.669157 -17.072790 0 0 80 0
2021-01-25 22:28:11 GMT 14.668249 -17.072779 0 0 84 0
2021-01-25 22:28:07 GMT 14.667435 -17.072779 0 0 90 0
2021-01-25 22:28:06 GMT 14.666771 -17.072765 0 0 94 0
2021-01-25 22:28:04 GMT 14.663040 -17.072706 250 0 103 -128
2021-01-25 22:27:58 GMT 14.662558 -17.072706 250 0 119 -128
2021-01-25 22:27:56 GMT 14.662079 -17.072706 250 0 121 -128
2021-01-25 22:27:55 GMT 14.661488 -17.072706 275 0 125 -128
2021-01-25 22:27:53 GMT 14.660463 -17.072706 275 0 125 -128
2021-01-25 22:27:51 GMT 14.659253 -17.072706 250 0 127 -128
2021-01-25 22:27:50 GMT 14.658600 -17.072706 250 0 128 -64
2021-01-25 22:27:49 GMT 14.658005 -17.072659 250 0 130 -320
2021-01-25 22:27:47 GMT 14.656832 -17.072659 275 0 131 -448
2021-01-25 22:27:46 GMT 14.654877 -17.072659 325 0 131 -640
2021-01-25 22:27:44 GMT 14.654877 -17.072659 325 0 131 -704
2021-01-25 22:27:43 GMT 14.654272 -17.072609 350 0 132 -640
2021-01-25 22:27:42 GMT 14.653667 -17.072609 350 0 132 -640
2021-01-25 22:27:40 GMT 14.652374 -17.072613 375 0 133 -704
2021-01-25 22:27:39 GMT 14.651688 -17.072613 400 0 133 -704
2021-01-25 22:27:38 GMT 14.651321 -17.072613 400 0 133 -704
2021-01-25 22:27:36 GMT 14.650036 -17.072561 425 359 133 -704
2021-01-25 22:27:35 GMT 14.649431 -17.072561 425 359 133 -704
2021-01-25 22:27:33 GMT 14.648529 -17.072563 450 359 133 -704
2021-01-25 22:27:31 GMT 14.647196 -17.072514 475 0 134 -640
2021-01-25 22:27:29 GMT 14.645233 -17.072517 500 0 134 -640
2021-01-25 22:27:27 GMT 14.644547 -17.072470 525 0 135 -640
2021-01-25 22:27:26 GMT 14.643997 -17.072470 525 0 135 -640
2021-01-25 22:27:24 GMT 14.642670 -17.072470 550 0 135 -704
2021-01-25 22:27:23 GMT 14.642120 -17.072470 575 0 135 -704
2021-01-25 22:27:22 GMT 14.641525 -17.072470 575 0 135 -704
2021-01-25 22:27:20 GMT 14.640213 -17.072416 600 0 134 -640
2021-01-25 22:27:19 GMT 14.639562 -17.072416 625 0 134 -640
2021-01-25 22:27:18 GMT 14.638630 -17.072416 625 0 134 -640
2021-01-25 22:27:17 GMT 14.638046 -17.072422 650 0 134 -576
2021-01-25 22:27:16 GMT 14.637405 -17.072422 650 0 134 -576
2021-01-25 22:27:15 GMT 14.636815 -17.072416 650 0 134 -576
2021-01-25 22:27:13 GMT 14.635558 -17.072466 675 0 134 -640
2021-01-25 22:27:11 GMT 14.634255 -17.072466 700 0 134 -640
2021-01-25 22:27:10 GMT 14.633649 -17.072466 700 0 135 -640
2021-01-25 22:27:08 GMT 14.632392 -17.072466 725 0 135 -640
2021-01-25 22:27:07 GMT 14.631729 -17.072470 750 0 135 -704
2021-01-25 22:27:05 GMT 14.630539 -17.072470 750 0 135 -704
2021-01-25 22:27:04 GMT 14.629303 -17.072470 800 0 136 -704
2021-01-25 22:27:02 GMT 14.628708 -17.072422 800 0 136 -704
2021-01-25 22:27:00 GMT 14.627747 -17.072422 825 0 136 -704
2021-01-25 22:26:59 GMT 14.626831 -17.072422 825 359 136 -704
2021-01-25 22:26:58 GMT 14.626154 -17.072369 850 359 137 -704
2021-01-25 22:26:57 GMT 14.625320 -17.072374 850 359 137 -704
2021-01-25 22:26:56 GMT 14.624618 -17.072369 875 359 137 -640
2021-01-25 22:26:53 GMT 14.622620 -17.072281 900 359 138 -640
2021-01-25 22:26:51 GMT 14.621292 -17.072281 925 359 138 -704
2021-01-25 22:26:49 GMT 14.620289 -17.072224 950 0 138 -704
2021-01-25 22:26:48 GMT 14.619451 -17.072224 975 0 139 -704
2021-01-25 22:26:47 GMT 14.618892 -17.072224 975 0 139 -640
2021-01-25 22:26:46 GMT 14.617172 -17.072186 1,000 0 139 -640
2021-01-25 22:26:43 GMT 14.616425 -17.072224 1,025 0 139 -576
2021-01-25 22:26:41 GMT 14.615122 -17.072224 1,025 0 139 -576
2021-01-25 22:26:40 GMT 14.614470 -17.072224 1,050 0 139 -576
2021-01-25 22:26:39 GMT 14.613772 -17.072224 1,050 0 139 -576
2021-01-25 22:26:38 GMT 14.612503 -17.072233 1,075 0 139 -576
2021-01-25 22:26:36 GMT 14.611816 -17.072224 1,100 0 139 -640
2021-01-25 22:26:35 GMT 14.611130 -17.072233 1,100 0 138 -640
2021-01-25 22:26:34 GMT 14.609665 -17.072233 1,125 0 138 -640
2021-01-25 22:26:32 GMT 14.609024 -17.072233 1,150 0 138 -640
2021-01-25 22:26:31 GMT 14.608429 -17.072233 1,150 0 138 -640
2021-01-25 22:26:29 GMT 14.607147 -17.072281 1,175 0 137 -640
2021-01-25 22:26:27 GMT 14.605858 -17.072271 1,200 0 137 -640
2021-01-25 22:26:26 GMT 14.605159 -17.072271 1,200 0 137 -640
2021-01-25 22:26:24 GMT 14.603897 -17.072281 1,225 0 137 -640
2021-01-25 22:26:23 GMT 14.603210 -17.072281 1,225 0 138 -640
2021-01-25 22:26:22 GMT 14.602798 -17.072281 1,250 0 138 -640
2021-01-25 22:26:20 GMT 14.601296 -17.072271 1,275 0 139 -640
2021-01-25 22:26:19 GMT 14.600923 -17.072271 1,275 0 140 -640
2021-01-25 22:26:18 GMT 14.599548 -17.072281 1,300 0 141 -640
2021-01-25 22:26:16 GMT 14.598921 -17.072271 1,300 0 142 -640
2021-01-25 22:26:15 GMT 14.598221 -17.072281 1,325 0 143 -640
2021-01-25 22:26:14 GMT 14.597534 -17.072281 1,325 0 144 -640
2021-01-25 22:26:12 GMT 14.596024 -17.072281 1,350 0 145 -704
2021-01-25 22:26:11 GMT 14.595290 -17.072271 1,375 0 146 -768
2021-01-25 22:26:10 GMT 14.594742 -17.072281 1,375 0 147 -768
2021-01-25 22:26:08 GMT 14.593242 -17.072271 1,425 0 149 -832
2021-01-25 22:26:07 GMT 14.592590 -17.072271 1,425 0 149 -832
2021-01-25 22:26:06 GMT 14.591766 -17.072281 1,450 0 150 -832
2021-01-25 22:26:04 GMT 14.590682 -17.072271 1,475 359 150 -896
2021-01-25 22:26:03 GMT 14.589704 -17.072224 1,500 359 151 -960
2021-01-25 22:26:01 GMT 14.589066 -17.072233 1,500 359 152 -1024
2021-01-25 22:25:59 GMT 14.587749 -17.072176 1,550 359 153 -1024
2021-01-25 22:25:57 GMT 14.586306 -17.072126 1,575 358 154 -960
2021-01-25 22:25:55 GMT 14.585266 -17.072090 1,600 358 154 -896
2021-01-25 22:25:54 GMT 14.583326 -17.072031 1,625 358 156 -832
2021-01-25 22:25:52 GMT 14.582611 -17.071997 1,650 358 157 -768
2021-01-25 22:25:51 GMT 14.581930 -17.071983 1,650 358 158 -704
2021-01-25 22:25:50 GMT 14.581185 -17.071936 1,675 358 159 -704
2021-01-25 22:25:48 GMT 14.579509 -17.071886 1,700 358 161 -640
2021-01-25 22:25:47 GMT 14.578720 -17.071854 1,700 359 162 -640
2021-01-25 22:25:46 GMT 14.578079 -17.071808 1,725 359 163 -640
2021-01-25 22:25:45 GMT 14.577347 -17.071808 1,725 359 164 -576
2021-01-25 22:25:43 GMT 14.575745 -17.071758 1,750 359 166 -640
2021-01-25 22:25:42 GMT 14.574947 -17.071741 1,750 359 167 -704
2021-01-25 22:25:41 GMT 14.574156 -17.071741 1,775 0 167 -768
2021-01-25 22:25:39 GMT 14.572632 -17.071712 1,800 0 168 -896
2021-01-25 22:25:37 GMT 14.570984 -17.071712 1,825 0 169 -832
2021-01-25 22:25:35 GMT 14.569336 -17.071712 1,850 0 171 -832
2021-01-25 22:25:34 GMT 14.568558 -17.071712 1,850 0 171 -832
2021-01-25 22:25:33 GMT 14.567173 -17.071693 1,875 0 173 -832
2021-01-25 22:25:32 GMT 14.566335 -17.071693 1,900 0 173 -832
2021-01-25 22:25:30 GMT 14.565497 -17.071693 1,900 0 174 -896
2021-01-25 22:25:29 GMT 14.564659 -17.071741 1,925 0 174 -896
2021-01-25 22:25:28 GMT 14.563797 -17.071712 1,950 0 175 -896
2021-01-25 22:25:26 GMT 14.562238 -17.071741 1,975 0 176 -896
2021-01-25 22:25:25 GMT 14.561307 -17.071741 2,000 0 176 -896
2021-01-25 22:25:15 GMT 14.552928 -17.071886 2,150 0 178 -960
2021-01-25 22:25:09 GMT 14.547993 -17.071886 2,250 0 178 -960
2021-01-25 22:25:05 GMT 14.544708 -17.071854 2,300 0 179 -960
2021-01-25 22:24:58 GMT 14.538822 -17.071693 2,425 359 179 -1024
2021-01-25 22:24:55 GMT 14.536355 -17.071646 2,475 359 179 -1024
2021-01-25 22:24:45 GMT 14.528069 -17.071358 2,650 359 178 -1088
2021-01-25 22:24:39 GMT 14.521040 -17.071213 2,800 359 177 -1088
2021-01-25 22:24:35 GMT 14.519669 -17.071192 2,850 0 176 -1024
2021-01-25 22:24:24 GMT 14.511124 -17.071163 2,975 0 175 -640
2021-01-25 22:24:18 GMT 14.505295 -17.071144 3,000 0 182 0
2021-01-25 22:24:15 GMT 14.503257 -17.071115 3,000 0 187 192
2021-01-25 22:24:07 GMT 14.495017 -17.071018 3,000 0 195 -64
2021-01-25 22:24:04 GMT 14.493896 -17.071001 3,000 0 197 -192
2021-01-25 22:23:55 GMT 14.484822 -17.070875 3,025 0 205 0
2021-01-25 22:23:45 GMT 14.475266 -17.070812 3,025 0 216 -64
2021-01-25 22:23:32 GMT 14.462311 -17.070765 3,025 0 225 64
2021-01-25 22:23:24 GMT 14.453842 -17.070669 3,075 0 231 -640
2021-01-25 22:23:13 GMT 14.439697 -17.070528 3,175 0 237 -384
2021-01-25 22:23:04 GMT 14.431939 -17.070490 3,225 0 241 -384
2021-01-25 22:23:01 GMT 14.428726 -17.070440 3,250 0 242 -384
2021-01-25 22:22:54 GMT 14.420746 -17.070435 3,300 0 247 -448
2021-01-25 22:22:52 GMT 14.417228 -17.070393 3,300 0 247 -384
2021-01-25 22:22:43 GMT 14.408104 -17.070440 3,375 1 250 -448
2021-01-25 22:22:41 GMT 14.404147 -17.070538 3,400 2 251 -448
2021-01-25 22:22:34 GMT 14.397400 -17.070860 3,425 2 255 -320
2021-01-25 22:22:29 GMT 14.390879 -17.071018 3,450 0 258 -320
2021-01-25 22:22:24 GMT 14.385406 -17.070765 3,475 355 262 -448
2021-01-25 22:22:19 GMT 14.378494 -17.069723 3,525 348 266 -512
2021-01-25 22:22:14 GMT 14.373459 -17.068350 3,550 343 270 -448
2021-01-25 22:22:09 GMT 14.366043 -17.065792 3,600 340 273 -576
2021-01-25 22:22:04 GMT 14.360714 -17.063744 3,675 340 274 -960
2021-01-25 22:21:58 GMT 14.353271 -17.060867 3,775 340 275 -960
2021-01-25 22:21:54 GMT 14.349262 -17.059359 3,825 340 275 -960
2021-01-25 22:21:47 GMT 14.340042 -17.055801 3,950 340 276 -1024
2021-01-25 22:21:44 GMT 14.337296 -17.054758 4,000 340 276 -960
2021-01-25 22:21:34 GMT 14.325148 -17.050106 4,150 340 278 -1024
2021-01-25 22:21:24 GMT 14.312765 -17.045383 4,325 340 279 -1024
2021-01-25 22:21:13 GMT 14.300475 -17.040663 4,500 340 280 -1024
2021-01-25 22:21:04 GMT 14.287766 -17.035816 4,675 340 282 -1024
2021-01-25 22:20:54 GMT 14.276047 -17.031366 4,825 340 283 -1024
2021-01-25 22:20:43 GMT 14.261278 -17.025724 5,000 340 284 -1024
2021-01-25 22:20:33 GMT 14.245239 -17.019573 5,275 340 283 -1024
2021-01-25 22:20:24 GMT 14.238840 -17.017147 5,350 340 283 -1024
2021-01-25 22:20:18 GMT 14.230786 -17.014065 5,475 340 283 -1024
2021-01-25 22:20:14 GMT 14.226425 -17.012424 5,525 340 284 -1024
2021-01-25 22:20:08 GMT 14.217798 -17.009102 5,650 340 284 -960
2021-01-25 22:20:04 GMT 14.214214 -17.007704 5,675 340 284 -960
2021-01-25 22:19:54 GMT 14.202164 -17.003096 5,850 340 285 -1024
2021-01-25 22:19:44 GMT 14.189209 -16.998123 6,000 340 285 -960
2021-01-25 22:19:34 GMT 14.176739 -16.993343 6,175 340 286 -960
2021-01-25 22:19:24 GMT 14.164403 -16.988573 6,325 340 286 -1024
2021-01-25 22:19:14 GMT 14.151947 -16.983822 6,500 340 287 -960
2021-01-25 22:19:04 GMT 14.139497 -16.979080 6,675 340 287 -1024
2021-01-25 22:18:53 GMT 14.124664 -16.973356 6,825 340 288 -960
2021-01-25 22:18:44 GMT 14.114545 -16.969492 7,000 340 289 -960
2021-01-25 22:18:42 GMT 14.111659 -16.968336 7,025 340 289 -960
2021-01-25 22:18:34 GMT 14.101868 -16.964596 7,150 340 290 -1024
2021-01-25 22:18:31 GMT 14.097427 -16.962843 7,225 340 291 -960
2021-01-25 22:18:23 GMT 14.088181 -16.959291 7,325 340 293 -1024
2021-01-25 22:18:21 GMT 14.084244 -16.957729 7,375 340 293 -1024
2021-01-25 22:18:13 GMT 14.075546 -16.954367 7,500 340 294 -960
2021-01-25 22:18:10 GMT 14.069412 -16.952045 7,575 340 294 -1024
2021-01-25 22:18:04 GMT 14.063461 -16.949774 7,650 340 295 -1088
2021-01-25 22:17:58 GMT 14.056503 -16.947168 7,750 340 296 -1024
2021-01-25 22:17:53 GMT 14.050117 -16.944725 7,825 340 297 -1024
2021-01-25 22:17:49 GMT 14.043457 -16.942198 7,925 340 297 -1024
2021-01-25 22:17:43 GMT 14.037323 -16.939877 8,000 340 298 -1024
2021-01-25 22:17:38 GMT 14.028488 -16.936466 8,125 340 299 -1024
2021-01-25 22:17:33 GMT 14.024597 -16.934999 8,175 340 299 -1024
2021-01-25 22:17:27 GMT 14.015343 -16.931522 8,300 340 300 -1024
2021-01-25 22:17:23 GMT 14.011572 -16.930077 8,350 340 300 -1024
2021-01-25 22:17:16 GMT 14.000473 -16.925812 8,500 340 301 -1024
2021-01-25 22:17:13 GMT 13.997955 -16.924866 8,525 340 302 -1024
2021-01-25 22:17:06 GMT 13.987318 -16.920874 8,650 340 304 -1024
2021-01-25 22:17:03 GMT 13.984572 -16.919813 8,700 340 304 -1024
2021-01-25 22:16:53 GMT 13.971497 -16.914825 8,875 340 305 -960
2021-01-25 22:16:43 GMT 13.958363 -16.909838 9,025 340 307 -1408
2021-01-25 22:16:33 GMT 13.945084 -16.904739 9,250 340 307 -704
2021-01-25 22:16:23 GMT 13.929361 -16.898756 9,350 340 312 -512
2021-01-25 22:16:12 GMT 13.913635 -16.892757 9,450 340 319 -512
2021-01-25 22:16:03 GMT 13.903885 -16.889017 9,525 340 322 -512
2021-01-25 22:16:00 GMT 13.898915 -16.887142 9,550 340 324 -512
2021-01-25 22:15:53 GMT 13.889372 -16.883480 9,600 340 329 -512
2021-01-25 22:15:51 GMT 13.884670 -16.881651 9,625 340 330 -512
2021-01-25 22:15:43 GMT 13.875183 -16.878031 9,700 340 334 -512
2021-01-25 22:15:40 GMT 13.867859 -16.875189 9,725 340 338 -512
2021-01-25 22:15:33 GMT 13.860137 -16.872253 9,775 340 341 -576
2021-01-25 22:15:29 GMT 13.852968 -16.869507 9,825 340 344 -576
2021-01-25 22:15:22 GMT 13.844356 -16.866230 9,850 340 348 -512
2021-01-25 22:15:17 GMT 13.835449 -16.862829 9,900 340 351 -576
2021-01-25 22:15:13 GMT 13.830158 -16.860832 9,950 340 353 -576
2021-01-25 22:15:07 GMT 13.819656 -16.856863 10,000 340 353 -64
2021-01-25 22:15:03 GMT 13.814392 -16.854828 10,000 340 353 0
2021-01-25 22:14:56 GMT 13.801804 -16.850044 10,000 340 352 64
2021-01-25 22:14:52 GMT 13.798599 -16.848812 10,000 340 352 0
2021-01-25 22:14:46 GMT 13.785828 -16.843935 10,000 340 352 0
2021-01-25 22:14:43 GMT 13.783326 -16.842957 10,000 340 352 0
2021-01-25 22:14:33 GMT 13.768476 -16.837271 10,000 340 351 -64
2021-01-25 22:14:23 GMT 13.752555 -16.831200 10,000 340 351 0
2021-01-25 22:14:13 GMT 13.737946 -16.825609 10,000 340 351 0
2021-01-25 22:14:03 GMT 13.720248 -16.818865 10,000 340 351 0
2021-01-25 22:13:52 GMT 13.704187 -16.812744 10,000 340 344 64
2021-01-25 22:13:43 GMT 13.692398 -16.808229 9,975 340 331 192
2021-01-25 22:13:40 GMT 13.687568 -16.806383 9,975 340 328 384
2021-01-25 22:13:33 GMT 13.678165 -16.802818 9,875 340 317 1024
2021-01-25 22:13:31 GMT 13.673264 -16.800938 9,800 340 312 1280
2021-01-25 22:13:19 GMT 13.657883 -16.795113 9,425 340 303 2432
2021-01-25 22:13:09 GMT 13.644740 -16.790096 9,025 340 303 2112
2021-01-25 22:13:02 GMT 13.637329 -16.787298 8,850 340 300 1792
2021-01-25 22:12:57 GMT 13.629868 -16.784458 8,675 340 297 1856
2021-01-25 22:12:53 GMT 13.625336 -16.782753 8,575 340 295 1728
2021-01-25 22:12:47 GMT 13.616135 -16.779247 8,375 340 291 1600
2021-01-25 22:12:43 GMT 13.612107 -16.777714 8,275 340 289 1792
2021-01-25 22:12:37 GMT 13.603728 -16.774485 8,025 340 287 2496
2021-01-25 22:12:32 GMT 13.599014 -16.772667 7,850 340 286 2880
2021-01-25 22:12:23 GMT 13.587158 -16.768072 7,350 340 291 3136
2021-01-25 22:12:16 GMT 13.576401 -16.763859 6,950 339 291 2560
2021-01-25 22:12:13 GMT 13.574387 -16.763054 6,900 339 291 2496
2021-01-25 22:12:03 GMT 13.561890 -16.758127 6,500 339 290 2432
2021-01-25 22:11:53 GMT 13.549308 -16.753042 6,075 339 288 2432
2021-01-25 22:11:43 GMT 13.536758 -16.747852 5,675 338 286 2176
2021-01-25 22:11:33 GMT 13.524628 -16.742785 5,350 338 282 2112
2021-01-25 22:11:23 GMT 13.512392 -16.737671 4,975 338 278 2176
2021-01-25 22:11:12 GMT 13.498054 -16.731890 4,550 340 273 2048
2021-01-25 22:11:03 GMT 13.489023 -16.728563 4,300 342 268 1792
2021-01-25 22:11:00 GMT 13.485077 -16.727205 4,200 342 267 1728
2021-01-25 22:10:50 GMT 13.472869 -16.723167 3,950 343 259 1408
2021-01-25 22:10:42 GMT 13.465118 -16.720671 3,775 343 252 1536
2021-01-25 22:10:38 GMT 13.459788 -16.719023 3,650 345 248 1408
2021-01-25 22:10:33 GMT 13.454590 -16.717545 3,550 345 242 1152
2021-01-25 22:10:29 GMT 13.448547 -16.715839 3,450 345 237 1216
2021-01-25 22:10:22 GMT 13.443375 -16.714373 3,350 346 231 1216
2021-01-25 22:10:18 GMT 13.437790 -16.712856 3,225 346 227 1280
2021-01-25 22:10:12 GMT 13.433121 -16.711626 3,125 346 222 1600
2021-01-25 22:10:07 GMT 13.426208 -16.709873 2,925 347 219 1664
2021-01-25 22:10:02 GMT 13.423187 -16.709116 2,850 347 217 1536
2021-01-25 22:09:56 GMT 13.416495 -16.707458 2,700 347 211 1088
2021-01-25 22:09:50 GMT 13.411839 -16.706350 2,625 347 205 768
2021-01-25 22:09:45 GMT 13.406158 -16.704948 2,550 347 199 576
2021-01-25 22:09:42 GMT 13.404205 -16.704472 2,550 347 196 704
2021-01-25 22:09:35 GMT 13.396820 -16.702723 2,425 347 190 832
2021-01-25 22:09:31 GMT 13.395035 -16.702250 2,400 346 187 832
2021-01-25 22:09:22 GMT 13.386887 -16.700024 2,225 343 181 896
2021-01-25 22:09:12 GMT 13.378922 -16.696804 2,075 331 177 832
2021-01-25 22:09:03 GMT 13.372284 -16.692068 1,875 319 177 1792
2021-01-25 22:08:54 GMT 13.367615 -16.687239 1,600 313 179 2048
2021-01-25 22:08:52 GMT 13.366451 -16.685968 1,525 313 179 2112
2021-01-25 22:08:38 GMT 13.358677 -16.676956 1,075 312 176 1664
2021-01-25 22:08:27 GMT 13.352625 -16.669827 800 311 168 1472
2021-01-25 22:08:17 GMT 13.347610 -16.663797 475 311 168 2240
2021-01-25 22:08:06 GMT 13.341614 -16.656694 100 311 170 384
2021-01-25 22:07:54 GMT 13.336853 -16.651058 150 311 139 64
2021-01-25 22:07:44 GMT 13.332375 -16.645733 150 311 101 64
2021-01-25 22:07:34 GMT 13.329686 -16.642515 0 309 66
2021-01-25 22:07:22 GMT 13.328041 -16.640570 0 309 23
2021-01-25 22:03:24 GMT 13.330920 -16.643986 0 129 34
2021-01-25 22:03:14 GMT 13.331829 -16.645067 0 129 33
2021-01-25 22:02:25 GMT 13.336192 -16.650274 0 132 24
2021-01-25 22:02:20 GMT 13.336541 -16.650684 0 129 22
2021-01-25 22:02:09 GMT 13.337181 -16.651455 0 129 18
2021-01-25 22:01:59 GMT 13.337635 -16.651985 0 132 15
2021-01-25 22:01:49 GMT 13.338054 -16.652515 0 154 15
2021-01-25 22:01:36 GMT 13.338834 -16.652468 0 222 15

Making use of Plane Finder data

You are free to use the raw flight data, aircraft information and images provided in this report for your own purposes provided the data is correctly attributed to Plane Finder. We ask that you please credit Plane Finder and link to planefinder.net in close proximity to the content.

Optionally one of the following logos (no smaller then 150x24px) can be used and must link to planefinder.net

Embedding the Plane Finder map

You are welcome to embed the Plane Finder playback map on your website to offer visitors a more interactive experience. We suggest using the following HTML code:

<iframe src="//planefinder.net/data/report/SN217-OO-SFD-7700-squawk-2021-01-26/map" width="800" height="600" seamless="seamless"></iframe>

Where our data comes from

Plane Finder has a global network of data feeds and antenna radars that receive data broadcast directly from aircraft. The primary technologies used are ADS-B and MLAT. We also show feeds from the FAA and a FLARM glider feed.

Click here to find out more about the Plane Finder network.

How we collect our data